[[{"header":{"parameterUnit":"m.s-1","parameterCategory":1,"la1":30.6,"la2":28.766,"lo1":-90.7593,"lo2":-88.6598,"dy":0.0162,"dx":0.0183,"nx":116,"ny":114,"refTime":"2024-04-11T06:00:00:Z","depth":0,"parameterNumber":2,"parameterNumberName":"U-component_of_WINDS"},"data":[0.0,0.0,0.0,0.0,0.0,0.0,0.0,0.0,0.0,0.0,0.0,0.0,0.0,0.0,0.0,0.0,0.0,0.0,0.0,0.0,0.0,0.0,0.0,0.0,0.0,0.0,0.0,0.0,0.0,0.0,0.0,0.0,0.0,0.0,0.0,0.0,0.0,0.0,0.0,0.0,0.0,0.0,0.0,0.0,0.0,0.0,0.0,0.0,0.0,0.0,0.0,0.0,0.0,0.0,0.0,0.0,0.0,0.0,0.0,0.0,0.0,0.0,0.0,0.0,0.0,0.0,0.0,0.0,0.0,0.0,0.0,0.0,0.0,0.0,0.0,0.0,0.0,0.0,0.0,0.0,0.0,0.0,0.0,0.0,0.0,0.0,0.0,0.0,0.0,0.0,0.0,0.0,0.0,0.0,0.0,0.0,0.0,0.0,0.0,0.0,0.0,0.0,0.0,0.0,0.0,0.0,0.0,0.0,0.0,0.0,0.0,0.0,0.0,0.0,0.0,0.0,0.0,0.0,0.0,0.0,0.0,0.0,0.0,0.0,0.0,0.0,0.0,0.0,0.0,0.0,0.0,0.0,0.0,0.0,0.0,0.0,0.0,0.0,0.0,0.0,0.0,0.0,0.0,0.0,0.0,0.0,0.0,0.0,0.0,0.0,0.0,0.0,0.0,0.0,0.0,0.0,0.0,0.0,0.0,0.0,0.0,0.0,0.0,0.0,0.0,0.0,0.0,0.0,0.0,0.0,0.0,0.0,0.0,0.0,0.0,0.0,0.0,0.0,0.0,0.0,0.0,0.0,0.0,0.0,0.0,0.0,0.0,0.0,0.0,0.0,0.0,0.0,0.0,0.0,0.0,0.0,0.0,0.0,0.0,0.0,0.0,0.0,0.0,0.0,0.0,0.0,0.0,0.0,0.0,0.0,0.0,0.0,0.0,0.0,0.0,0.0,0.0,0.0,0.0,0.0,0.0,0.0,0.0,0.0,0.0,0.0,0.0,0.0,0.0,0.0,0.0,0.0,0.0,0.0,0.0,0.0,0.0,0.0,0.0,0.0,0.0,0.0,0.0,0.0,0.0,0.0,0.0,0.0,0.0,0.0,0.0,0.0,0.0,0.0,0.0,0.0,0.0,0.0,0.0,0.0,0.0,0.0,0.0,0.0,0.0,0.0,0.0,0.0,0.0,0.0,0.0,0.0,0.0,0.0,0.0,0.0,0.0,0.0,0.0,0.0,0.0,0.0,0.0,0.0,0.0,0.0,0.0,0.0,0.0,0.0,0.0,0.0,0.0,0.0,0.0,0.0,0.0,0.0,0.0,0.0,0.0,0.0,0.0,0.0,0.0,0.0,0.0,0.0,0.0,0.0,0.0,0.0,0.0,0.0,0.0,0.0,0.0,0.0,0.0,0.0,0.0,0.0,0.0,0.0,0.0,0.0,0.0,0.0,0.0,0.0,0.0,0.0,0.0,0.0,0.0,0.0,0.0,0.0,0.0,0.0,0.0,0.0,0.0,0.0,0.0,0.0,0.0,0.0,0.0,0.0,0.0,0.0,0.0,0.0,0.0,0.0,0.0,0.0,0.0,0.0,0.0,0.0,0.0,0.0,0.0,0.0,0.0,0.0,0.0,0.0,0.0,0.0,0.0,0.0,0.0,0.0,0.0,0.0,0.0,0.0,0.0,0.0,0.0,0.0,0.0,0.0,0.0,0.0,0.0,0.0,0.0,0.0,0.0,0.0,0.0,0.0,0.0,0.0,0.0,0.0,0.0,0.0,0.0,0.0,0.0,0.0,0.0,0.0,0.0,0.0,0.0,0.0,0.0,0.0,0.0,0.0,0.0,0.0,0.0,0.0,0.0,0.0,0.0,0.0,0.0,0.0,0.0,0.0,0.0,0.0,0.0,0.0,0.0,0.0,0.0,0.0,0.0,0.0,0.0,0.0,0.0,0.0,0.0,0.0,0.0,0.0,0.0,0.0,0.0,0.0,0.0,0.0,0.0,0.0,0.0,0.0,0.0,0.0,0.0,0.0,0.0,0.0,0.0,0.0,0.0,0.0,0.0,0.0,0.0,0.0,0.0,0.0,0.0,0.0,0.0,0.0,0.0,0.0,0.0,0.0,0.0,0.0,0.0,0.0,0.0,0.0,0.0,0.0,0.0,0.0,0.0,0.0,0.0,0.0,0.0,0.0,0.0,0.0,0.0,0.0,0.0,0.0,0.0,0.0,0.0,0.0,0.0,0.0,0.0,0.0,0.0,0.0,0.0,0.0,0.0,0.0,0.0,0.0,0.0,0.0,0.0,0.0,0.0,0.0,0.0,0.0,0.0,0.0,0.0,0.0,0.0,0.0,0.0,0.0,0.0,0.0,0.0,0.0,0.0,0.0,0.0,0.0,0.0,0.0,0.0,0.0,0.0,0.0,0.0,0.0,0.0,0.0,0.0,0.0,0.0,0.0,0.0,0.0,0.0,0.0,0.0,0.0,0.0,0.0,0.0,0.0,0.0,0.0,0.0,0.0,0.0,0.0,0.0,0.0,0.0,0.0,0.0,0.0,0.0,0.0,0.0,0.0,0.0,0.0,0.0,0.0,0.0,0.0,0.0,0.0,0.0,0.0,0.0,0.0,0.0,0.0,0.0,0.0,0.0,0.0,0.0,0.0,0.0,0.0,0.0,0.0,0.0,0.0,0.0,0.0,0.0,0.0,0.0,0.0,0.0,0.0,0.0,0.0,0.0,0.0,0.0,0.0,0.0,0.0,0.0,0.0,0.0,0.0,0.0,0.0,0.0,0.0,0.0,0.0,0.0,0.0,0.0,0.0,0.0,0.0,0.0,0.0,0.0,0.0,0.0,0.0,0.0,0.0,0.0,0.0,0.0,0.0,0.0,0.0,0.0,0.0,0.0,0.0,0.0,0.0,0.0,0.0,0.0,0.0,0.0,0.0,0.0,0.0,0.0,0.0,0.0,0.0,0.0,0.0,0.0,0.0,0.0,0.0,0.0,0.0,0.0,0.0,0.0,0.0,0.0,0.0,0.0,0.0,0.0,0.0,0.0,0.0,0.0,0.0,0.0,0.0,0.0,0.0,0.0,0.0,0.0,0.0,0.0,0.0,0.0,0.0,0.0,0.0,0.0,0.0,0.0,0.0,0.0,0.0,0.0,0.0,0.0,0.0,0.0,0.0,0.0,0.0,0.0,0.0,0.0,0.0,0.0,0.0,0.0,0.0,0.0,0.0,0.0,0.0,0.0,0.0,0.0,0.0,0.0,0.0,0.0,0.0,0.0,0.0,0.0,0.0,0.0,0.0,0.0,0.0,0.0,0.0,0.0,0.0,0.0,0.0,0.0,0.0,0.0,0.0,0.0,0.0,0.0,0.0,0.0,0.0,0.0,0.0,0.0,0.0,0.0,0.0,0.0,0.0,0.0,0.0,0.0,0.0,0.0,0.0,0.0,0.0,0.0,0.0,0.0,0.0,0.0,0.0,0.0,0.0,0.0,0.0,0.0,0.0,0.0,0.0,0.0,0.0,0.0,0.0,0.0,0.0,0.0,0.0,0.0,0.0,0.0,0.0,0.0,0.0,0.0,0.0,0.0,0.0,0.0,0.0,0.0,0.0,0.0,0.0,0.0,0.0,0.0,0.0,0.0,0.0,0.0,0.0,0.0,0.0,0.0,0.0,0.0,0.0,0.0,0.0,0.0,0.0,0.0,0.0,0.0,0.0,0.0,0.0,0.0,0.0,0.0,0.0,0.0,0.0,0.0,0.0,0.0,0.0,0.0,0.0,0.0,0.0,0.0,0.0,0.0,0.0,0.0,0.0,0.0,0.0,0.0,0.0,0.0,0.0,0.0,0.0,0.0,0.0,0.0,0.0,0.0,0.0,0.0,0.0,0.0,0.0,0.0,0.0,0.0,0.0,0.0,0.0,0.0,0.0,0.0,0.0,0.0,0.0,0.0,0.0,0.0,0.0,0.0,0.0,0.0,0.0,0.0,0.0,0.0,0.0,0.0,0.0,0.0,0.0,0.0,0.0,0.0,0.0,0.0,0.0,0.0,0.0,0.0,0.0,0.0,0.0,0.0,0.0,0.0,0.0,0.0,0.0,0.0,0.0,0.0,0.0,0.0,0.0,0.0,0.0,0.0,0.0,0.0,0.0,0.0,0.0,0.0,0.0,0.0,0.0,0.0,0.0,0.0,0.0,0.0,0.0,0.0,0.0,0.0,0.0,0.0,0.0,0.0,0.0,0.0,0.0,0.0,0.0,0.0,0.0,0.0,0.0,0.0,0.0,0.0,0.0,0.0,0.0,0.0,0.0,0.0,0.0,0.0,0.0,0.0,0.0,0.0,0.0,0.0,0.0,0.0,0.0,0.0,0.0,0.0,0.0,0.0,0.0,0.0,0.0,0.0,0.0,0.0,0.0,0.0,0.0,0.0,0.0,0.0,0.0,0.0,0.0,0.0,0.0,0.0,0.0,0.0,0.0,0.0,0.0,0.0,0.0,0.0,0.0,0.0,0.0,0.0,0.0,0.0,0.0,0.0,0.0,0.0,0.0,0.0,0.0,0.0,0.0,0.0,0.0,0.0,0.0,0.0,0.0,0.0,0.0,0.0,0.0,0.0,0.0,0.0,0.0,0.0,0.0,0.0,0.0,0.0,0.0,0.0,0.0,0.0,0.0,0.0,0.0,0.0,0.0,0.0,0.0,0.0,0.0,0.0,0.0,0.0,0.0,0.0,0.0,0.0,0.0,0.0,0.0,0.0,0.0,0.0,0.0,0.0,0.0,0.0,0.0,0.0,0.0,0.0,0.0,0.0,0.0,0.0,0.0,0.0,0.0,0.0,0.0,0.0,0.0,0.0,0.0,0.0,0.0,0.0,0.0,0.0,0.0,0.0,0.0,0.0,0.0,0.0,0.0,0.0,0.0,0.0,0.0,0.0,0.0,0.0,0.0,0.0,0.0,0.0,0.0,0.0,0.0,0.0,0.0,0.0,0.0,0.0,0.0,0.0,0.0,0.0,0.0,0.0,0.0,0.0,0.0,0.0,0.0,0.0,0.0,0.0,0.0,0.0,0.0,0.0,0.0,0.0,0.0,0.0,0.0,0.0,0.0,0.0,0.0,0.0,0.0,0.0,0.0,0.0,0.0,0.0,0.0,0.0,0.0,0.0,0.0,0.0,0.0,0.0,0.0,0.0,0.0,0.0,0.0,0.0,0.0,0.0,0.0,0.0,0.0,0.0,0.0,0.0,0.0,0.0,0.0,0.0,0.0,0.0,0.0,0.0,0.0,0.0,0.0,0.0,0.0,0.0,0.0,0.0,0.0,0.0,0.0,0.0,0.0,0.0,0.0,0.0,0.0,0.0,0.0,0.0,0.0,0.0,0.0,0.0,0.0,0.0,0.0,0.0,0.0,0.0,0.0,0.0,0.0,0.0,0.0,0.0,0.0,0.0,0.0,0.0,0.0,0.0,0.0,0.0,0.0,0.0,0.0,0.0,0.0,0.0,0.0,0.0,0.0,0.0,0.0,0.0,0.0,0.0,0.0,0.0,0.0,0.0,0.0,0.0,0.0,0.0,0.0,0.0,0.0,0.0,0.0,0.0,0.0,0.0,0.0,0.0,0.0,0.0,0.0,0.0,0.0,0.0,0.0,0.0,0.0,0.0,0.0,0.0,0.0,0.0,0.0,0.0,0.0,0.0,0.0,0.0,0.0,0.0,0.0,0.0,0.0,0.0,0.0,0.0,0.0,0.0,0.0,0.0,0.0,0.0,0.0,0.0,0.0,0.0,0.0,0.0,0.0,0.0,0.0,0.0,0.0,0.0,0.0,0.0,0.0,0.0,0.0,0.0,0.0,0.0,0.0,0.0,0.0,0.0,0.0,0.0,0.0,0.0,0.0,0.0,0.0,0.0,0.0,0.0,0.0,0.0,0.0,0.0,0.0,0.0,0.0,0.0,0.0,0.0,0.0,0.0,0.0,0.0,0.0,0.0,0.0,0.0,0.0,0.0,0.0,0.0,0.0,0.0,0.0,0.0,0.0,0.0,0.0,0.0,0.0,0.0,0.0,0.0,0.0,0.0,0.0,0.0,0.0,0.0,0.0,2.483,0.0,0.0,0.0,0.0,0.0,0.0,0.0,0.0,0.0,0.0,0.0,0.0,0.0,0.0,0.0,0.0,0.0,0.0,0.0,0.0,0.0,0.0,0.0,0.0,2.6326,2.7383,2.9624,2.9804,2.9804,2.9804,0.0,0.0,0.0,0.0,0.0,2.9682,2.9114,2.9234,3.0098,3.0391,3.1141,3.2215,3.3002,3.2976,3.2215,0.0,0.0,0.0,0.0,0.0,0.0,0.0,0.0,0.0,0.0,0.0,0.0,0.0,0.0,0.0,0.0,0.0,0.0,0.0,0.0,0.0,0.0,0.0,0.0,0.0,0.0,0.0,0.0,0.0,0.0,0.0,0.0,0.0,0.0,0.0,0.0,0.0,0.0,0.0,0.0,0.0,0.0,0.0,0.0,0.0,0.0,0.0,0.0,0.0,0.0,0.0,0.0,0.0,0.0,0.0,0.0,0.0,0.0,0.0,0.0,0.0,0.0,0.0,0.0,0.0,0.0,0.0,0.0,0.0,0.0,0.0,2.6691,0.0,0.0,0.0,0.0,0.0,0.0,0.0,0.0,0.0,0.0,0.0,0.0,0.0,0.0,0.0,0.0,0.0,0.0,0.0,0.0,0.0,2.3617,2.614,2.667,2.7766,2.9774,3.0005,3.008,3.008,3.008,0.0,0.0,0.0,3.0984,3.1512,3.1537,3.1537,3.1537,3.1738,3.2659,3.4208,3.5843,3.6061,3.5053,3.5627,0.0,0.0,0.0,0.0,0.0,0.0,0.0,0.0,0.0,0.0,0.0,0.0,0.0,0.0,0.0,0.0,0.0,0.0,0.0,0.0,0.0,0.0,0.0,0.0,0.0,0.0,0.0,0.0,0.0,0.0,0.0,0.0,0.0,0.0,0.0,0.0,0.0,0.0,0.0,0.0,0.0,0.0,0.0,0.0,0.0,0.0,0.0,0.0,0.0,0.0,0.0,0.0,0.0,0.0,0.0,0.0,0.0,0.0,0.0,0.0,0.0,0.0,0.0,0.0,3.7568,3.7871,3.72,3.6932,3.6671,3.3697,3.1228,2.9329,0.0,0.0,0.0,0.0,0.0,0.0,0.0,0.0,0.0,0.0,0.0,0.0,0.0,0.0,0.0,0.0,0.0,0.0,0.0,0.0,2.3998,2.5686,2.7499,2.9124,3.0428,3.0909,3.1185,3.1185,3.1185,3.121,3.1286,3.1286,3.1537,3.2089,3.2114,3.2114,3.2114,3.3093,3.5289,3.8607,3.9814,4.1194,4.2491,3.8668,3.7813,3.9051,0.0,0.0,0.0,0.0,0.0,0.0,0.0,0.0,0.0,0.0,0.0,0.0,0.0,0.0,0.0,0.0,0.0,0.0,0.0,0.0,0.0,0.0,0.0,0.0,0.0,0.0,0.0,0.0,0.0,0.0,0.0,0.0,0.0,0.0,0.0,0.0,0.0,0.0,0.0,0.0,0.0,2.7429,2.7696,0.0,0.0,0.0,0.0,0.0,0.0,0.0,0.0,0.0,0.0,0.0,0.0,0.0,0.0,3.5904,3.8066,3.9315,3.954,4.0852,4.1505,4.1489,4.1838,4.2313,4.2662,4.2637,0.0,3.3032,3.317,0.0,0.0,0.0,0.0,0.0,0.0,0.0,0.0,0.0,0.0,0.0,0.0,0.0,0.0,0.0,0.0,0.0,0.0,0.0,0.0,0.0,2.8291,3.0269,3.2326,3.3684,3.41,3.3394,3.4022,3.392,3.2817,3.2792,3.3068,3.3621,3.3018,3.3242,3.4366,3.6389,3.8978,4.2038,4.3937,4.5599,4.7024,4.5656,4.3598,4.1151,3.9843,0.0,0.0,0.0,0.0,0.0,0.0,0.0,0.0,0.0,0.0,0.0,0.0,0.0,0.0,0.0,0.0,0.0,0.0,0.0,0.0,0.0,0.0,0.0,0.0,0.0,0.0,0.0,0.0,0.0,0.0,0.0,0.0,0.0,0.0,0.0,0.0,0.0,0.0,0.0,2.8227,3.0198,2.9573,2.976,2.9376,0.0,0.0,0.0,0.0,0.0,0.0,0.0,0.0,0.0,3.5223,3.648,3.8115,3.9973,4.1555,4.2685,4.3338,4.4719,4.5723,4.6351,4.6577,4.7004,4.7531,4.7456,4.5176,4.1468,3.9324,3.688,3.4387,0.0,0.0,0.0,0.0,0.0,3.2944,0.0,0.0,0.0,0.0,0.0,0.0,0.0,0.0,0.0,0.0,0.0,0.0,2.7713,2.9711,3.1988,3.4706,3.6385,3.6944,3.6008,3.6412,3.6027,3.4413,3.4324,3.4575,3.5127,3.4806,3.58,3.8011,4.0437,4.3341,4.6554,4.8614,5.0406,5.1959,5.2812,5.0228,4.5011,4.3977,4.2396,4.0349,0.0,0.0,0.0,0.0,0.0,0.0,0.0,0.0,0.0,0.0,0.0,0.0,0.0,0.0,0.0,0.0,0.0,0.0,0.0,0.0,0.0,0.0,0.0,0.0,0.0,0.0,0.0,0.0,0.0,0.0,0.0,0.0,0.0,0.0,0.0,0.0,0.0,2.9165,3.1357,3.0909,3.181,3.1834,0.0,0.0,0.0,0.0,0.0,0.0,3.4023,3.5932,3.799,4.0074,4.0953,4.2108,4.3614,4.502,4.62,4.7205,4.8686,4.9916,5.087,5.087,5.1096,5.1448,5.1046,5.0318,4.9063,4.492,4.1693,3.9102,3.8007,3.6573,3.5294,3.5864,3.6773,3.7669,0.0,0.0,0.0,0.0,0.0,0.0,0.0,0.0,0.0,0.0,0.0,2.6189,2.9332,3.2081,3.4703,3.7236,3.8251,3.882,3.907,3.7467,3.6217,3.5429,3.5454,3.5705,3.6257,3.8095,4.0426,4.336,4.4885,4.8041,5.3007,5.4206,5.6163,5.8602,5.871,5.6751,5.3247,4.7863,4.6181,4.6755,4.19,0.0,0.0,0.0,0.0,0.0,0.0,0.0,0.0,0.0,0.0,0.0,0.0,0.0,0.0,0.0,0.0,0.0,0.0,0.0,0.0,0.0,0.0,0.0,0.0,0.0,0.0,0.0,0.0,0.0,0.0,0.0,0.0,0.0,0.0,0.0,0.0,0.0,0.0,3.1279,3.3658,0.0,0.0,0.0,0.0,3.3575,3.5568,3.7515,3.9193,4.0345,4.1806,4.3489,4.5121,4.6502,4.7606,4.9816,5.1197,5.1774,5.2879,5.3733,5.431,5.431,5.4336,5.4361,5.4336,5.3959,5.303,4.8134,4.5723,4.4928,4.3776,4.2799,4.2182,4.3044,4.2872,4.2327,0.0,0.0,0.0,0.0,0.0,0.0,2.1504,2.166,2.2347,2.4347,2.6012,2.8248,3.155,3.4336,3.7784,4.2276,4.33,4.3891,4.4575,4.2823,4.0857,3.9033,3.7769,3.7515,3.8251,4.1207,4.3899,4.6411,4.961,5.3094,5.6403,5.7705,5.9258,6.1044,6.1463,6.0775,5.8979,5.3911,5.081,4.8913,4.4789,4.2223,0.0,0.0,0.0,0.0,0.0,0.0,0.0,0.0,0.0,0.0,0.0,0.0,0.0,0.0,0.0,0.0,0.0,0.0,0.0,0.0,0.0,0.0,0.0,0.0,0.0,0.0,0.0,0.0,0.0,0.0,0.0,0.0,0.0,0.0,0.0,0.0,0.0,3.6031,3.8341,0.0,0.0,3.8741,3.8841,3.8708,4.0065,4.1656,4.3338,4.4468,4.615,4.8535,4.954,5.072,5.2176,5.298,5.3482,5.3683,5.4084,5.4536,5.5114,5.5465,5.5616,5.5616,5.5616,5.5315,5.4612,5.2503,5.0243,4.7983,4.6527,4.5585,4.5101,4.5635,4.6259,4.6662,0.0,0.0,0.0,0.0,0.0,2.0254,2.1289,2.1699,2.2631,2.4676,2.6771,2.9546,3.3465,3.655,4.0482,4.5989,4.6865,4.7455,4.8365,4.6234,4.401,4.1854,4.0614,4.0447,4.1644,4.4869,4.7824,5.064,5.398,5.6917,5.9488,6.0356,6.1463,6.275,6.3199,6.3408,6.3228,6.0146,5.6406,5.221,4.8643,4.6748,4.5512,0.0,0.0,0.0,0.0,0.0,0.0,0.0,0.0,0.0,0.0,0.0,0.0,0.0,0.0,0.0,0.0,0.0,0.0,0.0,0.0,0.0,0.0,0.0,0.0,0.0,0.0,0.0,0.0,0.0,0.0,0.0,0.0,0.0,0.0,0.0,3.7121,3.922,4.1856,4.3413,4.3037,4.3011,4.3087,4.3288,4.4493,4.5949,4.7631,4.8761,5.0293,5.2327,5.2754,5.3457,5.4561,5.4938,5.5114,5.5114,5.5315,5.5691,5.6244,5.642,5.6495,5.6495,5.6495,5.6168,5.5616,5.4863,5.3256,5.1147,4.9841,4.9138,4.8837,4.9012,4.954,5.0218,0.0,0.0,0.0,0.0,0.0,2.0059,2.0508,2.1309,2.2676,2.4949,2.6941,3.002,3.5027,3.8592,4.2708,4.7978,4.8507,4.9092,5.0298,4.7362,4.4995,4.3693,4.3693,4.4593,4.6512,4.9155,5.244,5.6256,5.7603,5.9578,6.2121,6.2151,6.2839,6.4066,6.4096,6.4844,6.6071,6.6131,6.278,5.7184,5.3803,5.1787,5.0348,0.0,0.0,0.0,0.0,0.0,0.0,0.0,0.0,0.0,0.0,0.0,0.0,0.0,0.0,0.0,0.0,0.0,0.0,0.0,0.0,0.0,0.0,0.0,0.0,0.0,0.0,0.0,0.0,0.0,0.0,0.0,0.0,0.0,3.1673,3.5328,3.877,4.0545,4.4116,4.6024,4.4995,4.5874,4.6753,4.733,4.8862,5.0494,5.2151,5.3206,5.4034,5.4637,5.4637,5.4637,5.4662,5.5717,5.6269,5.6269,5.6796,5.7349,5.7876,5.7323,5.7072,5.7072,5.7047,5.6721,5.6143,5.5064,5.4612,5.4536,5.3909,5.3683,5.3607,5.3105,5.2929,5.2929,0.0,0.0,0.0,0.0,0.0,2.0059,2.0508,2.1309,2.2777,2.5338,2.8132,3.1786,3.6721,4.03,4.4779,5.0905,4.972,4.9876,5.2871,4.8792,4.5787,4.4969,4.5864,4.7702,5.0601,5.3671,5.6244,5.8291,6.0116,6.1613,6.281,6.3258,6.4186,6.5503,6.646,6.7089,6.7478,6.8465,6.7657,6.5263,6.0027,5.693,5.47,0.0,0.0,0.0,0.0,0.0,0.0,0.0,0.0,0.0,0.0,0.0,0.0,0.0,0.0,0.0,0.0,0.0,0.0,0.0,0.0,0.0,0.0,0.0,0.0,0.0,0.0,0.0,0.0,0.0,0.0,0.0,0.0,3.6839,3.6276,3.8985,4.2202,4.5522,4.7883,4.964,5.0544,5.0921,5.1498,5.2452,5.3306,5.4185,5.5039,5.4988,5.5365,5.6319,5.5968,5.6143,5.6972,5.7298,5.7424,5.7424,5.76,5.775,5.7901,5.7725,5.765,5.765,5.7223,5.6947,5.6746,5.6043,5.5516,5.5039,5.3658,5.313,5.313,5.298,5.2929,5.2929,0.0,0.0,0.0,0.0,0.0,1.9863,2.0469,2.1309,2.2757,2.5227,2.8718,3.2676,3.7192,4.0852,4.5219,5.0685,4.9637,4.9916,5.277,4.9828,4.7882,4.7444,4.9213,5.1542,5.4244,5.6988,5.9129,6.0775,6.248,6.3647,6.4306,6.4964,6.5981,6.7298,6.8076,6.8854,6.9662,7.044,7.0739,7.029,6.6251,6.3438,6.1134,5.5736,5.373,5.3099,4.9136,4.7501,4.6679,4.3976,0.0,0.0,0.0,0.0,0.0,0.0,0.0,0.0,0.0,0.0,0.0,0.0,0.0,0.0,0.0,0.0,0.0,0.0,0.0,0.0,0.0,0.0,0.0,0.0,3.8592,4.0701,4.1982,4.3539,4.5648,4.8611,5.0444,5.2026,5.3482,5.3833,5.431,5.5189,5.5767,5.6219,5.6545,5.6495,5.6846,5.7725,5.7198,5.7349,5.8227,5.8252,5.8252,5.8252,5.8252,5.8353,5.8554,5.8353,5.8127,0.0,5.7549,5.7123,5.6646,5.6093,5.5666,0.0,0.0,0.0,0.0,0.0,5.2929,5.2929,0.0,0.0,0.0,1.9023,1.9219,1.9551,2.0312,2.1211,2.2595,2.4781,2.8695,3.2769,3.6518,4.0375,4.4358,4.8352,4.8431,4.9033,5.0882,5.0508,5.0451,5.09,5.3384,5.5688,5.7603,5.9697,6.1672,6.3528,6.4755,6.5742,6.646,6.7059,6.8046,6.9333,6.9423,7.047,7.2235,7.2295,7.2744,7.3253,7.2056,7.0201,6.7717,6.3348,6.1942,6.1882,5.859,5.5338,5.2282,5.0086,0.0,0.0,0.0,0.0,0.0,0.0,0.0,0.0,0.0,0.0,0.0,0.0,0.0,0.0,0.0,0.0,0.0,0.0,0.0,0.0,0.0,0.0,0.0,0.0,4.143,4.4267,4.7883,4.8535,4.9163,5.0544,5.2126,5.3557,5.4637,5.5315,5.5917,5.6545,5.7097,5.7424,5.7499,0.0,0.0,0.0,0.0,5.8428,5.9006,5.893,5.8905,5.8905,5.883,5.9056,5.9483,5.8956,5.8453,5.8001,5.7926,5.7298,5.6269,5.5767,5.5491,5.534,5.4787,5.4185,5.3557,5.3155,5.298,0.0,0.0,0.0,0.0,1.8281,1.8828,1.9355,1.9512,2.0566,2.2129,2.4171,2.8173,3.1879,3.4828,3.8668,4.269,4.6967,4.5902,4.6332,4.9357,4.9981,5.1678,5.488,5.7034,5.9099,6.1074,6.3588,6.5323,6.6221,6.7029,6.8016,6.9153,6.9303,7.0051,7.1338,7.1906,7.2954,7.433,7.4899,7.5497,7.6036,7.5796,7.3223,6.9273,6.6221,6.4455,6.3258,6.0505,5.9409,5.8773,5.5708,5.3833,5.2087,4.8105,4.4854,0.0,0.0,0.0,0.0,0.0,0.0,0.0,0.0,0.0,0.0,0.0,0.0,0.0,0.0,0.0,0.0,0.0,0.0,0.0,4.2384,4.5824,4.8887,5.0996,5.2427,5.308,5.2503,5.3507,5.4687,5.5792,5.6821,5.7826,5.878,5.9382,5.9885,6.0362,6.0035,0.0,6.0688,6.0161,6.0136,6.0688,6.0236,6.001,6.001,0.0,0.0,5.9483,5.8956,5.8654,5.8529,5.8102,5.7499,5.6872,5.6771,5.6194,5.534,5.4787,5.3959,5.3105,5.3432,5.3281,5.2929,0.0,0.0,0.0,1.832,1.8672,1.9102,1.9531,2.0332,2.1805,2.4425,2.7454,3.0687,3.3906,3.6533,3.9369,4.2774,4.3596,4.5272,4.8653,5.0626,5.3623,5.7932,6.0027,6.2032,6.4006,6.6311,6.7657,6.7986,6.9303,7.026,7.0919,7.1248,7.2116,7.3402,7.3732,7.4629,7.5886,7.6215,7.6724,7.7322,7.7322,7.6155,7.4091,7.1457,6.9632,6.8196,6.6221,6.4874,6.3647,6.0984,5.9071,5.7094,5.3195,5.0028,4.7088,0.0,0.0,0.0,0.0,0.0,0.0,0.0,0.0,0.0,0.0,0.0,0.0,0.0,0.0,3.7538,3.8642,0.0,4.3413,4.5874,4.8636,5.1122,5.3055,5.4285,5.4762,5.4235,5.4888,5.5942,5.7323,5.8202,5.9156,6.0261,6.0588,6.0889,6.1165,6.0914,6.1014,6.1567,6.104,6.1014,6.1592,6.104,6.0738,6.0738,6.0186,5.991,5.9885,5.9357,5.8956,5.8704,5.8428,5.8001,5.7449,5.7148,5.6394,5.539,5.539,5.4536,5.3356,5.3607,5.3381,5.2929,0.0,0.0,0.0,1.8457,1.8446,1.8769,1.9551,2.0098,2.1517,2.4413,2.6685,2.9425,3.2771,3.4274,3.5938,3.8004,4.1211,4.4681,4.8258,5.1758,5.5781,6.0655,6.3019,6.4964,6.655,6.8555,6.9632,6.9752,7.1577,7.2535,7.2684,7.3343,7.424,7.5258,7.5377,7.6096,7.7233,7.7352,7.7801,7.84,7.8519,7.8819,7.8938,7.6694,7.4929,7.3492,7.2026,6.9542,6.6729,6.5114,6.2839,6.0176,5.7423,5.5042,5.2559,4.8391,4.4808,0.0,0.0,0.0,0.0,0.0,0.0,0.0,0.0,0.0,3.7921,4.0213,4.0967,4.1737,4.3212,4.5077,4.7129,4.9238,5.1071,5.2904,5.4787,5.5516,5.5917,5.6018,5.642,5.7273,5.873,5.9558,6.0362,6.1266,6.1441,6.1492,6.1492,6.1492,6.1718,6.2144,6.1743,6.1718,6.2169,6.1617,6.1341,6.1341,6.0763,6.0487,6.0462,5.991,5.9433,5.9031,5.8805,5.8453,5.8001,5.7323,5.652,5.5742,5.6068,5.5315,5.4034,5.4034,5.3632,5.308,0.0,0.0,0.0,0.0,0.0,1.8242,1.8711,1.9473,2.0751,2.2889,2.5758,2.8267,3.0019,3.2114,3.3884,3.5082,3.883,4.3226,4.8387,5.2627,5.7563,6.3348,6.664,6.8435,6.8675,7.056,7.1876,7.2475,7.3851,7.4839,7.5467,7.6096,7.6455,7.6634,7.7233,7.7891,7.8609,7.9208,7.9866,8.0524,8.1093,8.1033,8.0494,7.9597,7.8071,7.6155,7.424,7.0739,6.6969,6.6729,6.4904,6.257,6.1613,6.0693,5.8991,5.3914,4.9319,4.5283,4.2155,3.9039,0.0,3.7337,3.7538,3.8383,0.0,0.0,4.4291,4.6439,4.6998,4.7271,4.7986,4.9071,5.0444,5.2176,5.426,5.5917,5.6646,5.7248,5.7801,5.8278,5.8378,5.8654,5.9332,6.0814,6.1768,6.1893,6.237,6.2647,6.2647,6.2647,6.2672,6.2747,6.2672,6.2672,6.2747,6.2195,6.1918,6.1893,6.1341,6.109,6.1065,6.0487,6.0186,6.0085,5.9131,5.8679,5.8554,5.7474,5.6972,5.6796,5.6369,5.5792,5.5189,5.5189,5.4536,5.3607,0.0,0.0,0.0,0.0,0.0,1.8144,1.8574,1.916,2.0447,2.3,2.4686,2.6697,2.9471,3.116,3.229,3.2742,3.6207,4.0816,4.6424,5.1392,5.7236,6.4018,6.7308,6.9542,7.0649,7.2235,7.3193,7.3492,7.4839,7.5617,7.5916,7.6544,7.7233,7.7981,7.825,7.8968,8.0016,8.0674,8.1332,8.1991,8.2649,8.2978,8.2888,8.1063,7.8669,7.5976,7.3582,7.026,0.0,6.6101,6.4605,6.3019,6.275,6.1672,5.9767,5.6123,5.1004,4.5293,4.0043,0.0,0.0,0.0,4.0984,4.3012,4.7448,4.8514,4.9519,5.2522,5.2553,5.2315,5.3562,5.3829,5.4135,0.0,5.6093,5.6997,5.7876,5.7951,5.7976,5.8202,5.8504,5.9156,6.0362,6.1115,6.1793,6.2446,6.2697,6.2822,6.2822,6.2822,6.2822,6.2822,6.2822,6.2822,6.2822,6.2596,6.2496,6.2471,6.1918,6.1667,6.1642,6.109,6.0814,6.0788,5.9985,5.9458,5.9106,5.8328,5.7826,5.7474,5.6922,5.6545,5.6269,5.5616,5.4662,5.3708,0.0,0.0,0.0,0.0,0.0,1.8105,1.8418,1.8828,2.001,2.26,2.3364,2.5082,2.879,2.9836,3.0357,3.0481,3.3527,3.7742,4.3303,4.8931,5.5478,6.3236,6.7,6.9933,7.2146,7.3672,7.445,7.445,7.5766,7.6514,7.6724,7.7352,7.834,7.9627,7.9806,8.0524,8.1661,8.232,8.2769,8.3098,8.3756,8.3846,8.3337,8.0704,7.7442,7.3971,7.1637,6.8226,6.4605,6.3288,6.1972,6.0954,6.1313,6.0565,5.9009,5.6406,5.122,4.5302,4.0439,0.0,0.0,4.3652,4.5614,4.8373,5.3116,5.4357,5.531,5.8696,5.7908,5.7061,5.8349,5.741,0.0,5.7374,5.7625,5.8052,5.9031,5.8554,5.8001,5.77,5.775,5.8328,5.9684,6.0638,6.1567,6.2521,6.2747,6.2822,6.2822,6.2822,6.2822,6.2822,6.2822,6.2822,6.2822,6.2822,6.2822,6.2822,6.2421,6.2245,6.222,6.1667,6.1316,6.114,6.0563,6.0085,5.9659,5.9006,5.8403,5.7851,5.7273,5.6947,5.6721,5.5917,5.4988,5.416,0.0,0.0,0.0,0.0,0.0,1.8008,1.8027,1.8379,1.9163,2.0673,2.1733,2.3655,2.718,2.7627,2.7765,2.8187,3.0713,3.4223,3.8774,4.5023,5.2315,6.0903,6.5824,6.9805,7.2834,7.4839,7.5856,7.5856,7.7113,7.8071,7.8729,7.9417,8.0434,8.1721,8.235,8.3008,8.3696,8.4354,8.4265,8.3756,8.4414,8.3158,8.0644,7.7951,7.4121,6.9991,6.8585,6.4336,5.9129,5.7782,5.6496,5.5658,5.6885,5.7693,5.7663,5.5029,5.0522,4.6346,4.611,0.0,4.7096,5.0314,5.21,5.4036,5.8119,6.038,6.2487,6.5141,6.3421,6.1351,6.1406,5.9068,5.7374,5.8478,5.9081,5.9608,6.0186,5.9332,5.8252,5.7198,5.6118,5.5717,0.0,5.9282,6.1416,6.1994,6.2521,6.2822,6.2822,6.2822,6.2822,6.2822,6.2822,6.2822,6.2822,6.2822,6.2822,6.2822,6.2822,6.2797,6.2797,6.2245,6.1692,6.114,6.0563,6.0311,6.0211,5.9156,5.8403,5.7851,5.7273,5.6696,5.6244,5.6194,5.5817,5.5265,0.0,0.0,0.0,0.0,0.0,0.0,1.7969,1.8359,1.9123,2.0631,2.2388,0.0,0.0,0.0,0.0,0.0,2.9446,3.2054,3.5322,4.1158,4.7344,5.4165,6.0708,6.5763,6.9428,7.1986,7.3881,7.5228,7.6514,7.7263,7.7532,7.9088,8.0285,8.1153,8.1811,8.2469,8.3098,8.3337,8.3307,8.3038,8.238,8.1601,8.0434,7.6874,7.2116,6.6879,0.0,5.9398,5.5658,5.4311,5.3264,5.2785,5.4102,5.4371,5.3456,5.0015,4.9039,4.8833,4.8032,0.0,5.263,5.6939,5.8807,6.0894,6.5365,6.6826,6.7545,6.8429,6.503,6.1619,6.1204,5.8052,5.5993,5.7876,5.8629,5.9433,6.0713,6.0236,5.8805,5.6244,5.6269,0.0,0.0,0.0,0.0,6.0763,6.1416,6.2044,6.2797,6.2822,6.2822,6.2822,6.2822,6.2822,6.2822,6.2822,6.2822,6.2822,6.2822,6.2822,6.2822,6.2647,6.2446,6.222,6.1291,6.0889,6.0814,5.9684,5.9131,5.8855,5.7951,5.7499,5.7248,5.6495,5.6093,5.5792,0.0,0.0,0.0,0.0,0.0,0.0,0.0,0.0,0.0,0.0,0.0,0.0,0.0,0.0,0.0,0.0,0.0,3.0398,3.2592,3.7262,4.2449,4.8047,5.3967,5.9285,6.364,6.6125,6.8683,7.1368,7.2684,7.3791,7.4749,7.6514,7.8071,7.9417,8.0075,8.1003,8.205,8.1811,8.1302,8.0464,7.843,7.6904,7.5377,7.0919,6.5981,0.0,5.7004,5.3623,5.096,5.0571,5.0002,4.9673,5.075,5.078,5.0117,4.8546,4.9618,5.1595,5.278,5.5329,5.8696,6.2934,6.497,6.6656,6.9982,7.0649,7.047,6.9782,6.5246,6.0969,5.9589,5.5551,5.3281,5.5717,5.642,5.7575,6.0211,5.9583,5.8127,5.6219,5.6244,0.0,0.0,0.0,0.0,5.9834,6.0738,6.1667,6.2772,6.2822,6.2923,6.3124,6.2923,6.2923,6.3124,6.2923,6.2822,6.2822,6.2822,6.2822,6.2822,6.2822,6.2822,6.2772,6.1868,6.1366,6.1115,6.0186,5.9458,5.8855,5.8177,5.765,5.7198,5.647,5.6219,5.6068,0.0,0.0,0.0,0.0,0.0,0.0,0.0,0.0,0.0,0.0,0.0,0.0,0.0,0.0,0.0,0.0,0.0,0.0,3.0396,3.3523,3.7544,4.2726,4.6302,5.0657,5.5852,5.7939,6.0793,6.4546,6.5981,6.7926,7.044,7.1787,7.3762,7.6185,7.6874,7.822,7.9956,7.9297,7.7921,7.5886,7.2624,6.9453,6.6071,6.0954,5.6526,5.2755,5.0212,4.7608,4.5544,4.683,4.689,4.6531,4.713,4.7399,4.8027,5.0661,5.2456,5.473,5.9997,6.2869,6.5203,6.8465,7.0201,7.1248,7.1816,7.1876,7.1248,6.9183,6.4034,5.9233,0.0,0.0,4.9565,5.2377,5.3005,5.4662,5.9006,5.7851,5.6696,0.0,0.0,0.0,0.0,0.0,0.0,5.9486,0.0,6.1592,6.2797,6.2873,6.3149,6.3701,6.3199,6.3174,6.3676,6.3124,6.2822,6.2822,6.2822,6.2822,6.2822,6.2822,6.2822,6.2797,6.2245,6.1718,6.119,6.0563,5.9408,5.8001,5.7926,5.7248,5.6294,5.6244,5.6219,5.6068,0.0,0.0,0.0,0.0,0.0,0.0,0.0,0.0,0.0,0.0,0.0,0.0,0.0,0.0,0.0,0.0,0.0,0.0,2.8712,3.1023,3.3572,3.6211,4.1161,4.5348,4.8562,5.2844,5.6238,5.8679,6.0827,6.245,6.3647,6.4964,6.6191,6.7298,6.7986,6.8585,6.9004,6.8315,6.7747,6.7059,6.4784,6.3049,6.1523,5.868,5.5149,5.1558,5.0421,4.8297,4.6112,0.0,0.0,0.0,0.0,4.8656,5.075,5.3414,5.6526,6.0027,6.4336,6.7627,7.044,7.2804,7.3612,7.3642,7.2834,7.1876,7.0051,6.6101,6.0262,5.4641,0.0,0.0,0.0,5.1172,5.411,0.0,6.0864,6.124,0.0,0.0,0.0,6.1084,5.8953,6.0027,0.0,0.0,6.0508,6.0563,6.3324,6.3475,6.3726,6.4254,6.4128,6.3927,6.3701,6.3124,6.2822,6.2822,6.2822,6.2822,6.2822,6.2822,6.2822,6.2797,6.2245,6.1918,6.1718,6.0713,6.0085,5.9583,5.8378,5.7725,5.7374,5.652,5.6219,5.6068,0.0,0.0,0.0,0.0,0.0,0.0,0.0,0.0,0.0,0.0,0.0,0.0,0.0,0.0,0.0,0.0,0.0,0.0,0.0,2.9992,3.1255,3.2441,3.5683,3.8741,4.1474,4.4525,4.7786,5.1001,5.263,5.4462,5.6444,5.7853,5.9169,6.0595,6.1553,6.2331,6.281,6.2121,6.1523,0.0,0.0,5.5753,5.5089,5.2269,4.9961,4.8059,4.72,4.6137,4.5282,0.0,0.0,4.8865,4.9643,5.1678,5.4491,5.8022,0.0,6.4545,6.8525,7.1577,7.3971,7.5377,7.5527,7.451,7.1457,6.9931,6.7388,6.1014,5.5278,0.0,0.0,0.0,0.0,0.0,0.0,0.0,6.0663,6.2287,6.2764,0.0,6.4565,0.0,6.384,6.3834,6.4168,0.0,6.1967,6.119,6.3576,6.3902,6.4279,6.4806,6.458,6.4228,6.3701,6.3124,6.2822,6.2822,6.2822,6.2822,6.2822,6.2822,6.2822,6.2822,0.0,6.222,6.1943,6.1065,6.0412,5.9809,5.8428,5.775,5.7424,5.6545,5.6219,5.6068,0.0,0.0,0.0,0.0,0.0,0.0,0.0,0.0,0.0,0.0,1.9733,2.1102,0.0,0.0,0.0,0.0,0.0,0.0,0.0,0.0,3.0005,3.0482,3.1009,3.2516,3.5046,3.5876,3.8438,4.2814,4.3491,4.5638,4.9029,5.0154,5.1975,5.4209,5.5426,5.6585,5.7624,5.706,5.6139,5.4671,5.0231,4.8384,4.7792,0.0,4.3425,4.3596,4.2678,4.2768,0.0,0.0,4.9134,5.0391,5.3025,5.5748,5.889,6.3468,6.6131,6.8495,7.2475,7.4899,7.6425,7.6963,7.6425,7.439,6.9064,6.6727,6.3354,5.5155,0.0,4.5761,4.2574,4.1156,4.1756,4.5849,0.0,5.4285,5.996,6.2406,6.416,6.6053,6.8099,6.942,6.9104,6.7186,6.6441,6.7216,6.4306,6.2873,6.3852,6.4329,6.4831,6.5383,6.4806,6.4254,6.3802,6.3149,6.2822,6.2822,6.2822,6.2822,6.2822,6.2822,6.2822,6.2822,0.0,0.0,6.2069,6.1441,6.0613,5.9608,5.8453,5.77,5.7173,5.6545,5.6319,5.6143,0.0,0.0,0.0,0.0,0.0,0.0,0.0,0.0,0.0,0.0,2.0323,2.0989,0.0,0.0,0.0,0.0,0.0,0.0,0.0,0.0,0.0,2.993,3.0457,3.0964,3.1483,3.3404,3.5112,3.6373,0.0,3.9564,4.1163,4.1864,4.2683,4.3687,4.4329,4.4781,4.4978,4.4865,4.4696,4.4321,4.349,4.2817,4.2205,4.1518,0.0,0.0,4.1016,0.0,4.2709,4.7643,5.1061,5.3803,5.6436,5.9817,6.3617,6.7747,6.9931,7.1906,7.5886,7.7622,7.831,7.843,7.6754,7.3672,6.8375,6.3031,0.0,0.0,4.5352,4.083,3.8175,3.8859,4.1555,4.6778,0.0,0.0,0.0,0.0,6.4606,0.0,0.0,0.0,0.0,0.0,0.0,0.0,0.0,0.0,6.5007,6.5107,6.5409,6.5961,6.4982,6.4429,6.4329,6.3324,6.2822,6.2822,6.2822,6.2822,6.2822,6.2822,6.2822,6.2822,0.0,0.0,6.2596,6.1592,6.1065,6.0738,5.9182,5.8529,5.8303,5.7273,5.6897,5.6671,0.0,0.0,0.0,0.0,0.0,0.0,0.0,1.9151,2.0941,2.2078,2.3279,2.4137,2.4372,2.5265,2.6346,0.0,0.0,0.0,0.0,0.0,0.0,0.0,0.0,0.0,0.0,0.0,0.0,0.0,0.0,0.0,0.0,0.0,0.0,0.0,4.0614,4.0969,4.1273,4.1273,4.1273,4.1245,4.0223,4.0014,4.0211,0.0,0.0,0.0,0.0,0.0,0.0,4.6985,5.1099,5.4613,5.921,6.3169,6.6789,7.044,7.2684,7.4689,7.7981,7.9597,8.0255,7.9926,7.7352,7.2954,6.5622,0.0,0.0,0.0,4.1063,3.7856,3.5982,3.7381,0.0,0.0,0.0,0.0,0.0,0.0,0.0,0.0,0.0,0.0,0.0,0.0,0.0,0.0,0.0,0.0,6.5308,6.5283,6.5409,6.5685,6.463,6.4053,6.4053,6.3249,6.2822,6.2822,6.2822,6.2822,6.2822,6.2822,6.2822,6.2822,6.2822,0.0,6.2747,6.1642,6.119,6.1014,5.9357,5.873,5.8629,5.7801,5.7298,5.6846,0.0,0.0,0.0,0.0,0.0,0.0,1.8008,2.0191,2.2346,2.3996,2.6665,2.7815,2.6336,2.6788,2.7193,0.0,0.0,0.0,0.0,0.0,0.0,0.0,0.0,0.0,0.0,0.0,0.0,0.0,0.0,0.0,0.0,0.0,0.0,0.0,0.0,0.0,0.0,3.9644,3.9726,0.0,0.0,0.0,0.0,0.0,0.0,0.0,0.0,0.0,0.0,0.0,4.9449,5.3186,5.8667,6.3921,6.8525,7.1278,7.3791,7.6305,7.9058,8.0674,8.1452,8.0943,7.7382,7.1787,6.3258,5.6681,0.0,0.0,3.7841,3.5817,3.4585,3.5993,3.804,0.0,0.0,0.0,0.0,0.0,0.0,0.0,0.0,0.0,0.0,0.0,0.0,0.0,0.0,0.0,0.0,6.5459,6.5409,6.5283,6.4354,6.3802,6.3701,6.3124,6.2822,6.2822,6.2822,6.2822,6.2822,6.2822,6.2822,6.2822,6.2822,0.0,0.0,6.1768,6.1291,6.104,5.9608,5.8981,5.883,5.8278,5.77,5.7047,0.0,0.0,0.0,0.0,0.0,0.0,1.8457,2.1825,2.4861,2.6313,2.9181,3.0653,2.9526,2.9478,2.89,0.0,0.0,0.0,0.0,0.0,0.0,0.0,0.0,0.0,0.0,0.0,0.0,0.0,0.0,0.0,0.0,0.0,0.0,0.0,0.0,0.0,0.0,0.0,0.0,0.0,0.0,0.0,0.0,0.0,0.0,0.0,0.0,0.0,0.0,0.0,0.0,4.8673,5.11,5.9247,6.8166,6.9093,0.0,0.0,7.8938,8.0345,8.0883,8.0823,7.6006,6.9632,6.3408,0.0,0.0,4.0519,3.6904,3.4559,3.3411,3.4237,3.6383,0.0,4.2811,4.6878,0.0,0.0,0.0,0.0,0.0,0.0,0.0,0.0,0.0,0.0,0.0,0.0,0.0,6.6036,6.581,6.5308,6.4705,6.4178,6.3701,6.3124,6.2822,6.2822,6.2822,6.2822,6.2822,6.2822,6.2822,6.2822,0.0,0.0,0.0,6.2169,6.1642,6.1115,6.0437,5.9859,5.9357,5.883,5.8303,5.76,0.0,0.0,0.0,0.0,0.0,0.0,1.8867,2.1675,2.4596,2.6903,2.9904,3.1712,3.1286,3.0959,2.9679,2.7017,2.7293,0.0,0.0,0.0,0.0,0.0,0.0,0.0,0.0,0.0,0.0,0.0,0.0,0.0,0.0,0.0,0.0,0.0,0.0,0.0,0.0,0.0,0.0,0.0,0.0,0.0,0.0,0.0,0.0,0.0,0.0,0.0,0.0,0.0,0.0,0.0,4.4143,4.9978,0.0,0.0,6.8288,7.2595,7.828,8.0883,8.1781,8.1003,7.5527,6.8645,6.2331,0.0,4.4231,3.9563,3.6049,3.3641,3.3154,3.3445,3.4525,3.696,3.7638,4.0174,0.0,0.0,0.0,0.0,0.0,0.0,0.0,0.0,0.0,0.0,0.0,0.0,0.0,6.6441,6.5358,6.4806,6.4279,6.3726,6.3174,6.2948,6.2822,6.2822,6.2822,6.2822,6.2822,6.2822,6.2822,6.2822,0.0,0.0,0.0,6.1868,6.1391,6.109,6.0186,5.9684,5.9458,5.9257,5.8654,5.775,0.0,0.0,0.0,0.0,0.0,1.7969,1.9121,2.15,2.4108,2.6971,2.9954,3.1878,3.2215,3.1587,3.0156,2.767,2.7344,0.0,0.0,0.0,0.0,0.0,0.0,0.0,0.0,0.0,2.998,3.0357,2.998,0.0,0.0,0.0,0.0,0.0,0.0,0.0,0.0,0.0,0.0,0.0,0.0,0.0,0.0,0.0,0.0,0.0,0.0,0.0,0.0,0.0,0.0,0.0,0.0,0.0,0.0,0.0,6.3204,6.8742,7.512,7.8908,8.0823,8.0105,7.4151,6.6939,0.0,5.1625,4.2801,3.8755,3.5588,3.3471,3.3154,3.3068,3.3395,3.4324,3.4299,3.6006,4.1404,0.0,0.0,0.0,0.0,0.0,0.0,0.0,0.0,0.0,0.0,0.0,0.0,6.6847,6.5208,6.4479,6.4103,6.3576,6.2847,6.2822,6.2822,6.2822,6.2822,6.2822,6.2822,6.2822,6.2822,6.2822,0.0,0.0,0.0,6.1743,6.124,6.0839,6.0035,5.9633,5.9483,5.9332,5.8679,5.7775,0.0,0.0,0.0,0.0,0.0,1.8301,1.916,2.1528,2.4059,2.6481,2.915,3.1174,3.2131,3.126,3.0382,2.9804,2.8247,0.0,0.0,0.0,0.0,0.0,0.0,0.0,0.0,0.0,2.9804,2.9804,2.9804,2.9804,2.9829,0.0,0.0,0.0,0.0,0.0,0.0,0.0,0.0,0.0,0.0,0.0,0.0,0.0,0.0,0.0,0.0,0.0,0.0,0.0,0.0,0.0,0.0,3.5996,3.9984,0.0,5.6741,6.4341,6.8899,7.3402,7.7053,7.7682,7.1398,6.4036,0.0,5.112,4.251,3.8114,3.5872,3.4345,3.3326,3.3068,3.3269,3.3822,3.4349,3.6458,4.1455,0.0,0.0,0.0,0.0,0.0,0.0,0.0,0.0,0.0,0.0,0.0,0.0,0.0,6.5609,6.4505,6.4454,6.3927,6.2847,6.2822,6.2822,6.2822,6.2822,6.2822,6.2822,6.2822,6.2822,0.0,0.0,0.0,0.0,6.1994,6.1341,6.0337,6.0311,5.9985,5.9433,5.8905,5.8378,5.765,0.0,0.0,0.0,0.0,0.0,0.0,1.875,2.0093,2.2215,2.5396,2.7152,2.8986,3.1405,3.0331,2.9553,2.9779,2.8599,0.0,0.0,0.0,0.0,0.0,0.0,0.0,0.0,2.9804,2.998,3.0357,3.0357,3.0357,3.0357,3.0532,3.0608,0.0,0.0,0.0,0.0,0.0,0.0,0.0,0.0,0.0,0.0,0.0,0.0,0.0,0.0,0.0,0.0,0.0,0.0,0.0,0.0,0.0,0.0,3.8792,4.6238,5.4619,6.0472,6.4117,6.6184,6.6306,6.2331,5.7393,5.3862,4.7462,4.1392,3.7919,3.5872,3.4345,3.3326,3.3068,3.3646,3.5353,3.5755,3.6659,3.8994,0.0,0.0,0.0,0.0,0.0,0.0,0.0,0.0,0.0,0.0,0.0,0.0,0.0,6.7377,6.5057,6.4655,6.4128,6.3425,6.3023,6.2822,6.2822,6.2822,6.2822,6.2822,6.2822,0.0,0.0,0.0,0.0,0.0,6.1592,6.0989,6.0286,5.991,5.9659,5.9433,5.8905,5.8127,5.7173,0.0,0.0,0.0,0.0,0.0,0.0,1.8359,1.9003,2.0568,2.3364,2.434,2.599,2.9124,2.8106,2.7669,2.8615,2.8218,0.0,0.0,0.0,0.0,0.0,0.0,0.0,2.9804,2.9804,3.0156,3.0909,3.111,3.121,3.121,3.1436,3.121,3.0608,3.0608,0.0,0.0,0.0,0.0,0.0,0.0,0.0,3.1913,0.0,0.0,0.0,0.0,0.0,0.0,0.0,0.0,0.0,0.0,0.0,0.0,0.0,3.8496,4.4727,0.0,5.5954,5.8147,5.8307,5.5301,5.1473,4.8887,4.3916,3.9173,3.6743,3.508,3.3869,3.324,3.3068,3.3545,3.4926,3.5303,3.6031,3.7764,0.0,0.0,0.0,0.0,0.0,0.0,0.0,0.0,0.0,0.0,0.0,0.0,0.0,6.7286,6.5308,6.4756,6.4228,6.3701,6.3124,6.2822,6.2822,6.2822,6.2822,6.2822,6.2822,0.0,0.0,0.0,0.0,0.0,6.109,6.0412,5.9684,5.9332,5.9081,5.8805,5.8052,5.7323,5.657,0.0,0.0,0.0,0.0,0.0,0.0,0.0,1.834,1.9083,2.0639,2.1225,2.2604,2.5564,2.4929,2.4952,2.6381,2.6925,0.0,0.0,0.0,0.0,0.0,0.0,0.0,2.9804,2.9804,3.0306,3.1336,3.1913,3.224,3.2432,3.2953,3.2349,3.0867,3.0683,3.0633,0.0,0.0,0.0,0.0,0.0,3.1813,0.0,0.0,0.0,0.0,0.0,0.0,0.0,0.0,0.0,0.0,0.0,0.0,0.0,0.0,0.0,0.0,0.0,4.8517,5.2085,5.2675,4.9578,4.6111,4.4836,4.0466,0.0,0.0,0.0,0.0,3.3119,3.3093,3.3119,3.3294,3.3771,3.5077,3.7739,0.0,0.0,0.0,0.0,0.0,0.0,0.0,0.0,0.0,0.0,0.0,0.0,0.0,0.0,6.5308,6.4756,6.4228,6.3701,6.3124,6.2822,6.2822,6.2822,6.2822,6.2822,6.2822,0.0,0.0,0.0,0.0,0.0,6.038,5.9348,5.822,5.822,5.7872,5.7224,5.63,5.5997,5.5697,0.0,0.0,0.0,0.0,0.0,0.0,0.0,0.0,0.0,0.0,2.0392,2.1172,2.2973,2.2908,2.2996,0.0,0.0,0.0,0.0,0.0,0.0,0.0,0.0,0.0,2.9804,2.9804,3.0131,3.0809,3.1763,3.2893,3.4301,3.3938,3.359,3.3198,3.1847,3.0758,0.0,0.0,0.0,0.0,3.1361,3.126,0.0,0.0,0.0,0.0,3.003,2.998,0.0,0.0,0.0,0.0,0.0,0.0,0.0,0.0,3.1562,3.2483,3.4805,0.0,4.1028,4.123,4.0793,4.0034,0.0,0.0,0.0,0.0,0.0,0.0,0.0,3.337,3.3621,3.5328,3.6056,3.7086,3.9019,0.0,0.0,0.0,0.0,0.0,0.0,0.0,0.0,0.0,0.0,0.0,0.0,0.0,0.0,6.5308,6.4756,6.4228,6.3701,6.3124,6.2822,6.2822,6.2822,6.2822,6.2822,6.2822,0.0,0.0,0.0,0.0,5.7976,5.7855,5.6197,5.3841,5.3841,5.3287,5.2697,5.3489,5.3345,5.2841,0.0,0.0,0.0,0.0,0.0,0.0,0.0,0.0,0.0,0.0,1.9145,1.9514,2.0434,2.0546,2.0843,0.0,0.0,0.0,0.0,0.0,0.0,0.0,0.0,2.9528,2.9779,2.9804,3.0181,3.0959,3.2064,3.3546,3.5239,3.5081,3.4673,3.3967,3.1647,3.0331,2.9854,3.0683,3.0733,3.0281,3.0809,0.0,0.0,0.0,0.0,0.0,2.9804,2.9804,0.0,2.9804,2.9955,3.0131,0.0,0.0,0.0,0.0,3.0984,3.1411,3.1461,3.3377,3.534,3.5451,3.5615,3.5748,3.5372,0.0,0.0,0.0,0.0,0.0,0.0,0.0,0.0,3.5328,3.6282,0.0,0.0,0.0,0.0,0.0,0.0,0.0,0.0,0.0,0.0,0.0,0.0,0.0,0.0,0.0,0.0,6.4931,6.463,6.4228,6.3701,6.3124,6.2822,6.2822,6.2822,6.2822,6.2822,6.2571,0.0,0.0,0.0,0.0,5.6929,5.6613,5.4647,5.1846,5.1622,5.1086,5.0297,5.0871,5.0503,4.9909,0.0,0.0,0.0,0.0,0.0,0.0,0.0,0.0,0.0,0.0,0.0,0.0,0.0,0.0,0.0,0.0,0.0,0.0,0.0,0.0,0.0,0.0,2.8675,2.9076,2.9654,2.9654,3.0156,3.116,3.2516,3.4221,3.6075,3.6611,3.5891,3.4152,3.1391,3.003,2.9829,3.0281,3.0231,2.9829,3.0306,0.0,0.0,0.0,0.0,0.0,0.0,0.0,0.0,2.9804,3.0105,3.0407,2.993,0.0,0.0,0.0,0.0,0.0,3.106,3.2139,3.3244,3.2893,3.2943,3.3068,3.3068,0.0,0.0,0.0,0.0,0.0,0.0,0.0,0.0,0.0,0.0,0.0,0.0,0.0,0.0,0.0,0.0,0.0,0.0,0.0,0.0,0.0,0.0,0.0,0.0,0.0,0.0,6.4505,6.4379,6.4103,6.3576,6.3073,6.2797,6.2697,6.2697,6.2647,6.2571,6.2094,0.0,0.0,0.0,0.0,5.6159,5.5375,5.3174,5.0213,4.9729,4.896,4.8212,4.7945,4.7653,4.7314,0.0,0.0,0.0,0.0,0.0,0.0,0.0,0.0,0.0,0.0,0.0,0.0,0.0,0.0,0.0,0.0,0.0,0.0,0.0,0.0,0.0,2.614,2.7508,2.8499,2.9051,2.9051,2.9377,3.003,3.2541,3.5193,3.8034,3.8953,3.7934,3.5455,3.2925,3.1085,2.9804,2.988,2.988,2.9804,0.0,0.0,0.0,0.0,0.0,0.0,0.0,0.0,0.0,2.9804,2.9854,2.9905,2.9829,0.0,0.0,0.0,0.0,0.0,3.2466,3.3571,3.4022,3.2114,3.2365,3.3068,0.0,0.0,0.0,0.0,0.0,0.0,0.0,0.0,0.0,0.0,0.0,0.0,0.0,0.0,0.0,0.0,0.0,0.0,0.0,0.0,0.0,0.0,0.0,0.0,0.0,0.0,0.0,0.0,6.4028,6.3525,6.2973,6.2873,6.2596,6.2119,6.2119,6.1893,6.1441,6.1341,6.104,0.0,0.0,5.7484,5.3034,5.2422,4.9254,4.4798,4.4379,4.368,4.3195,4.4761,4.5036,4.4934,0.0,0.0,0.0,0.0,0.0,0.0,0.0,0.0,0.0,0.0,0.0,0.0,0.0,0.0,0.0,0.0,0.0,0.0,0.0,0.0,2.2527,2.4872,2.6212,2.7508,2.8825,2.9528,3.0256,3.111,3.4298,3.7243,3.9842,3.9895,3.8615,3.6089,3.3014,3.0982,2.9804,2.9804,2.9804,2.9804,0.0,0.0,0.0,0.0,0.0,0.0,0.0,0.0,0.0,0.0,2.9804,2.9804,2.9804,0.0,0.0,0.0,0.0,0.0,3.1612,3.2541,3.3269,3.2842,3.3596,3.4173,0.0,0.0,0.0,0.0,0.0,0.0,0.0,0.0,0.0,0.0,0.0,0.0,0.0,0.0,0.0,0.0,0.0,0.0,0.0,0.0,0.0,0.0,0.0,0.0,0.0,0.0,0.0,0.0,6.3827,6.3425,6.2847,6.2822,6.2546,6.1994,6.1994,6.1718,6.1165,6.0537,6.0136,5.9809,0.0,5.487,5.1353,4.9619,4.6706,4.332,4.2891,4.2344,4.1915,4.2577,4.2665,4.2637,0.0,0.0,0.0,0.0,0.0,0.0,0.0,0.0,0.0,0.0,0.0,0.0,0.0,0.0,0.0,0.0,0.0,0.0,0.0,2.0893,2.1956,2.3585,2.4687,2.655,2.9226,3.0281,3.1599,3.3275,3.6779,3.978,4.2486,4.1136,3.9282,3.6888,3.3369,3.1085,2.9804,2.9804,2.9804,2.9804,0.0,0.0,0.0,0.0,0.0,0.0,0.0,0.0,0.0,0.0,0.0,0.0,0.0,0.0,0.0,2.9804,3.0181,3.0683,3.0909,3.1788,3.2792,3.352,0.0,0.0,0.0,0.0,0.0,0.0,0.0,0.0,0.0,0.0,0.0,0.0,0.0,0.0,0.0,0.0,0.0,0.0,0.0,0.0,0.0,0.0,0.0,0.0,0.0,0.0,0.0,0.0,0.0,0.0,6.355,6.3274,6.2822,6.2697,6.2345,6.1818,6.1818,6.1441,6.0763,5.9885,5.9433,5.9078,5.5727,5.2961,5.0479,4.7469,4.4857,4.2734,4.2305,4.1933,4.1621,4.1289,4.1172,4.1172,0.0,0.0,0.0,0.0,0.0,0.0,0.0,0.0,0.0,0.0,0.0,0.0,0.0,0.0,0.0,0.0,0.0,0.0,0.0,1.9076,1.9696,2.1576,2.3054,2.593,3.0353,3.106,3.3008,3.6439,3.9428,4.2943,4.6857,4.3688,4.0829,3.8252,3.4955,3.2121,2.9804,2.9804,2.9804,2.9804,2.9804,0.0,0.0,0.0,0.0,0.0,0.0,0.0,0.0,0.0,0.0,0.0,0.0,0.0,2.9804,2.9804,3.0181,3.0834,3.1813,3.2918,3.3671,3.3244,0.0,0.0,0.0,0.0,0.0,0.0,0.0,0.0,0.0,0.0,0.0,0.0,0.0,0.0,0.0,0.0,0.0,0.0,0.0,0.0,0.0,0.0,0.0,0.0,0.0,0.0,0.0,0.0,0.0,0.0,0.0,6.2873,6.2822,6.232,6.1793,6.124,6.124,6.0663,5.9608,5.9533,5.9232,5.8577,5.5969,5.3078,4.9941,4.6975,4.4202,4.1855,4.1426,4.125,4.1211,4.1191,4.1172,4.1172,0.0,0.0,0.0,0.0,0.0,0.0,0.0,0.0,0.0,0.0,0.0,1.8227,1.8037,0.0,0.0,0.0,0.0,0.0,1.9258,1.9375,2.0112,2.1839,2.3643,2.6178,2.9626,3.1779,3.4879,3.8831,4.2979,4.6289,4.8499,4.4752,4.1551,3.871,3.6192,3.3642,3.1138,3.1241,3.0881,3.0281,2.993,2.9804,0.0,0.0,0.0,0.0,0.0,0.0,0.0,0.0,2.9804,2.9804,2.9804,2.9804,2.9804,2.9804,2.993,3.0331,3.1411,3.2516,3.3495,3.3972,0.0,0.0,0.0,0.0,0.0,0.0,0.0,0.0,0.0,0.0,0.0,0.0,0.0,0.0,0.0,0.0,0.0,0.0,0.0,0.0,0.0,0.0,0.0,0.0,0.0,0.0,0.0,0.0,0.0,0.0,0.0,6.2672,6.232,6.2119,6.1366,6.0136,6.0136,5.9734,5.8981,5.8278,5.7675,5.6949,5.275,5.014,4.8423,4.4607,4.2305,4.1387,4.123,4.1172,4.1172,4.1172,4.1172,4.1172,0.0,0.0,0.0,0.0,0.0,0.0,0.0,0.0,1.9251,0.0,0.0,0.0,0.0,1.8818,0.0,0.0,0.0,0.0,1.9062,1.9766,2.0495,2.1226,2.3927,2.6317,2.8339,3.2044,3.6199,4.0788,4.5652,4.826,4.8566,4.5035,4.2021,3.9518,3.73,3.5254,3.345,3.2532,3.1784,3.1006,3.0161,2.9804,0.0,0.0,0.0,0.0,0.0,0.0,0.0,0.0,2.9804,2.9804,2.9804,2.9804,2.9804,2.9804,2.9804,3.0005,3.0909,3.1838,3.2842,3.4148,0.0,0.0,0.0,0.0,0.0,0.0,0.0,0.0,0.0,0.0,0.0,0.0,0.0,0.0,0.0,0.0,0.0,0.0,0.0,0.0,0.0,0.0,0.0,0.0,0.0,0.0,0.0,0.0,0.0,0.0,0.0,0.0,6.1743,6.1391,6.0638,5.9483,5.8956,5.8629,5.8428,5.7474,5.6721,5.5997,5.1514,4.8987,4.7619,4.3718,4.1753,4.1172,4.1172,4.1172,4.1172,4.1172,4.1172,4.1172,0.0,0.0,0.0,0.0,0.0,0.0,0.0,0.0,1.9412,1.9412,1.9581,0.0,0.0,0.0,0.0,0.0,0.0,0.0,1.8703,2.0,2.0339,1.935,2.3436,2.6089,2.6803,3.1455,3.6593,4.2161,4.699,4.8566,4.7219,4.4616,4.2495,4.0764,3.8196,3.6864,3.6443,3.35,3.2243,3.2114,3.0471,2.9804,2.9804,0.0,0.0,0.0,0.0,0.0,0.0,0.0,2.9804,2.9804,2.9804,2.9804,2.9804,2.9804,2.9804,2.993,3.0482,3.1009,3.1813,0.0,0.0,0.0,0.0,0.0,0.0,0.0,0.0,0.0,0.0,0.0,0.0,0.0,0.0,0.0,0.0,0.0,0.0,0.0,0.0,0.0,0.0,0.0,0.0,0.0,0.0,0.0,0.0,0.0,0.0,0.0,0.0,0.0,6.1165,6.006,5.9483,5.9433,5.7801,5.7323,5.7851,5.7273,5.6721,5.5972,5.2889,5.0173,4.7746,4.517,4.2922,4.1172,4.1172,4.1172,4.1172,4.1172,4.1172,4.1172,0.0,0.0,0.0,0.0,0.0,0.0,0.0,0.0,2.066,2.0046,2.0018,0.0,0.0,0.0,0.0,0.0,0.0,0.0,2.0029,2.0122,2.0477,2.1193,2.3582,2.5275,2.6118,3.1004,3.6511,4.2436,4.5113,4.5813,4.4496,4.324,4.165,3.9876,4.0025,3.8881,3.6721,3.5882,3.5105,3.4317,3.2671,3.1811,3.1395,0.0,0.0,0.0,0.0,0.0,0.0,0.0,0.0,0.0,2.9804,3.0055,3.0306,2.9905,3.0055,3.0482,3.1009,0.0,0.0,0.0,0.0,0.0,0.0,0.0,0.0,0.0,0.0,0.0,0.0,0.0,0.0,0.0,0.0,0.0,0.0,0.0,0.0,0.0,0.0,0.0,0.0,0.0,0.0,0.0,0.0,0.0,0.0,0.0,0.0,0.0,0.0,0.0,6.001,5.9307,5.8353,5.7173,5.6696,5.6545,5.6696,5.6143,5.5365,5.4269,5.2018,5.0386,4.9171,4.5617,4.2922,4.1172,4.1172,4.1172,4.1172,4.1172,4.1172,4.1172,0.0,0.0,0.0,0.0,0.0,0.0,2.0916,2.1091,2.1051,2.0742,2.0879,2.1091,0.0,0.0,0.0,2.1141,2.1101,0.0,2.0655,2.0841,2.133,2.1956,2.4141,2.5971,2.7383,3.1185,3.4739,3.8048,4.1165,4.2511,4.2162,4.2208,4.1763,4.1025,4.2073,4.1377,3.9349,3.8522,3.7501,3.6276,3.4667,3.348,3.2484,0.0,0.0,0.0,0.0,0.0,0.0,0.0,0.0,0.0,2.9804,3.003,3.0231,2.988,3.003,3.0457,3.1185,0.0,0.0,0.0,0.0,0.0,0.0,0.0,0.0,0.0,0.0,0.0,0.0,0.0,0.0,0.0,0.0,0.0,0.0,0.0,0.0,0.0,0.0,0.0,0.0,0.0,0.0,0.0,0.0,0.0,0.0,0.0,0.0,0.0,0.0,0.0,5.8529,5.7976,5.7097,5.5892,5.5666,5.544,5.5214,5.4863,5.4336,5.3543,5.1414,4.9817,4.8506,4.5425,4.2922,4.1172,4.1172,4.1172,4.1172,4.1172,4.1172,4.1172,0.0,0.0,1.9987,2.0618,0.0,0.0,2.1317,2.1117,2.0991,2.1493,2.1995,2.2322,0.0,0.0,0.0,2.2063,2.2002,2.169,2.091,2.1987,2.2503,2.2298,2.5046,2.7544,2.9654,3.1261,3.166,3.1035,3.5912,3.8839,3.9831,4.1134,4.2181,4.309,4.3868,4.3838,4.2981,4.0891,3.9305,3.8098,3.657,3.5036,3.356,3.2691,0.0,0.0,0.0,0.0,0.0,0.0,0.0,0.0,2.9804,2.9829,2.9854,2.9804,2.9829,3.0131,0.0,0.0,0.0,0.0,0.0,0.0,0.0,0.0,0.0,0.0,0.0,0.0,0.0,0.0,0.0,0.0,0.0,0.0,0.0,0.0,0.0,0.0,0.0,0.0,0.0,0.0,0.0,0.0,0.0,0.0,0.0,0.0,0.0,0.0,0.0,0.0,5.6897,5.6344,5.5792,0.0,5.4737,5.4185,5.3632,5.3683,5.3683,5.3468,5.1192,4.9081,4.6882,4.5127,4.3075,4.1172,4.1172,4.1172,4.1172,4.1172,4.1172,4.1172,0.0,0.0,1.9987,2.0618,0.0,0.0,2.1393,2.1744,2.1995,2.2121,2.2246,2.2472,2.284,2.2673,0.0,2.2859,2.2823,2.2763,2.2555,2.2221,2.2727,2.4149,2.6058,2.7745,2.9076,2.8667,2.8892,2.9892,3.3716,3.5532,3.5623,3.8841,4.0598,4.1115,4.2791,4.288,4.1743,4.071,4.0129,3.9817,3.9122,3.811,3.6722,3.4492,3.2803,0.0,0.0,0.0,0.0,0.0,0.0,0.0,2.9804,3.008,3.0357,2.9905,3.0105,3.0859,0.0,0.0,0.0,0.0,0.0,0.0,0.0,0.0,0.0,0.0,0.0,0.0,0.0,0.0,0.0,0.0,0.0,0.0,0.0,0.0,0.0,0.0,0.0,0.0,0.0,0.0,0.0,0.0,0.0,0.0,0.0,0.0,0.0,0.0,0.0,5.5867,5.5742,5.5189,5.4637,0.0,5.3934,5.3607,5.3105,5.3507,5.3482,5.308,5.254,5.0269,4.7029,4.6588,4.4398,4.1172,4.1172,4.1172,4.1172,4.1172,4.1172,4.1133,0.0,0.0,0.0,0.0,0.0,0.0,0.0,0.0,2.2096,2.2648,2.2698,2.2824,2.304,2.2874,0.0,0.0,2.3065,2.3065,2.3065,2.2702,2.3293,2.5134,2.6791,2.7946,2.8524,2.8222,2.8363,2.8841,3.0929,3.2708,3.4235,3.7358,3.9567,4.0965,4.294,4.306,4.1833,4.1474,4.0965,4.0382,4.0524,3.9536,3.7832,3.6115,3.4077,3.2087,3.0903,0.0,0.0,0.0,0.0,0.0,0.0,0.0,3.0206,3.0206,3.0382,3.116,0.0,0.0,0.0,0.0,0.0,0.0,0.0,0.0,0.0,0.0,0.0,0.0,0.0,0.0,0.0,0.0,0.0,0.0,0.0,0.0,0.0,0.0,0.0,0.0,0.0,0.0,0.0,0.0,0.0,0.0,0.0,0.0,0.0,0.0,5.529,5.4863,5.4587,5.431,5.3884,5.3331,5.3331,5.3181,5.2929,5.3206,5.3181,5.2929,5.2929,5.0717,4.7029,4.7029,4.4699,4.1172,4.1172,4.1172,4.1172,4.1172,4.1172,4.1113,0.0,0.0,0.0,0.0,0.0,0.0,0.0,0.0,0.0,2.294,2.3065,2.3065,2.3065,2.3065,2.3065,0.0,0.0,0.0,2.3065,2.3226,2.3979,2.5536,2.7118,2.8047,2.8247,2.8699,2.8699,2.8247,2.8848,3.0884,3.4174,3.6352,3.8695,4.1115,4.297,4.321,4.2192,4.2073,4.1384,4.0457,4.1115,4.0157,3.8335,3.7445,3.5349,3.2724,3.1761,3.0773,3.0011,2.9856,0.0,0.0,0.0,0.0,2.988,3.0331,3.0532,3.1185,0.0,0.0,0.0,0.0,0.0,0.0,0.0,0.0,0.0,0.0,0.0,0.0,0.0,0.0,0.0,0.0,0.0,0.0,0.0,0.0,0.0,0.0,0.0,0.0,0.0,0.0,0.0,0.0,0.0,0.0,0.0,0.0,0.0,0.0,5.4336,5.4059,5.3582,5.3557,5.3356,5.2929,5.2929,5.2929,5.2929,5.2929,5.2929,5.2929,5.2929,5.0717,4.7029,4.7029,4.4699,4.1172,4.1172,4.1172,4.1172,4.1172,4.1172,4.1094,0.0,0.0,0.0,0.0,0.0,0.0,0.0,0.0,0.0,0.0,2.3065,2.3065,2.3065,2.3065,2.3065,2.3065,2.3065,2.3065,2.3065,0.0,0.0,2.5536,2.6741,2.7846,2.88,2.8875,2.89,2.8825,2.974,3.1487,3.3912,3.5823,3.7758,3.9738,4.1145,4.1683,4.1474,4.0905,4.0546,4.0457,4.1115,4.086,3.9966,3.8439,3.6921,3.518,3.2901,3.1615,3.0895,3.0062,2.9804,0.0,0.0,0.0,2.9804,2.988,3.0231,0.0,0.0,0.0,0.0,0.0,0.0,0.0,0.0,0.0,0.0,0.0,0.0,0.0,0.0,0.0,0.0,0.0,0.0,0.0,0.0,0.0,0.0,0.0,0.0,0.0,0.0,0.0,0.0,0.0,0.0,0.0,0.0,0.0,5.3884,5.3808,5.3381,5.3105,5.303,5.303,5.3005,5.2929,5.2929,5.2929,5.2929,5.2929,5.2929,5.2929,5.2929,5.0717,4.7029,4.7029,4.4699,4.1172,4.1172,4.1172,4.1172,4.1172,4.1172,4.1055,0.0,0.0,0.0,0.0,0.0,0.0,0.0,0.0,0.0,0.0,0.0,2.3065,2.3065,2.3065,2.3065,2.3065,2.3427,2.3753,2.4054,2.4582,2.5109,2.5586,2.6666,2.7645,2.8448,2.8775,2.9076,2.9402,2.9859,3.1664,3.4807,3.6359,3.8302,4.0576,4.1923,4.2282,4.1863,4.0846,4.0606,4.0935,4.0876,4.0427,3.9725,3.9062,3.7652,3.5856,3.4702,3.3199,3.1747,3.1629,3.1033,3.0306,3.0608,0.0,0.0,0.0,0.0,0.0,0.0,0.0,0.0,0.0,0.0,0.0,0.0,0.0,0.0,0.0,0.0,0.0,0.0,0.0,0.0,0.0,0.0,0.0,0.0,0.0,0.0,0.0,0.0,0.0,0.0,0.0,0.0,0.0,0.0,0.0,0.0,5.3406,5.3281,5.3281,5.3055,0.0,5.2929,5.2929,5.2929,5.2929,5.2929,5.2929,5.2929,5.2929,5.2929,5.2929,5.2929,5.1303,4.865,4.7467,4.5425,4.279,4.1618,4.1035,4.084,4.1074,4.0879,4.0238,0.0,0.0,0.0,0.0,0.0,0.0,0.0,0.0,0.0,0.0,0.0,2.3065,2.3065,0.0,0.0,0.0,2.3753,2.423,2.4782,2.5184,2.546,2.5586,2.654,2.7394,2.8097,2.8649,2.9227,2.9804,3.0062,3.2172,3.6136,3.7484,3.9823,4.291,4.3389,4.3269,4.2551,4.1384,4.1294,4.1773,4.0606,3.9858,3.9409,3.923,3.7878,3.6166,3.6201,3.4832,3.2976,3.3265,3.2437,3.1258,3.1665,3.1352,0.0,0.0,0.0,0.0,0.0,0.0,0.0,0.0,0.0,0.0,0.0,0.0,0.0,0.0,0.0,0.0,0.0,0.0,0.0,0.0,0.0,0.0,0.0,0.0,0.0,0.0,0.0,0.0,0.0,0.0,0.0,0.0,0.0,0.0,5.2955,5.2929,5.2929,5.2929,5.2779,5.2729,5.2729,5.2578,5.2503,5.2503,5.2503,5.2503,5.2503,5.2503,5.2503,5.2528,5.2653,5.1452,4.9416,4.7394,4.55,4.359,4.1569,4.0644,4.041,4.0723,4.0449,3.9562,0.0,0.0,0.0,0.0,0.0,0.0,0.0,0.0,0.0,0.0,0.0,2.3065,2.3065,2.3065,2.3351,2.3904,2.3979,2.423,2.4782,2.4858,2.5084,2.5586,2.6189,0.0,2.8072,2.8649,2.9227,2.9804,3.0696,3.3284,3.7442,3.9075,4.2386,4.692,4.5095,4.3928,4.3299,4.2581,4.2641,4.3,4.0487,3.9439,3.9349,3.8691,3.7644,3.6552,3.6794,3.6029,3.4838,3.4622,3.3761,3.2909,3.2935,3.2223,3.1361,0.0,0.0,0.0,0.0,0.0,0.0,0.0,0.0,0.0,0.0,0.0,0.0,0.0,0.0,0.0,0.0,0.0,0.0,0.0,0.0,0.0,0.0,0.0,0.0,0.0,0.0,0.0,0.0,0.0,0.0,0.0,0.0,0.0,5.2929,5.2929,5.2929,5.2929,5.2427,5.2151,5.2151,5.1624,5.1373,5.1373,5.1373,5.1373,5.1373,5.1373,5.1373,5.1398,5.1925,5.0665,4.8187,4.6348,4.4517,4.2501,4.0674,3.9941,3.9922,3.9961,3.9941,3.9523,0.0,0.0,0.0,0.0,0.0,0.0,0.0,0.0,0.0,0.0,0.0,0.0,0.0,2.3477,2.3778,2.3979,2.433,2.4908,2.5812,2.5536,2.5561,2.6113,2.6691,2.7344,2.8097,2.8649,2.9227,2.9804,3.0139,3.2378,3.6303,3.7704,4.0625,4.4766,4.4885,4.5065,4.5155,4.318,4.2731,4.309,4.0487,3.9679,3.9888,3.8332,3.7734,0.0,0.0,0.0,0.0,3.6693,3.599,3.5056,3.4286,3.3537,3.2846,3.2162,3.2315,3.3043,0.0,0.0,0.0,0.0,0.0,0.0,0.0,0.0,0.0,0.0,0.0,0.0,0.0,0.0,0.0,0.0,0.0,0.0,0.0,0.0,0.0,0.0,0.0,0.0,0.0,0.0,0.0,0.0,0.0,0.0,5.2427,5.2402,5.2226,5.1875,5.1674,5.1574,5.1574,5.1373,5.1272,5.1272,5.1272,5.1272,5.1272,5.1272,5.1071,5.0745,5.0946,5.0697,4.9989,4.6864,4.5145,4.4163,4.1171,3.9707,3.9492,3.9785,3.9531,3.8747,0.0,0.0,0.0,2.0243,0.0,2.0865,2.1418,2.197,2.2573,2.3326,0.0,0.0,0.0,0.0,2.4645,2.457,2.5059,2.5686,2.6483,2.6088,2.6063,2.6508,2.6992,2.7544,2.8097,2.8649,2.9227,2.9804,2.9804,3.181,3.5614,3.6665,3.9498,4.3688,4.4347,4.5274,4.6202,0.0,0.0,4.3748,4.0905,4.0277,4.0905,3.9589,0.0,0.0,0.0,0.0,0.0,3.8777,3.7863,3.6688,3.5764,3.4891,3.3927,3.3215,3.3194,3.352,3.4248,0.0,0.0,0.0,0.0,0.0,0.0,0.0,0.0,0.0,0.0,0.0,0.0,0.0,0.0,0.0,0.0,0.0,0.0,0.0,0.0,0.0,0.0,0.0,0.0,0.0,0.0,0.0,0.0,0.0,5.2126,5.1925,5.1574,5.1021,5.082,5.0619,5.0444,5.0243,5.0142,5.0142,5.0142,5.0142,5.0142,5.0142,5.0042,4.9866,4.9866,5.0193,5.0431,4.6634,4.5102,4.4679,4.102,3.9258,3.9023,3.9336,3.9082,3.8321,2.2777,2.2219,2.1589,2.0851,2.0743,2.0865,2.1418,2.197,2.2723,2.3853,0.0,0.0,0.0,0.0,0.0,2.5744,2.6231,2.6627,2.6559,2.6627,2.6627,2.6627,2.7183,2.7641,2.8195,2.8749,2.9227,2.9856,2.9804,3.1784,3.5502,3.622,3.9269,4.4137,4.3569,4.4377,4.6202,0.0,4.5873,4.4975,0.0,4.1265,4.2462,0.0,0.0,0.0,4.3599,4.309,0.0,4.0756,3.937,3.7949,3.7362,3.6114,3.4726,3.4726,3.4349,3.3922,0.0,0.0,0.0,0.0,0.0,0.0,0.0,0.0,0.0,0.0,0.0,0.0,0.0,0.0,0.0,0.0,0.0,0.0,0.0,0.0,0.0,0.0,0.0,0.0,0.0,0.0,0.0,0.0,0.0,5.2051,5.2051,5.1523,5.0946,5.0368,4.9816,4.9289,4.8761,4.8184,4.7908,4.7908,4.7908,4.7908,4.7908,4.7908,4.8234,4.8761,4.8761,4.9063,4.9152,4.5615,4.4116,4.3703,3.9962,3.8574,3.8574,3.8574,3.8574,3.8243,2.3671,2.3193,2.2721,2.1462,2.1267,2.1443,2.1995,2.2548,2.3175,0.0,0.0,0.0,2.6791,2.8139,2.8806,2.8481,2.8812,2.9,2.8699,2.8919,2.9333,2.9767,3.0268,3.0605,3.0767,3.0639,3.0664,3.082,3.0139,3.1031,3.3467,3.4594,3.7186,4.0816,4.2073,4.294,4.3479,4.3958,0.0,0.0,4.2551,4.318,0.0,0.0,0.0,0.0,0.0,4.4197,0.0,0.0,4.326,4.2828,4.0521,3.8004,3.5983,3.5983,3.5289,3.45,3.45,0.0,0.0,0.0,0.0,0.0,0.0,0.0,0.0,0.0,0.0,0.0,0.0,0.0,0.0,0.0,0.0,0.0,0.0,0.0,0.0,0.0,0.0,0.0,0.0,0.0,0.0,0.0,0.0,5.087,5.087,4.9992,4.9213,4.8611,4.846,4.8309,4.8159,4.7983,4.7908,4.7908,4.7908,4.7908,4.7908,4.7908,4.8234,4.8761,4.8761,4.8174,4.6979,4.4913,4.3266,4.189,3.955,3.8574,3.8574,3.8574,3.8379,3.8,2.51,2.4574,2.4067,2.3305,2.3124,2.3373,2.4326,2.4424,2.49,0.0,0.0,0.0,2.9104,3.0247,3.0741,3.016,3.0361,3.0372,3.016,3.0333,3.0637,3.0971,3.1514,3.1778,3.1778,3.1792,3.1756,3.1756,3.0846,3.1474,3.3649,3.4297,3.6168,3.908,4.0786,4.1384,4.1205,0.0,0.0,0.0,4.309,0.0,0.0,4.5603,4.6202,0.0,0.0,0.0,4.8177,4.683,4.5798,0.0,0.0,0.0,3.8681,3.8681,3.7659,3.6533,3.6533,3.5836,3.5228,0.0,0.0,0.0,3.6734,3.7864,0.0,0.0,0.0,0.0,0.0,0.0,0.0,0.0,0.0,0.0,0.0,0.0,0.0,0.0,0.0,0.0,0.0,0.0,0.0,0.0,5.0519,4.9866,4.9389,4.856,4.7933,4.7606,4.7129,4.7004,4.723,4.7004,4.7004,4.723,4.723,4.723,4.723,4.723,4.7556,4.8083,4.8083,4.715,4.5622,4.405,4.2398,4.0661,3.8923,3.8301,3.832,3.8516,3.8301,3.7988,0.0,2.6157,2.5772,2.58,2.5643,2.6034,2.7496,2.7033,2.7409,0.0,2.9839,3.0446,3.2471,3.2738,3.2413,3.1618,3.1685,3.1657,3.1439,3.1573,3.1545,3.1489,3.1926,3.2234,3.2234,3.2556,3.2735,3.2735,3.1882,3.2691,3.4992,3.4888,3.6155,3.8571,3.9828,4.0127,3.9738,4.1504,0.0,4.324,4.3599,4.5633,0.0,0.0,5.084,0.0,5.2875,5.2606,5.1468,5.0152,4.7672,0.0,0.0,0.0,0.0,0.0,4.0695,3.9348,3.9401,3.7794,3.6506,3.783,0.0,0.0,3.6307,3.6383,3.6533,0.0,0.0,0.0,0.0,0.0,0.0,0.0,0.0,0.0,0.0,0.0,0.0,0.0,0.0,0.0,0.0,0.0,0.0,5.087,4.9916,4.8837,4.7707,4.7205,4.6928,4.6853,4.5899,4.5623,4.6125,4.5648,4.5648,4.6125,4.6125,4.615,4.6225,4.6225,4.6552,4.7129,4.7129,4.6238,4.4689,4.3208,4.1524,3.9908,3.8445,3.793,3.7969,3.8418,3.8301,3.7988,2.8161,2.7909,2.7798,2.7753,2.7742,2.7986,2.8809,2.9184,2.95,3.0053,3.1943,3.3848,3.5459,3.6127,3.6055,3.5094,3.5682,3.5615,3.4307,3.4952,3.5178,3.4646,3.4735,3.4794,3.4794,3.4119,3.3739,3.3739,3.3306,3.3756,3.4992,3.6071,3.7507,3.926,4.0038,4.0636,4.1025,4.1414,4.1953,4.2731,4.4885,0.0,4.9942,5.072,5.2097,5.3653,5.3922,5.4192,5.4221,0.0,5.0657,4.8209,0.0,0.0,0.0,0.0,0.0,0.0,0.0,0.0,0.0,0.0,0.0,0.0,3.6716,3.6383,3.6684,0.0,0.0,0.0,0.0,0.0,0.0,0.0,0.0,0.0,0.0,0.0,0.0,0.0,0.0,0.0,0.0,0.0,4.8435,4.856,4.7983,4.7129,4.6024,4.5874,4.5598,4.5121,4.4895,4.4844,4.4945,4.4844,4.4844,4.4945,4.4945,4.5196,4.5648,4.5648,4.62,4.7129,4.7129,4.5368,4.2577,4.2316,4.124,3.975,3.8445,3.793,3.7969,3.8418,3.8301,3.7988,2.9068,2.8911,2.9088,2.9782,2.9829,3.0221,3.1662,3.1489,3.1675,3.3107,3.5049,3.6724,3.7814,3.8242,3.818,3.7723,3.8109,3.7883,3.6781,3.6832,3.6656,3.6028,3.5998,3.5998,3.5998,3.5769,3.5536,3.5242,3.4609,3.4966,3.6212,3.6751,3.7682,3.896,4.0307,4.0696,4.0457,4.1444,4.2252,4.306,4.5394,0.0,4.9972,5.1947,5.3743,5.5269,5.5927,5.6376,5.6256,5.3593,5.2037,0.0,0.0,4.7199,4.5991,0.0,4.5107,4.3602,0.0,0.0,0.0,4.1474,0.0,0.0,0.0,3.6692,0.0,0.0,0.0,0.0,0.0,0.0,0.0,0.0,0.0,0.0,0.0,0.0,0.0,0.0,0.0,0.0,0.0,0.0,4.6702,4.6702,4.6451,4.5949,4.5095,4.4794,4.4518,4.4217,4.394,4.394,4.4217,4.4217,4.4342,4.4618,4.4618,4.492,4.5497,4.5497,4.5949,4.6728,4.6728,4.5699,4.401,4.2312,4.1175,4.0403,3.8447,3.7617,3.7695,3.834,3.8164,3.7676,2.9953,2.9925,3.0338,3.1662,3.1838,3.2445,3.4409,3.3785,3.3973,3.6529,3.7973,3.8931,3.9379,3.9529,3.9709,3.9978,3.9529,3.92,3.917,3.8182,3.7315,3.6686,3.6896,3.6926,3.6656,3.7285,3.7345,3.6866,3.6065,3.6388,3.7823,3.7709,3.8223,3.923,4.0726,4.0995,4.0457,0.0,0.0,4.3718,0.0,4.7668,4.9434,5.2755,5.482,5.6196,5.7752,5.8321,5.7752,5.4162,0.0,5.2845,4.9823,4.8955,0.0,0.0,0.0,0.0,0.0,0.0,0.0,0.0,0.0,4.0802,0.0,0.0,0.0,0.0,0.0,0.0,0.0,0.0,0.0,0.0,0.0,0.0,0.0,0.0,0.0,0.0,0.0,0.0,0.0,0.0,4.4519,4.4618,4.4678,4.4518,4.4166,4.3639,4.3338,4.3338,4.2886,4.2936,4.3489,4.3489,4.3765,4.4292,4.4292,4.4618,4.5171,4.5271,4.5623,4.615,4.6276,4.6059,4.555,4.2454,4.1052,4.0495,3.8162,3.7305,3.7402,3.8262,3.8086,3.748,3.1243,3.1722,3.2378,3.3155,3.3752,3.4439,3.528,3.5753,3.6559,3.8003,3.9349,3.9978,3.9469,3.9948,4.0756,4.1923,3.9858,0.0,4.1773,3.9619,3.7973,3.7345,3.8452,3.8512,3.7315,3.7943,3.8242,3.8182,3.8083,3.8441,3.92,3.9785,4.0711,4.1893,4.1534,4.2252,0.0,0.0,4.3599,0.0,4.701,4.8207,0.0,5.2037,5.4132,5.5628,5.8112,5.9009,5.865,0.0,5.4999,5.3713,0.0,4.9733,0.0,0.0,0.0,0.0,0.0,0.0,0.0,0.0,4.6292,0.0,0.0,0.0,0.0,0.0,0.0,0.0,0.0,0.0,0.0,0.0,0.0,0.0,0.0,0.0,0.0,0.0,0.0,0.0,0.0,0.0,0.0,4.1317,4.1669,4.2007,4.2409,4.1907,4.1605,4.1605,4.1555,4.1781,4.2333,4.2333,4.261,4.3162,4.3162,4.3463,4.4016,4.4493,4.5045,4.5623,4.61,4.5403,4.3855,4.1947,4.0278,3.8835,3.7768,3.7305,3.7402,3.8262,3.8262,3.791,3.1631,3.2048,3.2706,3.3395,3.4023,3.4831,3.5908,3.7614,3.908,4.0008,4.1594,4.3,4.3898,0.0,0.0,0.0,0.0,0.0,0.0,0.0,3.9589,3.9709,3.9888,3.9738,3.914,3.9798,3.9948,3.9559,3.9559,3.9709,4.0008,4.0666,4.1265,4.1803,4.2312,0.0,4.324,0.0,0.0,0.0,0.0,0.0,0.0,5.2516,5.5089,5.7034,5.8141,5.877,5.88,0.0,5.5538,0.0,0.0,0.0,0.0,0.0,0.0,0.0,0.0,0.0,0.0,0.0,0.0,0.0,0.0,0.0,4.0102,0.0,0.0,0.0,0.0,0.0,0.0,0.0,0.0,0.0,0.0,0.0,0.0,0.0,0.0,0.0,0.0,0.0,0.0,0.0,0.0,3.934,3.9668,4.0649,4.1329,4.1329,4.1329,4.1455,4.1681,4.2007,4.2258,4.2509,4.2811,4.3263,4.3815,4.4041,4.4443,4.502,4.5598,4.544,4.4572,4.2213,4.0795,3.9953,3.7743,3.709,3.7363,3.7969,3.793,3.7617,3.2258,3.2587,3.3215,3.3694,3.4322,3.519,3.6537,3.8811,4.0696,4.1534,4.321,0.0,4.71,4.704,0.0,0.0,0.0,4.5095,0.0,0.0,4.1444,4.1384,4.1624,0.0,4.0935,4.1594,4.1683,4.1235,4.0846,4.0756,4.0935,4.1444,4.1743,4.1953,4.291,4.3269,4.3269,0.0,0.0,4.6262,4.7908,4.9284,5.0631,5.3234,5.5718,5.7872,5.8052,5.853,5.883,5.7034,5.6107,0.0,5.473,0.0,0.0,0.0,0.0,0.0,5.0092,0.0,0.0,0.0,0.0,0.0,0.0,0.0,0.0,0.0,0.0,0.0,0.0,0.0,3.7362,3.7211,0.0,0.0,0.0,0.0,0.0,0.0,0.0,0.0,0.0,0.0,0.0,0.0,0.0,0.0,3.6908,3.9025,4.035,4.0651,4.0802,4.0953,4.1103,4.1505,4.1856,4.2158,4.2559,4.3037,4.3589,4.374,4.4016,4.4443,4.5171,4.5497,4.5285,4.2372,4.1181,4.0839,3.7672,3.6758,3.7187,3.7734,3.7734,3.7519,3.3455,3.3963,3.4412,3.4442,3.5011,3.5908,3.7195,3.908,4.0876,0.0,0.0,0.0,0.0,0.0,0.0,0.0,0.0,4.7728,4.8985,0.0,4.3359,0.0,0.0,0.0,0.0,4.294,4.3269,4.3299,4.1983,4.1683,4.2312,4.2312,4.2671,4.3269,4.3299,4.4018,4.5214,4.5274,4.6411,4.8267,4.8955,5.078,5.3144,0.0,5.5418,5.7214,5.7872,0.0,0.0,5.7513,5.7064,0.0,0.0,0.0,0.0,0.0,0.0,0.0,0.0,0.0,0.0,5.1828,0.0,0.0,0.0,0.0,4.331,0.0,0.0,0.0,0.0,3.8366,3.7814,3.7262,3.7161,0.0,0.0,0.0,0.0,0.0,0.0,0.0,0.0,0.0,0.0,0.0,0.0,0.0,3.4702,3.638,3.7814,3.8919,3.9471,3.9998,4.0551,4.0551,4.1103,4.2158,4.2183,4.2459,4.3011,4.3564,4.3815,4.389,4.4995,4.5497,4.5285,4.2372,4.1181,4.0795,3.7327,3.6309,3.6797,3.7617,3.791,3.791,3.4831,3.5011,3.5011,3.4562,0.0,3.6746,3.8482,4.0786,0.0,0.0,0.0,0.0,0.0,0.0,5.5159,0.0,0.0,5.404,5.2695,4.9889,0.0,0.0,0.0,4.4975,0.0,4.4526,4.4436,4.4018,4.3539,4.321,4.3,4.3,4.3359,4.3988,4.3988,4.4466,0.0,0.0,0.0,0.0,0.0,5.2546,5.4491,0.0,0.0,5.7124,5.7363,5.8171,0.0,5.859,5.8141,5.7782,5.7782,5.7004,5.6077,5.5837,5.5927,0.0,0.0,0.0,5.7034,5.3982,0.0,0.0,0.0,0.0,0.0,0.0,0.0,0.0,0.0,3.8944,3.8391,3.7814,3.7412,3.6609,0.0,0.0,0.0,0.0,0.0,0.0,0.0,0.0,0.0,0.0,0.0,0.0,0.0,3.439,3.6628,3.7739,3.9019,3.9798,3.9973,4.0701,4.1053,4.1078,4.2183,4.261,4.2459,4.3011,4.3263,4.3288,4.4041,4.4568,4.4711,4.1738,4.0867,4.0795,3.7307,3.6289,3.6738,3.7305,3.75,3.75,3.5554,3.5519,3.537,3.4921,0.0,0.0,0.0,0.0,0.0,0.0,5.0631,0.0,5.7094,0.0,5.9451,0.0,6.0263,5.903,5.5752,5.4482,0.0,5.0074,4.8791,0.0,0.0,4.6244,4.5454,4.5035,4.4796,4.4436,4.4018,4.4018,4.4257,4.4676,4.4915,4.5274,0.0,0.0,4.7578,0.0,0.0,5.2965,0.0,0.0,5.5568,0.0,0.0,5.7633,5.877,5.877,5.877,5.889,5.9308,5.886,5.8112,5.7872,5.7962,5.7902,5.6795,5.7782,0.0,0.0,5.5867,0.0,5.0917,0.0,0.0,0.0,0.0,0.0,0.0,4.0568,3.9548,3.8491,3.7839,3.691,0.0,3.47,0.0,0.0,0.0,0.0,0.0,0.0,0.0,0.0,0.0,0.0,0.0,0.0,3.4461,3.6257,3.7863,3.9034,3.9697,4.0601,4.0978,4.0827,4.2082,4.2509,4.2183,4.2735,4.2861,4.2735,4.3489,4.4016,4.4136,4.1392,4.0472,4.0551,3.7246,3.6191,3.6484,3.6914,3.7168,3.7324,3.5744,3.5609,3.5669,3.5699,3.7225,0.0,0.0,0.0,4.7638,0.0,5.2102,5.555,5.8188,6.031,6.2104,6.3381,6.4107,0.0,5.8719,5.9774,0.0,0.0,5.3492,5.284,5.1381,4.8262,0.0,4.6381,4.5723,4.5364,4.5304,4.5304,4.5304,4.5334,4.6022,0.0,4.6322,4.701,4.8057,4.9434,5.1379,5.2247,5.2486,5.3683,0.0,5.7902,5.6645,5.7004,5.8082,5.8112,5.9009,6.0086,6.0116,6.0176,6.0116,5.9458,5.9727,5.9817,5.7872,5.8291,5.8979,5.7573,0.0,0.0,0.0,0.0,5.1928,0.0,0.0,0.0,0.0,0.0,4.1089,3.9247,3.8341,3.7362,3.578,3.5554,0.0,0.0,0.0,0.0,0.0,0.0,0.0,0.0,0.0,0.0,0.0,0.0,0.0,3.451,3.6039,3.7685,3.9697,4.0249,4.0777,4.1304,4.1856,4.2108,4.2133,4.2685,4.266,4.2208,4.3288,4.379,4.3637,4.123,4.0271,3.9958,3.7145,3.6035,3.6094,3.6543,3.6973,3.7383,3.6496,3.7015,3.7823,3.8332,3.8811,3.9888,0.0,0.0,0.0,0.0,5.6633,6.0424,6.3025,6.5574,6.7459,6.8436,6.9604,0.0,0.0,0.0,0.0,5.9323,5.7772,5.5851,5.3533,5.2157,0.0,4.704,4.689,4.6292,4.5304,4.5304,4.5304,4.5334,4.6022,4.6022,4.5633,4.68,4.8057,4.9404,5.087,5.2665,0.0,0.0,5.5059,5.7244,5.6466,5.6675,5.7423,5.7962,5.9009,6.0176,6.0685,6.1523,6.2181,6.1523,6.1792,6.2091,6.1074,6.1433,6.1613,5.9787,5.9308,5.8632,0.0,0.0,0.0,0.0,0.0,0.0,0.0,0.0,0.0,3.9373,3.7688,3.6483,3.5655,0.0,0.0,0.0,0.0,0.0,0.0,0.0,0.0,0.0,0.0,0.0,0.0,0.0,0.0,3.3455,3.5657,3.7685,3.9697,4.0249,4.0601,4.0727,4.1279,4.1555,4.1555,4.2108,4.2283,4.2208,4.2886,4.3413,4.3612,4.0837,3.9958,3.9958,3.7145,3.6211,3.6562,3.6973,3.7402,3.7832,3.7586,3.8601,3.9918,4.0576,0.0,0.0,4.4907,0.0,0.0,5.3773,5.8307,0.0,6.3698,6.7383,6.9975,7.0798,7.2116,0.0,0.0,0.0,0.0,6.3814,6.2147,6.0151,5.7676,5.5207,0.0,4.9572,0.0,4.7843,4.7534,4.6645,4.6395,4.6863,4.6731,4.6531,0.0,4.7279,4.8327,4.9374,5.069,0.0,0.0,5.3264,5.4102,5.5388,5.5329,5.5897,5.6795,5.7453,5.856,5.9817,6.0805,6.1822,6.263,6.254,6.278,6.2989,6.263,6.278,6.281,6.1672,6.1403,6.0864,5.886,5.8267,5.757,0.0,0.0,0.0,0.0,0.0,0.0,3.955,3.7864,3.6985,0.0,0.0,0.0,0.0,0.0,0.0,0.0,0.0,0.0,0.0,0.0,0.0,0.0,0.0,0.0,3.1084,3.3447,3.5841,3.8423,3.9324,4.0187,4.0877,4.1204,4.1455,4.1706,4.2007,4.2158,4.2183,4.2735,4.3162,4.3237,4.0375,3.94,3.9486,3.678,3.6133,3.6719,3.7148,3.7559,3.7969,3.9459,4.0721,4.2152,0.0,0.0,0.0,0.0,5.0276,0.0,5.5054,0.0,6.2512,6.3076,6.7523,7.0795,0.0,0.0,7.2394,6.9823,7.1481,7.1007,6.7557,6.6443,6.4785,6.2392,5.7883,0.0,0.0,0.0,4.947,5.0165,4.8293,4.7904,4.8594,4.7679,0.0,0.0,4.7788,4.8446,0.0,5.0571,5.1259,5.1588,5.2755,5.3294,5.3503,5.4012,5.4999,5.6137,5.6855,5.7932,5.9219,6.0655,6.1553,6.2241,6.2869,6.3079,6.3079,6.3079,6.3079,6.3079,6.3079,6.3079,6.263,6.0864,6.0416,5.9817,5.7992,5.6585,0.0,0.0,0.0,0.0,3.9804,3.8492,0.0,0.0,0.0,0.0,0.0,0.0,0.0,0.0,0.0,0.0,0.0,0.0,0.0,0.0,0.0,0.0,0.0,3.0849,0.0,3.6649,0.0,3.9722,4.1106,4.1121,4.1455,4.2057,4.2057,4.2082,4.2183,4.2735,4.2986,4.2787,4.0029,3.8775,3.8357,3.6325,3.5976,3.6719,3.7012,3.7461,3.793,0.0,0.0,0.0,0.0,0.0,5.241,0.0,5.7241,5.9818,6.144,6.5191,0.0,6.8013,6.9849,7.1715,7.3063,7.3384,0.0,0.0,0.0,0.0,7.0601,6.9748,6.7858,6.4708,6.1376,5.7901,0.0,5.2061,5.0342,4.9054,4.8677,4.821,4.7538,4.7366,0.0,4.6501,4.6621,0.0,4.8566,4.9883,5.1379,5.2875,5.3084,5.3862,5.479,5.4371,5.47,5.5538,5.6705,5.7633,5.862,6.0505,6.1553,6.2241,6.2869,6.3079,6.3079,6.3079,6.3079,6.3079,6.3079,6.3079,6.2989,6.263,6.2121,6.1493,6.0595,5.9338,5.7523,5.4449,0.0,0.0,0.0,0.0,0.0,0.0,0.0,0.0,0.0,0.0,0.0,0.0,0.0,0.0,0.0,0.0,0.0,0.0,0.0,0.0,0.0,0.0,0.0,0.0,0.0,0.0,3.989,3.9939,4.0501,4.148,4.148,4.1731,4.2183,4.2735,4.2986,4.2812,4.0398,3.8295,3.6469,3.611,3.623,3.6641,3.6348,3.6953,3.7969,0.0,0.0,0.0,0.0,0.0,0.0,0.0,6.3752,0.0,6.3387,6.5498,6.7328,6.7691,7.0205,7.2326,7.3375,7.3849,7.3747,7.2969,7.3274,7.2834,7.1379,7.0973,0.0,6.7267,6.3869,6.0817,5.8111,5.413,5.1803,5.0987,5.0089,4.9085,4.8042,4.7177,4.68,0.0,0.0,0.0,4.8865,4.9853,5.1229,5.2725,5.3054,5.3803,5.464,5.4311,5.464,5.5388,5.6675,5.7304,5.7992,6.0356,6.1343,6.1792,6.278,6.3079,6.3079,6.3079,6.3079,6.3079,6.3079,6.3079,6.3079,6.3079,6.257,6.1912,6.1253,6.0326,5.8565,5.4992,5.0045,0.0,0.0,0.0,0.0,0.0,0.0,0.0,0.0,0.0,0.0,0.0,0.0,0.0,0.0,0.0,0.0,0.0,0.0,0.0,0.0,0.0,0.0,0.0,0.0,0.0,3.8864,3.8645,3.9742,4.1756,4.1455,4.1806,4.261,4.2861,4.2513,4.1606,3.9008,3.6891,3.5351,3.5605,3.5957,3.6367,3.6601,3.707,3.7637,0.0,5.0066,0.0,0.0,5.8248,0.0,0.0,6.8194,6.9099,6.5433,6.5915,6.6845,6.7378,7.0253,7.2462,7.3206,7.395,7.3815,7.2496,7.3071,7.2834,7.1379,7.1312,7.0703,6.935,6.5831,6.3091,0.0,5.627,5.3427,5.2745,5.134,5.0009,0.0,0.0,0.0,0.0,0.0,4.7728,4.9344,5.0272,5.1439,5.2695,5.3354,5.4042,5.461,5.4461,5.494,5.5748,5.6765,5.7094,5.7573,6.0266,6.1104,6.1373,6.269,6.3079,6.3079,6.3079,6.3079,6.3079,6.3079,6.3079,6.3079,6.3079,6.257,6.1942,6.1433,6.0655,5.8981,5.5118,5.1832,0.0,0.0,0.0,0.0,0.0,0.0,0.0,0.0,0.0,0.0,0.0,0.0,0.0,0.0,0.0,0.0,0.0,0.0,0.0,0.0,0.0,0.0,3.328,0.0,3.7293,0.0,3.8227,3.9462,4.1982,4.1656,4.2057,4.2986,4.2625,4.1492,3.9613,3.7471,3.5963,3.4902,3.5449,3.582,3.6133,3.6992,3.7305,3.7305,0.0,0.0,0.0,0.0,0.0,0.0,0.0,6.8629,7.1019,7.0603,7.0693,7.0726,7.0794,7.1154,7.1718,7.2428,7.3172,7.324,7.2462,7.3071,7.2834,7.1379,7.1312,7.0939,7.0094,6.7049,6.4106,0.0,0.0,5.4912,0.0,5.1882,5.0671,0.0,0.0,0.0,0.0,4.7608,4.8566,4.9434,5.1289,5.2815,5.4102,5.476,5.5418,5.5897,5.5299,5.5867,5.6944,5.7064,5.7094,5.7573,6.0266,6.1104,6.1373,6.269,6.3079,6.3079,6.3079,6.3079,6.3079,6.3079,6.3079,6.3079,6.3079,6.257,6.2091,6.2032,6.0984,5.9101,5.57,5.4331,5.1925,0.0,0.0,0.0,0.0,0.0,0.0,0.0,0.0,0.0,0.0,0.0,0.0,0.0,0.0,0.0,0.0,0.0,0.0,0.0,0.0,3.4225,3.4177,3.7661,0.0,3.8753,3.98,4.0671,4.143,4.1882,4.2409,4.2986,4.1419,3.9304,3.6873,3.696,3.6302,3.541,3.623,3.6328,3.6133,3.6992,3.7305,3.7344,0.0,0.0,0.0,0.0,0.0,0.0,0.0,7.0232,7.1312,7.1312,7.1312,7.1312,7.1312,7.1312,7.1447,7.1718,7.28,7.3003,7.1819,7.2834,7.2834,7.1379,7.1312,7.1176,7.0872,6.8335,6.6,0.0,0.0,0.0,0.0,5.4289,0.0,0.0,0.0,4.791,4.7549,4.8476,4.9494,5.0601,5.2606,5.3952,5.488,5.5538,5.6166,5.6645,5.6017,5.6346,5.7154,5.7573,5.7723,5.8112,6.0386,6.1104,6.1373,6.269,6.3079,6.3079,6.3079,6.3079,6.3079,6.3079,6.3079,6.3079,6.3079,6.2271,6.1493,6.1493,6.0446,5.914,5.7764,5.5946,5.3589,0.0,0.0,0.0,0.0,0.0,0.0,0.0,0.0,0.0,0.0,0.0,0.0,0.0,0.0,0.0,0.0,0.0,0.0,3.1264,0.0,3.4655,3.4693,3.7116,3.8393,3.8461,3.8924,4.007,4.1831,4.2057,4.1991,4.1419,3.9896,3.8154,3.6457,3.5895,3.5619,3.5488,3.6328,3.6562,3.6523,3.7363,3.7676,3.7734,6.1941,0.0,6.3971,0.0,6.7996,6.8842,7.0973,7.1312,7.1312,7.1312,7.1515,7.1548,7.1345,7.1684,7.1785,7.1345,7.2834,7.3206,7.1718,7.3003,7.3274,7.1988,7.1751,0.0,7.1616,6.962,6.7726,6.6,6.3497,0.0,5.711,0.0,0.0,0.0,5.0738,5.0027,4.9758,5.0637,5.1421,5.2247,5.4072,5.5179,5.5807,5.6256,5.6825,5.7304,5.6675,5.6974,5.7723,5.8022,5.8381,5.8979,6.0595,6.1253,6.1613,6.275,6.3079,6.3079,6.3079,6.3079,6.3079,6.3079,6.3079,6.3079,6.3079,6.2211,6.1283,6.0894,6.0057,5.9338,5.9129,5.736,5.5134,0.0,0.0,0.0,0.0,0.0,0.0,0.0,3.5479,3.4851,3.4198,0.0,0.0,0.0,0.0,0.0,0.0,0.0,0.0,0.0,0.0,0.0,0.0,3.7339,3.8403,3.8935,3.908,4.0207,4.2158,4.2308,4.1555,3.9873,3.8698,3.7306,3.5722,3.5032,3.498,3.5488,3.6465,3.6777,3.6777,3.7754,3.8027,3.7988,6.414,6.573,6.7455,6.9755,7.077,7.1278,7.1312,7.1312,7.1312,7.1312,7.1954,7.2124,7.1379,7.2597,7.2868,7.1447,7.3341,7.3984,7.2496,7.3781,7.4255,0.0,0.0,7.2394,7.2394,7.0906,6.9045,6.6812,0.0,6.2651,5.889,0.0,5.4533,5.5226,5.4146,5.3355,5.302,5.4417,5.4599,5.4281,5.5628,5.6526,5.7064,5.7094,5.7513,5.8022,5.7334,5.7962,5.8979,5.8351,5.8979,6.0176,6.0894,6.1553,6.2211,6.2869,6.3079,6.3079,6.3079,6.3079,6.3079,6.3079,6.3079,6.3079,6.3079,6.257,6.1702,6.0386,6.0086,5.9877,5.9219,5.856,5.7001,5.3838,0.0,0.0,0.0,0.0,0.0,0.0,3.7638,3.7111,3.4926,0.0,0.0,0.0,0.0,0.0,0.0,0.0,0.0,3.3068,3.5228,0.0,3.7186,3.8843,3.9973,4.0526,4.0971,4.1605,4.2183,4.271,4.1305,3.8223,3.8223,3.6694,3.4101,3.4531,3.498,3.5527,3.6797,3.7031,3.6816,3.8105,3.8301,3.7988,6.8064,6.8774,6.9519,7.0737,7.1142,7.1312,7.1312,7.1312,7.1312,7.1312,7.2394,7.2868,7.2124,7.2902,7.3308,0.0,7.3916,7.4187,0.0,7.4052,7.4289,7.351,7.3274,7.2902,7.2428,7.1954,7.0601,6.8368,0.0,0.0,0.0,6.0482,5.8975,5.7549,5.7642,5.7191,5.6447,5.6902,5.6985,5.6837,5.7359,5.7633,5.7782,5.7782,5.8201,5.871,5.8022,5.8351,5.9129,5.9368,6.0057,6.0894,6.1583,6.1613,6.1642,6.275,6.275,6.251,6.2959,6.3079,6.3079,6.3079,6.3079,6.3079,6.3079,6.257,6.1702,6.0356,6.0086,5.9757,5.865,5.8261,5.7001,5.3598,0.0,0.0,0.0,0.0,0.0,0.0,3.6684,3.5906,0.0,3.5378,0.0,0.0,0.0,0.0,0.0,0.0,0.0,0.0,3.5253,0.0,3.7739,3.9044,4.0149,4.1078,4.1254,4.1831,4.271,4.2886,4.1384,3.8739,3.8739,3.7252,3.498,3.5117,3.5605,3.6328,3.7031,3.7383,3.7617,3.832,3.8496,3.8379,6.9992,7.0398,7.077,7.1244,7.1312,7.1312,7.1312,7.1312,7.1312,7.1312,7.2326,7.3003,7.2834,7.3477,0.0,7.351,7.4424,0.0,7.395,7.4593,7.4796,7.4322,7.4052,7.3713,7.324,0.0,0.0,7.0331,6.9214,6.732,6.4749,6.37,6.2367,6.0865,6.1599,6.115,5.9804,6.0412,5.9948,5.8882,5.9112,5.9017,5.883,5.859,5.9069,5.9757,5.9099,5.9129,5.9578,6.0236,6.0595,6.0835,6.1523,6.1433,6.1373,6.269,6.278,6.254,6.2959,6.3079,6.3079,6.3079,6.3079,6.3079,6.3079,6.257,6.1792,6.0685,6.0266,5.9668,5.8381,5.7723,5.6571,5.4199,0.0,4.8752,4.5261,0.0,0.0,0.0,0.0,0.0,0.0,3.6157,0.0,0.0,0.0,0.0,0.0,0.0,0.0,3.5002,3.578,0.0,3.8316,3.9446,4.045,4.1354,4.1756,4.2434,4.3288,4.3288,4.2141,4.0106,3.9498,3.81,3.6282,3.5638,3.5801,3.6484,3.707,3.7461,3.7754,3.8359,3.8574,3.8555,7.0263,7.0838,0.0,0.0,7.1312,0.0,7.1312,7.1312,7.1312,7.1312,7.1954,7.2665,7.3409,7.4153,7.439,7.3781,0.0,0.0,0.0,7.5337,7.5709,7.5709,7.5033,0.0,7.4627,7.3206,7.2428,7.2326,6.9519,6.776,6.7015,6.5628,6.4952,6.4952,6.5628,6.4874,6.333,6.4563,6.3318,6.0508,6.0998,6.0744,6.0086,5.9488,6.0027,6.1044,6.0386,6.0146,6.0266,6.0954,6.0745,6.0356,6.1044,6.1253,6.1493,6.266,6.3019,6.3019,6.3079,6.3079,6.3079,6.3079,6.3079,6.3079,6.3079,6.26,6.1972,6.1253,6.0595,5.9727,5.8321,5.7034,5.5897,5.5119,5.1248,4.7788,4.5818,0.0,0.0,0.0,0.0,0.0,0.0,3.7663,3.7337,0.0,0.0,0.0,0.0,0.0,3.5629,3.5604,3.6659,3.7789,3.8919,3.9973,4.0802,4.1404,4.2509,4.3313,4.379,4.384,4.3308,4.2233,4.0609,3.9286,3.7947,3.6323,3.5818,3.6269,3.6934,3.7285,3.7441,3.8242,3.8535,3.8476,0.0,0.0,7.1312,7.1312,7.1312,7.1312,7.1312,7.1312,7.1312,7.1312,7.1954,7.2665,7.3409,7.4153,7.4999,7.6014,7.5845,7.5879,7.6318,7.5946,7.5709,7.5709,7.554,7.5168,7.4627,7.3713,7.2699,7.1582,7.0872,7.0128,6.9383,6.9045,6.8571,6.803,6.8233,6.7993,6.7564,6.6875,6.5573,6.3885,6.2924,6.1875,6.0864,6.0715,6.0835,6.1104,6.0924,6.0864,6.0984,6.1642,6.1762,6.1732,6.2421,6.26,6.257,6.2391,6.2331,6.245,6.2929,6.3079,6.3079,6.3079,6.3079,6.3079,6.3079,6.2959,6.251,6.1343,6.0984,6.0146,5.7782,5.6705,5.5448,5.3264,5.1095,4.8623,4.526,4.3216,4.1179,0.0,3.8266,3.7965,3.7814,3.7538,3.7387,0.0,0.0,0.0,0.0,0.0,3.6609,3.6182,3.7236,3.8366,3.9496,4.0174,4.1003,4.1982,4.3087,4.3689,4.3815,4.4242,4.3875,4.2756,4.2268,4.1558,4.0232,3.8582,3.8058,3.8356,3.7252,3.7207,3.7793,3.8008,3.8086,3.8105,7.1312,7.1312,7.1312,7.1312,7.1312,7.1312,7.1312,7.1312,7.1312,7.1312,7.1954,7.2665,7.3409,7.4153,7.5236,7.6758,7.6149,7.6048,7.686,7.6149,7.5709,7.5709,7.5709,7.5506,7.51,7.439,7.3274,7.1819,7.1819,7.1447,7.0703,7.0703,7.0297,6.962,6.9958,6.9722,6.9026,6.873,6.7184,6.5016,6.4279,6.307,6.1523,6.1224,6.1493,6.1972,6.1672,6.1553,6.1672,6.2331,6.2151,6.1762,6.2421,6.263,6.257,6.2211,6.2301,6.263,6.2989,6.3079,6.3079,6.3079,6.3079,6.3079,6.3079,6.2839,6.2331,6.1313,6.0864,5.9907,5.7543,5.6107,5.461,5.2546,5.0601,4.811,4.459,4.3266,4.1666,3.8791,3.8442,3.8291,3.804,3.8216,3.8241,3.8015,0.0,0.0,3.7111,3.7387,3.7312,3.6759,3.8065,3.9195,4.0074,4.0877,4.1681,4.2534,4.3388,4.394,4.4192,4.4769,4.4824,4.4451,4.3549,4.295,4.2224,3.9864,3.8933,3.8749,3.747,3.7226,3.7637,3.7637,3.7891,3.8203,7.1345,7.1413,7.1481,7.1481,7.1379,7.1379,7.1616,7.1447,7.1345,7.1447,7.2022,7.2665,7.3409,7.4153,7.5236,7.6758,7.6149,7.6082,7.6995,7.6217,7.5743,7.5879,7.5879,7.5811,7.5709,7.4999,7.395,7.2563,7.2563,7.2259,7.165,7.1548,7.1142,7.0534,7.1075,7.0601,6.9485,7.0094,6.8467,6.5436,6.5436,6.4171,6.2181,6.1613,6.2121,6.3019,6.245,6.2241,6.2331,6.2899,6.2331,6.1493,6.2061,6.2241,6.2241,6.2241,6.263,6.3079,6.3079,6.3079,6.3079,6.3079,6.3079,6.3079,6.3079,6.257,6.1912,6.1253,6.0565,5.9488,5.7453,5.5508,5.3743,5.2276,4.9942,4.7258,4.4312,0.0,4.1815,3.8987,3.8919,3.8969,3.8542,3.9295,3.9421,3.8467,3.8241,0.0,0.0,3.8216,3.804,3.7588,3.9044,4.0124,4.0752,4.1856,4.2635,4.3112,4.374,4.4292,4.4769,4.5347,4.5874,4.618,4.484,4.4223,4.4022,4.1263,3.9811,3.9136,3.8004,3.7547,3.7383,3.7324,3.7793,3.8379,7.1548,7.1819,7.2225,7.2225,7.1718,7.1718,7.2969,7.209,7.1548,7.2157,7.2326,7.2665,7.3409,7.4153,7.5236,7.6758,7.6149,7.6318,7.7739,7.6487,7.6014,7.669,7.6724,7.6386,7.5709,7.4999,7.4187,7.3308,7.3308,7.324,7.3138,7.2529,7.2157,7.2022,7.1548,7.1176,7.0973,7.1075,6.9528,6.6844,6.6844,6.5295,6.2899,6.281,6.2899,6.3079,6.2959,6.2929,6.2929,6.3049,6.2929,6.278,6.2899,6.2929,6.2929,6.2929,6.2989,6.3079,6.3079,6.3079,6.3079,6.3079,6.3079,6.3079,6.3079,6.257,6.1912,6.1253,6.0565,5.9488,5.7453,5.5508,5.3593,5.1678,4.9643,4.7555,4.5384,0.0,4.293,4.1813,4.0875,4.04,4.0777,4.0551,4.0325,4.0149,3.927,3.8743,3.8743,3.917,3.9396,3.9295,3.9998,4.0877,4.1882,4.2986,4.3589,4.3689,4.4719,4.5271,4.5372,4.5924,4.6225,4.6326,4.6534,4.6611,4.6513,4.5071,4.351,4.1839,3.9884,3.8523,3.7773,3.7422,3.7598,3.8066,7.209,7.2293,7.2428,7.1921,7.2428,7.2902,7.2902,7.2665,7.2597,7.2935,7.3341,7.3713,7.4052,7.4762,7.5473,7.6183,7.5912,7.6352,7.7874,7.6961,7.6521,7.6893,7.7266,7.713,7.6352,7.6014,7.527,7.4086,7.4086,7.3883,7.3477,7.3138,7.2969,7.2969,7.2225,7.1887,7.1762,7.0649,6.9024,6.7164,6.6365,6.4923,6.3079,6.3079,6.3079,6.3079,6.3079,6.3079,6.3079,6.3079,6.3079,6.3079,6.3079,6.3079,6.3079,6.3079,6.3079,6.3079,6.3079,6.3079,6.3079,6.3079,6.3079,6.3079,6.3079,6.257,6.1912,6.1253,6.0565,5.9488,5.7453,5.5209,5.3473,5.2935,4.939,0.0,0.0,4.4581,4.2744,4.2435,4.1567,4.1053,4.1304,4.1103,4.0953,4.0953,4.0199,3.9898,4.0199,4.0149,4.04,4.1003,4.1279,4.1781,4.2585,4.3388,4.379,4.3815,4.4945,4.5497,4.5497,4.605,4.6301,4.6351,4.6903,4.7129,4.7057,4.6038,4.4984,4.3433,4.0839,3.9392,3.8748,3.7509,3.7519,3.8242,7.3105,7.3071,7.2969,7.2225,7.3206,7.3849,7.3037,7.3105,7.3308,7.3477,7.3984,7.4424,7.4593,7.527,7.5709,7.5709,7.5879,7.6487,7.7671,7.7536,7.7401,7.7401,7.7773,7.7807,7.7435,7.7063,7.6318,7.5134,7.4965,7.4559,7.3984,7.3646,7.3477,7.3443,7.2563,7.2157,7.1999,7.0054,6.8405,6.7061,6.562,6.432,6.3079,6.3079,6.3079,6.3079,6.3079,6.3079,6.3079,6.3079,6.3079,6.3079,6.3079,6.3079,6.3079,6.3079,6.3079,6.3079,6.3079,6.3079,6.3079,6.3079,6.3079,6.3079,6.3079,6.257,6.1942,6.1433,6.0685,5.9578,5.7872,5.5538,5.3832,5.3743,0.0,0.0,0.0,4.5191,4.2998,4.3424,4.2471,4.1756,4.1907,4.1907,4.1806,4.1555,4.1128,4.1028,4.1329,4.1053,4.1404,4.2509,4.2409,4.261,4.3162,4.3714,4.4066,4.4217,4.5196,4.5673,4.5698,4.6125,4.6301,4.6351,4.7029,4.7305,4.7257,4.6907,4.6117,4.4664,4.2015,4.0541,3.9813,3.7749,3.7637,3.8476,7.4728,7.4458,7.4458,7.439,7.3916,7.3747,7.4356,7.3308,7.2732,7.3409,7.3544,7.3849,7.4525,7.527,7.5709,7.5709,7.6386,7.686,7.6961,7.8213,7.8957,7.8957,7.8348,7.828,7.8923,7.7604,7.6826,7.6724,7.598,7.5574,7.5506,7.4119,7.3477,7.3443,7.2022,7.1379,7.1289,6.9855,6.8405,6.7061,6.562,6.432,6.3079,6.3079,6.3079,6.3079,6.3079,6.3079,6.3079,6.3079,6.3079,6.3079,6.3079,6.3079,6.3079,6.3079,6.3079,6.3079,6.3079,6.3079,6.3079,6.3079,6.3079,6.3079,6.3079,6.257,6.2091,6.2032,6.0984,5.9847,5.9099,5.7304,5.5149,5.2725,0.0,0.0,4.8477,4.5902,4.4727,4.6428,4.4405,4.3062,4.3564,4.3614,4.3187,4.2183,4.2057,4.1831,4.1354,4.1781,4.2534,4.3639,4.3187,4.3187,4.374,4.4292,4.4844,4.5372,4.5974,4.625,4.625,4.6301,4.6301,4.6376,4.7405,4.7857,4.7933,4.8935,4.7954,4.5704,4.3982,4.2108,4.0173,3.8525,3.8144,3.8555,7.5506,7.527,7.4999,7.4086,7.4424,7.4796,7.4627,7.4525,7.4559,7.483,7.4864,7.4965,7.5236,7.554,7.5709,7.5709,7.6454,7.7096,7.7536,7.8551,7.9295,7.9769,7.9498,7.9295,7.9126,7.8111,7.7367,7.6893,7.6082,7.5709,7.5676,7.4661,7.4187,7.4119,7.2631,7.1988,7.1864,6.9091,6.7673,6.6958,6.4703,6.3592,6.3079,6.3079,6.3079,6.3079,6.3079,6.3079,6.3079,6.3079,6.3079,6.3079,6.3079,6.3079,6.3079,6.3079,6.3348,6.3647,6.3647,6.3378,6.3079,6.3079,6.3079,6.3079,6.3079,6.2869,6.26,6.2181,6.1702,6.1014,5.9907,5.8441,5.7034,5.6047,0.0,5.1081,5.1852,4.8993,4.7031,4.7488,4.6328,4.5175,4.4407,4.4317,4.3991,4.3237,4.3489,4.3288,4.2409,4.2886,4.3514,4.4292,4.4116,4.4091,4.4317,4.4869,4.5271,4.5497,4.605,4.6301,4.6301,4.6301,4.6301,4.6376,4.7431,4.7908,4.7983,4.9138,4.8853,4.7409,4.4585,4.297,4.1878,3.901,3.8203,3.8535,7.6589,7.6251,7.5676,7.439,7.5033,7.5439,7.4728,7.5033,7.5337,7.5337,7.5337,7.5439,7.5676,7.5709,7.5709,7.5709,7.6657,7.7468,7.7942,7.8923,7.9667,8.0175,8.0209,7.9972,7.9464,7.8483,7.7739,7.7232,7.6217,7.5709,7.5676,7.4965,7.4627,7.4559,7.3308,7.2631,7.2177,6.8958,6.7388,6.6958,6.4209,6.3079,6.3079,6.3079,6.3079,6.3079,6.3079,6.3199,6.3378,6.3378,6.3498,6.3677,6.3677,6.3677,6.3677,6.3677,6.3977,6.4306,6.4306,6.4006,6.3647,6.3438,6.3228,6.2933,6.2438,6.2701,6.2814,6.1845,6.1868,6.1822,6.0894,5.9817,5.88,5.7932,5.5219,5.3377,5.4122,5.1324,4.9078,4.8807,4.7781,4.6543,4.5011,4.4895,4.4669,4.4091,4.4418,4.4292,4.3539,4.384,4.4317,4.4869,4.4895,4.497,4.5146,4.5372,4.5497,4.5497,4.605,4.6301,4.6301,4.6301,4.6301,4.6376,4.7431,4.7908,4.7983,4.9138,4.9264,4.8507,4.5568,4.4029,4.2992,4.0,3.8878,3.8535,7.8145,7.7401,7.6657,7.5845,7.5709,7.5473,7.4728,7.4627,7.4627,7.4627,7.4627,7.4897,7.5642,7.5709,7.5709,7.5709,7.7096,7.801,7.801,7.9397,8.0209,8.0209,8.0209,8.0209,8.0209,7.8754,7.801,7.801,7.6454,7.5709,7.5709,7.4965,7.4627,7.4593,7.3815,7.3105,7.2211,6.9479,6.7939,6.6958,6.4209,6.3079,6.3079,6.3079,6.3079,6.3079,6.3079,6.3498,6.4006,6.4006,6.4455,6.5024,6.5024,6.5024,6.5024,6.5024,6.5024,6.5054,6.5054,6.5054,6.4874,6.4186,6.3528,6.2672,6.087,6.191,6.2555,6.087,6.138,6.2121,6.2121,6.1553,6.0236,5.7573,5.7124,5.6436,5.4521,5.2469,5.0976,5.0795,4.8996,4.7143,4.559,4.5497,4.5246,4.4669,4.4618,4.4618,4.4644,4.4644,4.4895,4.5472,4.5497,4.5748,4.6301,4.5773,4.5497,4.5497,4.605,4.6301,4.6301,4.6301,4.6301,4.6376,4.7456,4.7908,4.8008,4.9138,4.9264,4.8685,4.7292,4.5425,4.3173,4.186,4.0085,3.8574,7.9701,7.8517,7.7604,7.7333,7.642,7.5811,7.6149,7.5743,7.5574,7.6149,7.5709,7.5676,7.6454,7.6555,7.6555,7.6555,7.7908,7.8991,7.9498,7.9972,8.0209,8.0209,8.0209,8.0209,8.0209,7.9261,7.8788,7.8788,7.7773,7.7299,7.7299,7.6555,7.5912,7.5337,7.4593,7.3578,7.2303,7.0499,6.8723,6.7164,6.6259,6.4813,6.3164,6.4097,6.4175,6.3707,6.3707,6.4156,6.4725,6.4725,6.4844,6.5024,6.5024,6.5024,6.5024,6.5024,6.5353,6.5802,6.6281,6.6071,6.5562,6.4874,6.4216,6.359,6.3061,6.2999,6.2933,6.2409,6.2523,6.278,6.278,6.263,6.1912,6.0206,5.9518,5.865,5.7154,5.6035,5.4322,5.1711,5.0874,4.9408,4.6314,4.6075,4.5824,4.5271,4.4844,4.497,4.5773,4.5447,4.5497,4.605,4.6075,4.5949,4.5723,4.5949,4.6075,4.6075,4.6225,4.6301,4.6301,4.6301,4.6527,4.6928,4.7606,4.8134,4.856,4.9289,4.949,4.921,4.7437,4.6304,4.5383,4.2387,4.0921,4.0371,8.0412,7.9464,7.8686,7.8077,7.6995,7.6454,7.7198,7.6657,7.6454,7.7232,7.6893,7.6792,7.7266,7.7333,7.7333,7.7333,7.8416,7.9431,8.0141,8.0209,8.0209,8.0209,8.0209,8.0209,8.0209,7.9498,7.9126,7.9126,7.8348,7.7976,7.7976,7.7536,7.7063,7.6589,7.5845,7.483,7.3553,7.1615,6.9878,6.8363,6.7497,6.6417,6.5245,6.5435,6.5422,6.5238,6.4601,6.4844,6.5473,6.5712,6.5981,6.6131,6.5892,6.5802,6.5802,6.5802,6.6071,6.649,6.6879,6.67,6.6311,6.5892,6.4904,6.38,6.2765,6.2822,6.2933,6.2175,6.2672,6.3079,6.3079,6.3079,6.272,6.1672,6.0924,6.0116,5.9039,5.8082,5.6338,5.3329,5.224,5.0525,4.7468,4.6636,4.6175,4.5849,4.5497,4.5598,4.6276,4.5999,4.5974,4.6301,4.6301,4.615,4.5824,4.615,4.62,4.5999,4.62,4.6426,4.6652,4.6652,4.6928,4.7481,4.8008,4.846,4.8812,4.9364,4.959,4.9461,4.8347,4.7509,4.6398,4.3542,4.189,4.1063,8.0682,8.0412,7.9938,7.845,7.757,7.7333,7.7976,7.7468,7.7266,7.7976,7.8044,7.801,7.8077,7.8077,7.8077,7.8077,7.8788,7.9498,8.0175,8.0209,8.0209,8.0209,8.0209,8.0209,8.0209,7.9532,7.9194,7.9194,7.8517,7.8179,7.8179,7.8179,7.8145,7.8044,7.7333,7.6521,7.5512,7.2941,7.1226,7.0108,6.8331,6.792,6.8052,6.6946,6.6869,6.7237,6.5936,6.5861,6.6403,6.6789,6.7418,6.7867,6.7268,6.7089,6.7089,6.7148,6.7178,6.7178,6.7238,6.7208,6.7148,6.7089,6.5652,6.3683,6.1459,6.2027,6.2731,6.1019,6.2028,6.3079,6.3079,6.3079,6.2869,6.2271,6.1642,6.0984,6.0356,5.9129,5.7458,5.5314,5.3163,5.0921,4.8779,4.7231,4.6301,4.6301,4.6301,4.6301,4.6301,4.6301,4.6301,4.6301,4.6301,4.6326,4.6376,4.6376,4.61,4.5573,4.6125,4.6652,4.7129,4.7179,4.7481,4.8008,4.8535,4.8786,4.8887,4.9389,4.959,4.959,4.959,4.8608,4.6822,4.505,4.3127,4.1347,8.2205,8.1934,8.146,7.9972,7.9126,7.8686,7.8855,7.8247,7.801,7.8754,7.8348,7.8213,7.8822,7.8855,7.8855,7.8855,7.9532,8.004,8.0175,8.0209,8.0209,8.0209,8.0209,8.0209,8.0209,8.004,7.9972,7.9972,7.9803,7.9701,7.9701,7.9701,7.9397,7.8822,7.8077,7.6995,7.5642,7.4444,7.2534,7.0369,7.0975,6.9713,6.7555,6.8918,6.9156,6.8913,6.9128,6.8933,6.8347,6.7396,6.7418,6.7956,6.7807,6.7747,6.7867,6.8405,6.8555,6.8675,6.9183,6.8944,6.8435,6.7897,6.7059,6.589,6.4337,6.3921,6.3531,6.2644,6.2817,6.3079,6.3079,6.3079,6.3019,6.2899,6.2301,6.1822,6.1672,6.0505,5.8821,5.6756,5.4177,5.1665,4.9478,4.7462,4.6301,4.6301,4.6301,4.6301,4.6301,4.6301,4.6301,4.6301,4.6301,4.6527,4.6954,4.6954,4.6677,4.6125,4.6702,4.7029,4.7154,4.7556,4.8058,4.8586,4.8711,4.9012,4.9414,4.954,4.959,4.959,4.959,4.9307,4.8763,4.6955,4.505,4.301,8.3152,8.2915,8.2475,8.0987,8.0107,7.9634,7.9634,7.8991,7.8788,7.9532,7.9295,7.9194,7.96,7.9634,7.9634,7.9634,8.031,8.0581,8.0209,8.0513,8.0547,8.0209,8.0209,8.0209,8.0209,8.0209,8.0209,8.0209,8.0209,8.0209,8.0209,8.0209,8.0006,7.96,7.8483,7.7536,7.669,7.5236,7.371,7.23,7.2355,7.152,7.0239,7.0271,7.0433,7.0766,7.0385,7.0567,7.0412,6.8654,6.8758,6.9397,6.8295,6.8196,6.8525,6.8884,6.9004,6.9064,6.9423,6.9273,6.8914,6.8555,6.7956,6.6939,6.4994,6.4246,6.3827,6.3199,6.3079,6.3079,6.3079,6.3079,6.3079,6.3079,6.254,6.2091,6.2091,6.0924,5.9236,5.7049,5.4599,5.1836,4.8677,4.7313,4.6702,4.6702,4.6451,4.6527,4.7054,4.6828,4.6828,4.7079,4.6828,4.6954,4.7506,4.7255,4.7104,4.7079,4.7355,4.7657,4.7933,4.8184,4.8636,4.9163,4.9163,4.9339,4.959,4.959,4.959,4.959,4.959,4.959,4.9307,4.7509,4.5027,4.2452,8.3625,8.3592,8.3219,8.1731,8.1088,8.0682,8.0412,7.987,7.9667,8.0141,8.0209,8.0209,8.0209,8.0209,8.0209,8.0209,8.0851,8.0987,8.0242,8.0885,8.1021,8.0412,8.0276,8.0242,8.0378,8.0276,8.0209,8.0209,8.0209,8.0209,8.0209,8.0209,8.0141,7.9938,7.8585,7.7908,7.7671,7.5642,7.4661,7.4322,7.3071,7.28,7.2945,7.1213,7.1357,7.2316,7.1324,7.18,7.2458,7.0306,7.0334,7.0915,6.9092,6.8835,6.9183,6.9303,6.9333,6.9333,6.9333,6.9243,6.9123,6.9034,6.8495,6.7328,6.4904,6.4246,6.4006,6.3378,6.3139,6.2963,6.2672,6.2933,6.2933,6.2672,6.2485,6.2271,6.2271,6.1104,5.9444,5.7338,5.4678,5.1347,4.745,4.7054,4.7004,4.7004,4.6577,4.6728,4.7732,4.7355,4.738,4.7883,4.7481,4.7531,4.8058,4.7631,4.7682,4.8184,4.8184,4.8385,4.8761,4.8862,4.9163,4.959,4.959,4.959,4.959,4.959,4.959,4.959,4.959,4.959,4.9307,4.7509,4.4891,4.215,8.3625,8.4031,8.3998,8.2509,8.2712,8.2611,8.1325,8.1054,8.0784,8.0276,8.0209,8.0209,8.0209,8.0209,8.0209,8.0209,8.0851,8.0987,8.0242,8.0885,8.1257,8.1156,8.0547,8.0479,8.1122,8.0513,8.0209,8.0209,8.0209,8.0209,8.0209,8.0209,7.987,7.9228,7.8348,7.7638,7.6961,7.598,7.4796,7.3612,7.3409,7.2631,7.165,7.1975,7.222,7.2557,7.3615,7.414,7.3861,7.1862,7.1111,7.1096,7.0915,7.031,6.9961,7.05,7.0649,7.0649,7.0649,7.026,6.9722,6.9153,6.8495,6.7567,6.6071,6.5293,6.4695,6.4006,6.3438,6.2672,6.1139,6.2028,6.2555,6.1139,6.2086,6.2929,6.2929,6.1822,6.0304,5.861,5.3882,4.9782,4.7302,4.6702,4.6426,4.6426,4.6351,4.6577,4.7205,4.7179,4.738,4.7883,4.7832,4.8083,4.8661,4.8586,4.8812,4.9364,4.9364,4.9163,4.8786,4.9264,4.9515,4.959,4.959,4.959,4.959,4.959,4.959,4.959,4.959,4.959,4.9307,4.7509,4.6532,4.5569,8.42,8.4403,8.4268,8.3219,8.3287,8.3152,8.2069,8.1562,8.1156,8.0851,8.0445,8.0209,8.0209,8.0209,8.0209,8.0209,8.0851,8.0987,8.0242,8.0885,8.1088,8.0682,8.0378,8.0344,8.0682,8.075,8.0615,8.0209,8.0209,8.0209,8.0209,8.0209,7.9803,7.9092,7.8314,7.757,7.686,7.6048,7.4888,7.3538,7.3105,7.2018,7.0699,7.0207,7.0272,7.0963,7.2843,7.3409,7.3332,7.2809,7.2536,7.2212,7.1453,7.0923,7.056,7.0829,7.0889,7.0829,7.044,7.0171,6.9812,6.9153,6.8495,6.7807,6.7238,6.6311,6.5263,6.4216,6.3498,6.2555,6.087,6.1139,6.1139,5.938,6.0508,6.1644,6.1644,6.0853,5.9013,5.574,5.1874,4.9004,4.7606,4.7079,4.6778,4.6778,4.6778,4.7154,4.8008,4.8058,4.8309,4.8837,4.856,4.8661,4.9213,4.8937,4.9063,4.959,4.959,4.9464,4.9238,4.949,4.959,4.959,4.959,4.959,4.959,4.959,4.959,4.959,4.959,4.959,4.9461,4.8608,4.7641,4.6351]},{"header":{"parameterUnit":"m.s-1","parameterCategory":1,"la1":30.6,"la2":28.766,"lo1":-90.7593,"lo2":-88.6598,"dy":0.0162,"dx":0.0183,"nx":116,"ny":114,"refTime":"2024-04-11T06:00:00:Z","depth":0,"parameterNumber":3,"parameterNumberName":"V-component_of_WINDS"},"data":[0.0,0.0,0.0,0.0,0.0,0.0,0.0,0.0,0.0,0.0,0.0,0.0,0.0,0.0,0.0,0.0,0.0,0.0,0.0,0.0,0.0,0.0,0.0,0.0,0.0,0.0,0.0,0.0,0.0,0.0,0.0,0.0,0.0,0.0,0.0,0.0,0.0,0.0,0.0,0.0,0.0,0.0,0.0,0.0,0.0,0.0,0.0,0.0,0.0,0.0,0.0,0.0,0.0,0.0,0.0,0.0,0.0,0.0,0.0,0.0,0.0,0.0,0.0,0.0,0.0,0.0,0.0,0.0,0.0,0.0,0.0,0.0,0.0,0.0,0.0,0.0,0.0,0.0,0.0,0.0,0.0,0.0,0.0,0.0,0.0,0.0,0.0,0.0,0.0,0.0,0.0,0.0,0.0,0.0,0.0,0.0,0.0,0.0,0.0,0.0,0.0,0.0,0.0,0.0,0.0,0.0,0.0,0.0,0.0,0.0,0.0,0.0,0.0,0.0,0.0,0.0,0.0,0.0,0.0,0.0,0.0,0.0,0.0,0.0,0.0,0.0,0.0,0.0,0.0,0.0,0.0,0.0,0.0,0.0,0.0,0.0,0.0,0.0,0.0,0.0,0.0,0.0,0.0,0.0,0.0,0.0,0.0,0.0,0.0,0.0,0.0,0.0,0.0,0.0,0.0,0.0,0.0,0.0,0.0,0.0,0.0,0.0,0.0,0.0,0.0,0.0,0.0,0.0,0.0,0.0,0.0,0.0,0.0,0.0,0.0,0.0,0.0,0.0,0.0,0.0,0.0,0.0,0.0,0.0,0.0,0.0,0.0,0.0,0.0,0.0,0.0,0.0,0.0,0.0,0.0,0.0,0.0,0.0,0.0,0.0,0.0,0.0,0.0,0.0,0.0,0.0,0.0,0.0,0.0,0.0,0.0,0.0,0.0,0.0,0.0,0.0,0.0,0.0,0.0,0.0,0.0,0.0,0.0,0.0,0.0,0.0,0.0,0.0,0.0,0.0,0.0,0.0,0.0,0.0,0.0,0.0,0.0,0.0,0.0,0.0,0.0,0.0,0.0,0.0,0.0,0.0,0.0,0.0,0.0,0.0,0.0,0.0,0.0,0.0,0.0,0.0,0.0,0.0,0.0,0.0,0.0,0.0,0.0,0.0,0.0,0.0,0.0,0.0,0.0,0.0,0.0,0.0,0.0,0.0,0.0,0.0,0.0,0.0,0.0,0.0,0.0,0.0,0.0,0.0,0.0,0.0,0.0,0.0,0.0,0.0,0.0,0.0,0.0,0.0,0.0,0.0,0.0,0.0,0.0,0.0,0.0,0.0,0.0,0.0,0.0,0.0,0.0,0.0,0.0,0.0,0.0,0.0,0.0,0.0,0.0,0.0,0.0,0.0,0.0,0.0,0.0,0.0,0.0,0.0,0.0,0.0,0.0,0.0,0.0,0.0,0.0,0.0,0.0,0.0,0.0,0.0,0.0,0.0,0.0,0.0,0.0,0.0,0.0,0.0,0.0,0.0,0.0,0.0,0.0,0.0,0.0,0.0,0.0,0.0,0.0,0.0,0.0,0.0,0.0,0.0,0.0,0.0,0.0,0.0,0.0,0.0,0.0,0.0,0.0,0.0,0.0,0.0,0.0,0.0,0.0,0.0,0.0,0.0,0.0,0.0,0.0,0.0,0.0,0.0,0.0,0.0,0.0,0.0,0.0,0.0,0.0,0.0,0.0,0.0,0.0,0.0,0.0,0.0,0.0,0.0,0.0,0.0,0.0,0.0,0.0,0.0,0.0,0.0,0.0,0.0,0.0,0.0,0.0,0.0,0.0,0.0,0.0,0.0,0.0,0.0,0.0,0.0,0.0,0.0,0.0,0.0,0.0,0.0,0.0,0.0,0.0,0.0,0.0,0.0,0.0,0.0,0.0,0.0,0.0,0.0,0.0,0.0,0.0,0.0,0.0,0.0,0.0,0.0,0.0,0.0,0.0,0.0,0.0,0.0,0.0,0.0,0.0,0.0,0.0,0.0,0.0,0.0,0.0,0.0,0.0,0.0,0.0,0.0,0.0,0.0,0.0,0.0,0.0,0.0,0.0,0.0,0.0,0.0,0.0,0.0,0.0,0.0,0.0,0.0,0.0,0.0,0.0,0.0,0.0,0.0,0.0,0.0,0.0,0.0,0.0,0.0,0.0,0.0,0.0,0.0,0.0,0.0,0.0,0.0,0.0,0.0,0.0,0.0,0.0,0.0,0.0,0.0,0.0,0.0,0.0,0.0,0.0,0.0,0.0,0.0,0.0,0.0,0.0,0.0,0.0,0.0,0.0,0.0,0.0,0.0,0.0,0.0,0.0,0.0,0.0,0.0,0.0,0.0,0.0,0.0,0.0,0.0,0.0,0.0,0.0,0.0,0.0,0.0,0.0,0.0,0.0,0.0,0.0,0.0,0.0,0.0,0.0,0.0,0.0,0.0,0.0,0.0,0.0,0.0,0.0,0.0,0.0,0.0,0.0,0.0,0.0,0.0,0.0,0.0,0.0,0.0,0.0,0.0,0.0,0.0,0.0,0.0,0.0,0.0,0.0,0.0,0.0,0.0,0.0,0.0,0.0,0.0,0.0,0.0,0.0,0.0,0.0,0.0,0.0,0.0,0.0,0.0,0.0,0.0,0.0,0.0,0.0,0.0,0.0,0.0,0.0,0.0,0.0,0.0,0.0,0.0,0.0,0.0,0.0,0.0,0.0,0.0,0.0,0.0,0.0,0.0,0.0,0.0,0.0,0.0,0.0,0.0,0.0,0.0,0.0,0.0,0.0,0.0,0.0,0.0,0.0,0.0,0.0,0.0,0.0,0.0,0.0,0.0,0.0,0.0,0.0,0.0,0.0,0.0,0.0,0.0,0.0,0.0,0.0,0.0,0.0,0.0,0.0,0.0,0.0,0.0,0.0,0.0,0.0,0.0,0.0,0.0,0.0,0.0,0.0,0.0,0.0,0.0,0.0,0.0,0.0,0.0,0.0,0.0,0.0,0.0,0.0,0.0,0.0,0.0,0.0,0.0,0.0,0.0,0.0,0.0,0.0,0.0,0.0,0.0,0.0,0.0,0.0,0.0,0.0,0.0,0.0,0.0,0.0,0.0,0.0,0.0,0.0,0.0,0.0,0.0,0.0,0.0,0.0,0.0,0.0,0.0,0.0,0.0,0.0,0.0,0.0,0.0,0.0,0.0,0.0,0.0,0.0,0.0,0.0,0.0,0.0,0.0,0.0,0.0,0.0,0.0,0.0,0.0,0.0,0.0,0.0,0.0,0.0,0.0,0.0,0.0,0.0,0.0,0.0,0.0,0.0,0.0,0.0,0.0,0.0,0.0,0.0,0.0,0.0,0.0,0.0,0.0,0.0,0.0,0.0,0.0,0.0,0.0,0.0,0.0,0.0,0.0,0.0,0.0,0.0,0.0,0.0,0.0,0.0,0.0,0.0,0.0,0.0,0.0,0.0,0.0,0.0,0.0,0.0,0.0,0.0,0.0,0.0,0.0,0.0,0.0,0.0,0.0,0.0,0.0,0.0,0.0,0.0,0.0,0.0,0.0,0.0,0.0,0.0,0.0,0.0,0.0,0.0,0.0,0.0,0.0,0.0,0.0,0.0,0.0,0.0,0.0,0.0,0.0,0.0,0.0,0.0,0.0,0.0,0.0,0.0,0.0,0.0,0.0,0.0,0.0,0.0,0.0,0.0,0.0,0.0,0.0,0.0,0.0,0.0,0.0,0.0,0.0,0.0,0.0,0.0,0.0,0.0,0.0,0.0,0.0,0.0,0.0,0.0,0.0,0.0,0.0,0.0,0.0,0.0,0.0,0.0,0.0,0.0,0.0,0.0,0.0,0.0,0.0,0.0,0.0,0.0,0.0,0.0,0.0,0.0,0.0,0.0,0.0,0.0,0.0,0.0,0.0,0.0,0.0,0.0,0.0,0.0,0.0,0.0,0.0,0.0,0.0,0.0,0.0,0.0,0.0,0.0,0.0,0.0,0.0,0.0,0.0,0.0,0.0,0.0,0.0,0.0,0.0,0.0,0.0,0.0,0.0,0.0,0.0,0.0,0.0,0.0,0.0,0.0,0.0,0.0,0.0,0.0,0.0,0.0,0.0,0.0,0.0,0.0,0.0,0.0,0.0,0.0,0.0,0.0,0.0,0.0,0.0,0.0,0.0,0.0,0.0,0.0,0.0,0.0,0.0,0.0,0.0,0.0,0.0,0.0,0.0,0.0,0.0,0.0,0.0,0.0,0.0,0.0,0.0,0.0,0.0,0.0,0.0,0.0,0.0,0.0,0.0,0.0,0.0,0.0,0.0,0.0,0.0,0.0,0.0,0.0,0.0,0.0,0.0,0.0,0.0,0.0,0.0,0.0,0.0,0.0,0.0,0.0,0.0,0.0,0.0,0.0,0.0,0.0,0.0,0.0,0.0,0.0,0.0,0.0,0.0,0.0,0.0,0.0,0.0,0.0,0.0,0.0,0.0,0.0,0.0,0.0,0.0,0.0,0.0,0.0,0.0,0.0,0.0,0.0,0.0,0.0,0.0,0.0,0.0,0.0,0.0,0.0,0.0,0.0,0.0,0.0,0.0,0.0,0.0,0.0,0.0,0.0,0.0,0.0,0.0,0.0,0.0,0.0,0.0,0.0,0.0,0.0,0.0,0.0,0.0,0.0,0.0,0.0,0.0,0.0,0.0,0.0,0.0,0.0,0.0,0.0,0.0,0.0,0.0,0.0,0.0,0.0,0.0,0.0,0.0,0.0,0.0,0.0,0.0,0.0,0.0,0.0,0.0,0.0,0.0,0.0,0.0,0.0,0.0,0.0,0.0,0.0,0.0,0.0,0.0,0.0,0.0,0.0,0.0,0.0,0.0,0.0,0.0,0.0,0.0,0.0,0.0,0.0,0.0,0.0,0.0,0.0,0.0,0.0,0.0,0.0,0.0,0.0,0.0,0.0,0.0,0.0,0.0,0.0,0.0,0.0,0.0,0.0,0.0,0.0,0.0,0.0,0.0,0.0,0.0,0.0,0.0,0.0,0.0,0.0,0.0,0.0,0.0,0.0,0.0,0.0,0.0,0.0,0.0,0.0,0.0,0.0,0.0,0.0,0.0,0.0,0.0,0.0,0.0,0.0,0.0,0.0,0.0,0.0,0.0,0.0,0.0,0.0,0.0,0.0,0.0,0.0,0.0,0.0,0.0,0.0,0.0,0.0,0.0,0.0,0.0,0.0,0.0,0.0,0.0,0.0,0.0,0.0,0.0,0.0,0.0,0.0,0.0,0.0,0.0,0.0,0.0,0.0,0.0,0.0,0.0,0.0,0.0,0.0,0.0,0.0,0.0,0.0,0.0,0.0,0.0,0.0,0.0,0.0,0.0,0.0,0.0,0.0,0.0,0.0,0.0,0.0,0.0,0.0,0.0,0.0,0.0,0.0,0.0,0.0,0.0,0.0,0.0,0.0,0.0,0.0,0.0,0.0,0.0,0.0,0.0,0.0,0.0,0.0,0.0,0.0,0.0,0.0,0.0,0.0,0.0,0.0,0.0,0.0,0.0,0.0,0.0,0.0,0.0,0.0,0.0,0.0,0.0,0.0,0.0,0.0,0.0,0.0,0.0,0.0,0.0,0.0,0.0,0.0,0.0,0.0,0.0,0.0,0.0,0.0,0.0,0.0,0.0,0.0,0.0,0.0,0.0,0.0,0.0,0.0,0.0,0.0,0.0,0.0,0.0,0.0,0.0,0.0,0.0,0.0,0.0,0.0,0.0,0.0,0.0,0.0,0.0,0.0,0.0,0.0,0.0,0.0,0.0,0.0,0.0,0.0,0.0,0.0,0.0,0.0,0.0,0.0,0.0,0.0,0.0,0.0,0.0,0.0,0.0,0.0,0.0,0.0,0.0,0.0,0.0,0.0,0.0,0.0,0.0,0.0,0.0,0.0,0.0,0.0,0.0,0.0,0.0,0.0,0.0,0.0,0.0,0.0,0.0,0.0,0.0,0.0,0.0,0.0,0.0,0.0,0.0,0.0,0.0,0.0,0.0,0.0,0.0,0.0,0.0,0.0,0.0,-3.8602,0.0,0.0,0.0,0.0,0.0,0.0,0.0,0.0,0.0,0.0,0.0,0.0,0.0,0.0,0.0,0.0,0.0,0.0,0.0,0.0,0.0,0.0,0.0,0.0,-3.7598,-3.7175,-3.5619,-3.5519,-3.5519,-3.5519,0.0,0.0,0.0,0.0,0.0,-3.6983,-3.7432,-3.7587,-3.7501,-3.7867,-3.8115,-3.8392,-3.8132,-3.8102,-3.8392,0.0,0.0,0.0,0.0,0.0,0.0,0.0,0.0,0.0,0.0,0.0,0.0,0.0,0.0,0.0,0.0,0.0,0.0,0.0,0.0,0.0,0.0,0.0,0.0,0.0,0.0,0.0,0.0,0.0,0.0,0.0,0.0,0.0,0.0,0.0,0.0,0.0,0.0,0.0,0.0,0.0,0.0,0.0,0.0,0.0,0.0,0.0,0.0,0.0,0.0,0.0,0.0,0.0,0.0,0.0,0.0,0.0,0.0,0.0,0.0,0.0,0.0,0.0,0.0,0.0,0.0,0.0,0.0,0.0,0.0,0.0,-4.0326,0.0,0.0,0.0,0.0,0.0,0.0,0.0,0.0,0.0,0.0,0.0,0.0,0.0,0.0,0.0,0.0,0.0,0.0,0.0,0.0,0.0,-3.8351,-3.768,-3.7738,-3.7183,-3.5799,-3.5759,-3.5848,-3.5848,-3.5848,0.0,0.0,0.0,-3.6926,-3.7554,-3.7584,-3.7584,-3.7584,-3.7823,-3.8579,-3.9876,-3.9634,-3.97,-3.9971,-3.888,0.0,0.0,0.0,0.0,0.0,0.0,0.0,0.0,0.0,0.0,0.0,0.0,0.0,0.0,0.0,0.0,0.0,0.0,0.0,0.0,0.0,0.0,0.0,0.0,0.0,0.0,0.0,0.0,0.0,0.0,0.0,0.0,0.0,0.0,0.0,0.0,0.0,0.0,0.0,0.0,0.0,0.0,0.0,0.0,0.0,0.0,0.0,0.0,0.0,0.0,0.0,0.0,0.0,0.0,0.0,0.0,0.0,0.0,0.0,0.0,0.0,0.0,0.0,0.0,-4.5777,-4.8039,-4.6977,-4.7484,-4.9108,-4.5332,-4.259,-4.0928,0.0,0.0,0.0,0.0,0.0,0.0,0.0,0.0,0.0,0.0,0.0,0.0,0.0,0.0,0.0,0.0,0.0,0.0,0.0,0.0,-3.6954,-3.6854,-3.7333,-3.7277,-3.6424,-3.6836,-3.7165,-3.7165,-3.7165,-3.7195,-3.7285,-3.7285,-3.7584,-3.8242,-3.8272,-3.8272,-3.8272,-3.9439,-4.0595,-4.1764,-4.2882,-4.3031,-4.2306,-3.8837,-3.8145,-3.9393,0.0,0.0,0.0,0.0,0.0,0.0,0.0,0.0,0.0,0.0,0.0,0.0,0.0,0.0,0.0,0.0,0.0,0.0,0.0,0.0,0.0,0.0,0.0,0.0,0.0,0.0,0.0,0.0,0.0,0.0,0.0,0.0,0.0,0.0,0.0,0.0,0.0,0.0,0.0,0.0,0.0,-3.4484,-3.6257,0.0,0.0,0.0,0.0,0.0,0.0,0.0,0.0,0.0,0.0,0.0,0.0,0.0,0.0,-4.3554,-4.5973,-4.7272,-4.7542,-4.8686,-4.9464,-4.9885,-5.0305,-5.0876,-5.1753,-5.1723,0.0,-4.5674,-4.4018,0.0,0.0,0.0,0.0,0.0,0.0,0.0,0.0,0.0,0.0,0.0,0.0,0.0,0.0,0.0,0.0,0.0,0.0,0.0,0.0,0.0,-3.8059,-3.7715,-3.6699,-3.774,-3.8206,-3.758,-3.8119,-3.8679,-3.911,-3.908,-3.9409,-4.0068,-3.9349,-3.875,-3.8335,-4.0771,-4.2166,-4.2592,-4.3177,-4.3652,-4.385,-4.1471,-4.0478,-4.0439,-3.8983,0.0,0.0,0.0,0.0,0.0,0.0,0.0,0.0,0.0,0.0,0.0,0.0,0.0,0.0,0.0,0.0,0.0,0.0,0.0,0.0,0.0,0.0,0.0,0.0,0.0,0.0,0.0,0.0,0.0,0.0,0.0,0.0,0.0,0.0,0.0,0.0,0.0,0.0,0.0,-3.6292,-3.631,-3.652,-3.792,-3.8807,0.0,0.0,0.0,0.0,0.0,0.0,0.0,0.0,0.0,-4.3304,-4.4849,-4.6237,-4.7638,-4.9523,-5.087,-5.1648,-5.3294,-5.4491,-5.5239,-5.5508,-5.6017,-5.6645,-5.6555,-5.5047,-5.2366,-4.8779,-4.6781,-4.5841,0.0,0.0,0.0,0.0,0.0,-4.7934,0.0,0.0,0.0,0.0,0.0,0.0,0.0,0.0,0.0,0.0,0.0,0.0,-3.8674,-3.8896,-3.8632,-3.771,-3.919,-3.9791,-3.8953,-3.9218,-3.9836,-4.083,-4.0905,-4.1205,-4.1863,-4.0753,-3.9935,-3.9534,-4.2241,-4.3721,-4.4178,-4.4547,-4.5187,-4.5969,-4.5106,-4.3855,-4.2342,-4.0298,-3.9362,-3.9135,0.0,0.0,0.0,0.0,0.0,0.0,0.0,0.0,0.0,0.0,0.0,0.0,0.0,0.0,0.0,0.0,0.0,0.0,0.0,0.0,0.0,0.0,0.0,0.0,0.0,0.0,0.0,0.0,0.0,0.0,0.0,0.0,0.0,0.0,0.0,0.0,0.0,-3.7838,-3.8039,-3.6836,-3.9282,-4.0562,0.0,0.0,0.0,0.0,0.0,0.0,-4.2965,-4.3784,-4.5274,-4.7758,-4.8805,-5.0182,-5.1977,-5.3653,-5.5059,-5.6256,-5.8022,-5.9488,-6.0625,-6.0625,-6.0894,-6.1313,-6.0835,-5.9967,-5.8471,-5.3533,-5.0577,-4.9157,-4.7782,-4.7663,-4.8135,-4.8247,-4.947,-5.114,0.0,0.0,0.0,0.0,0.0,0.0,0.0,0.0,0.0,0.0,0.0,-3.6546,-3.8399,-3.9616,-4.0275,-4.0106,-4.1561,-4.2365,-4.2081,-4.0531,-4.04,-4.2222,-4.2252,-4.2551,-4.321,-4.2495,-4.2414,-4.2983,-4.4108,-4.5789,-4.7728,-4.9022,-4.947,-4.9391,-4.9264,-4.7831,-4.5077,-4.2345,-4.1765,-4.2469,-4.0286,0.0,0.0,0.0,0.0,0.0,0.0,0.0,0.0,0.0,0.0,0.0,0.0,0.0,0.0,0.0,0.0,0.0,0.0,0.0,0.0,0.0,0.0,0.0,0.0,0.0,0.0,0.0,0.0,0.0,0.0,0.0,0.0,0.0,0.0,0.0,0.0,0.0,0.0,-3.7443,-4.0291,0.0,0.0,0.0,0.0,-4.3168,-4.3728,-4.4907,-4.6916,-4.8295,-4.9823,-5.1828,-5.3773,-5.5418,-5.6735,-5.9368,-6.1014,-6.1702,-6.3019,-6.4036,-6.4725,-6.4725,-6.4755,-6.4784,-6.4755,-6.4306,-6.3199,-5.7363,-5.4491,-5.3781,-5.2402,-5.2852,-5.3991,-5.245,-5.2943,-5.4176,0.0,0.0,0.0,0.0,0.0,0.0,-3.7246,-3.7516,-3.7748,-3.8401,-3.8383,-3.9059,-4.0931,-4.2213,-4.3084,-4.3398,-4.4255,-4.4276,-4.2858,-4.2637,-4.2867,-4.3542,-4.4027,-4.3731,-4.2669,-4.3234,-4.3328,-4.2902,-4.606,-4.7806,-4.86,-4.9722,-5.0611,-5.1222,-5.1574,-5.0996,-4.949,-4.6045,-4.3781,-4.2332,-4.0683,-3.9719,0.0,0.0,0.0,0.0,0.0,0.0,0.0,0.0,0.0,0.0,0.0,0.0,0.0,0.0,0.0,0.0,0.0,0.0,0.0,0.0,0.0,0.0,0.0,0.0,0.0,0.0,0.0,0.0,0.0,0.0,0.0,0.0,0.0,0.0,0.0,0.0,0.0,-4.294,-4.5693,0.0,0.0,-4.6581,-4.6701,-4.7166,-4.8173,-4.9643,-5.1648,-5.2995,-5.4999,-5.7842,-5.9039,-6.0446,-6.2181,-6.3139,-6.3737,-6.3977,-6.4455,-6.4994,-6.5682,-6.6101,-6.6281,-6.6281,-6.6281,-6.5922,-6.5084,-6.257,-5.9877,-5.7184,-5.5448,-5.481,-5.4956,-5.487,-5.5621,-5.6858,0.0,0.0,0.0,0.0,0.0,-3.5081,-3.6874,-3.7584,-3.7852,-3.7817,-3.8953,-4.0481,-4.226,-4.4338,-4.5756,-4.5989,-4.6661,-4.6229,-4.4125,-4.3493,-4.3437,-4.3913,-4.4323,-4.3947,-4.2377,-4.3901,-4.4596,-4.4215,-4.7339,-4.926,-4.9916,-5.0645,-5.1574,-5.2653,-5.303,-5.3206,-5.3055,-5.0469,-4.733,-4.4004,-4.2285,-4.1542,-4.134,0.0,0.0,0.0,0.0,0.0,0.0,0.0,0.0,0.0,0.0,0.0,0.0,0.0,0.0,0.0,0.0,0.0,0.0,0.0,0.0,0.0,0.0,0.0,0.0,0.0,0.0,0.0,0.0,0.0,0.0,0.0,0.0,0.0,0.0,0.0,-4.5031,-4.6741,-4.9883,-5.1738,-5.1289,-5.1259,-5.1349,-5.1588,-5.3025,-5.476,-5.6765,-5.8112,-5.9937,-6.2361,-6.2869,-6.3707,-6.5024,-6.5473,-6.5682,-6.5682,-6.5922,-6.637,-6.7029,-6.7238,-6.7328,-6.7328,-6.7328,-6.6939,-6.6281,-6.5383,-6.3468,-6.0954,-5.9398,-5.856,-5.8201,-5.8411,-5.9039,-5.9847,0.0,0.0,0.0,0.0,0.0,-3.4742,-3.552,-3.6907,-3.7369,-3.5796,-3.812,-4.057,-4.2303,-4.5992,-4.8272,-4.7978,-4.8719,-4.8242,-4.5888,-4.3021,-4.1959,-4.3313,-4.3313,-4.3063,-4.262,-4.4649,-4.6191,-4.7205,-4.8335,-4.9992,-5.2126,-5.2151,-5.2729,-5.3758,-5.3783,-5.4411,-5.544,-5.5491,-5.2678,-4.7983,-4.5146,-4.4622,-4.5135,0.0,0.0,0.0,0.0,0.0,0.0,0.0,0.0,0.0,0.0,0.0,0.0,0.0,0.0,0.0,0.0,0.0,0.0,0.0,0.0,0.0,0.0,0.0,0.0,0.0,0.0,0.0,0.0,0.0,0.0,0.0,0.0,0.0,-4.0539,-4.5218,-4.8523,-4.8535,-5.2576,-5.485,-5.3623,-5.467,-5.5718,-5.6406,-5.8231,-6.0176,-6.2151,-6.3408,-6.4395,-6.5114,-6.5114,-6.5114,-6.5144,-6.64,-6.7059,-6.7059,-6.7687,-6.8345,-6.8974,-6.8315,-6.8016,-6.8016,-6.7986,-6.7597,-6.6909,-6.5622,-6.5084,-6.4994,-6.4246,-6.3977,-6.3887,-6.3288,-6.3079,-6.3079,0.0,0.0,0.0,0.0,0.0,-3.4742,-3.552,-3.6907,-3.7536,-3.6525,-3.9622,-4.2567,-4.4349,-4.8027,-5.0613,-5.1128,-4.9937,-4.8165,-4.5758,-4.3358,-4.2885,-4.4578,-4.3714,-4.4095,-4.5962,-4.6861,-4.7825,-4.8912,-5.0444,-5.1699,-5.2703,-5.308,-5.3858,-5.4963,-5.5767,-5.6294,-5.662,-5.7449,-5.6771,-5.4762,-5.0368,-4.7982,-4.6925,0.0,0.0,0.0,0.0,0.0,0.0,0.0,0.0,0.0,0.0,0.0,0.0,0.0,0.0,0.0,0.0,0.0,0.0,0.0,0.0,0.0,0.0,0.0,0.0,0.0,0.0,0.0,0.0,0.0,0.0,0.0,0.0,-4.4098,-4.4007,-4.7292,-5.0968,-5.4251,-5.7064,-5.9159,-6.0236,-6.0685,-6.1373,-6.251,-6.3528,-6.4575,-6.5592,-6.5533,-6.5981,-6.7119,-6.67,-6.6909,-6.7897,-6.8286,-6.8435,-6.8435,-6.8645,-6.8824,-6.9004,-6.8794,-6.8704,-6.8704,-6.8196,-6.7867,-6.7627,-6.6789,-6.6161,-6.5592,-6.3947,-6.3318,-6.3318,-6.3139,-6.3079,-6.3079,0.0,0.0,0.0,0.0,0.0,-3.4404,-3.5453,-3.6907,-3.7502,-3.6364,-4.026,-4.3559,-4.4719,-4.8686,-5.111,-5.0906,-4.9854,-4.7785,-4.4673,-4.3125,-4.2736,-4.3857,-4.4118,-4.5201,-4.7571,-4.8457,-4.9615,-5.0996,-5.2427,-5.3406,-5.3959,-5.4511,-5.5365,-5.647,-5.7123,-5.7775,-5.8453,-5.9106,-5.9357,-5.8981,-5.5591,-5.3231,-5.1297,-4.8237,-4.6913,-4.6566,-4.4437,-4.391,-4.4103,-4.1731,0.0,0.0,0.0,0.0,0.0,0.0,0.0,0.0,0.0,0.0,0.0,0.0,0.0,0.0,0.0,0.0,0.0,0.0,0.0,0.0,0.0,0.0,0.0,0.0,-4.5992,-4.8506,-5.0032,-5.1887,-5.4401,-5.7932,-6.0116,-6.2002,-6.3737,-6.4156,-6.4725,-6.5772,-6.646,-6.6999,-6.7388,-6.7328,-6.7747,-6.8794,-6.8166,-6.8345,-6.9393,-6.9423,-6.9423,-6.9423,-6.9423,-6.9542,-6.9782,-6.9542,-6.9273,0.0,-6.8585,-6.8076,-6.7508,-6.6849,-6.634,0.0,0.0,0.0,0.0,0.0,-6.3079,-6.3079,0.0,0.0,0.0,-3.2949,-3.3288,-3.3863,-3.5182,-3.6738,-3.7235,-3.5722,-4.0229,-4.3684,-4.3908,-4.8117,-5.0359,-4.9203,-4.907,-4.7351,-4.3457,-4.2569,-4.2333,-4.271,-4.4794,-4.6728,-4.8335,-5.0092,-5.1749,-5.3306,-5.4336,-5.5164,-5.5767,-5.6269,-5.7097,-5.8177,-5.8252,-5.9131,-6.0613,-6.0663,-6.104,-6.1466,-6.0462,-5.8905,-5.6821,-5.3155,-5.1975,-5.1925,-4.9163,-4.7682,-4.6664,-4.49,0.0,0.0,0.0,0.0,0.0,0.0,0.0,0.0,0.0,0.0,0.0,0.0,0.0,0.0,0.0,0.0,0.0,0.0,0.0,0.0,0.0,0.0,0.0,0.0,-4.9374,-5.2755,-5.7064,-5.7842,-5.859,-6.0236,-6.2121,-6.3827,-6.5114,-6.5922,-6.664,-6.7388,-6.8046,-6.8435,-6.8525,0.0,0.0,0.0,0.0,-6.9632,-7.032,-7.0231,-7.0201,-7.0201,-7.0111,-7.038,-7.0889,-7.026,-6.9662,-6.9123,-6.9034,-6.8286,-6.7059,-6.646,-6.6131,-6.5951,-6.5293,-6.4575,-6.3827,-6.3348,-6.3139,0.0,0.0,0.0,0.0,-3.1664,-3.2611,-3.3525,-3.3795,-3.5622,-3.6467,-3.5005,-3.9497,-4.2692,-4.2062,-4.6082,-4.9326,-5.0366,-4.9223,-4.7354,-4.4833,-4.3067,-4.3363,-4.605,-4.7857,-4.959,-5.1247,-5.3356,-5.4813,-5.5566,-5.6244,-5.7072,-5.8027,-5.8152,-5.878,-5.9859,-6.0337,-6.1215,-6.237,-6.2847,-6.335,-6.3802,-6.3601,-6.1441,-5.8127,-5.5566,-5.4084,-5.308,-5.077,-5.0071,-4.9976,-4.7369,-4.721,-4.7521,-4.3888,-4.2565,0.0,0.0,0.0,0.0,0.0,0.0,0.0,0.0,0.0,0.0,0.0,0.0,0.0,0.0,0.0,0.0,0.0,0.0,0.0,-5.0511,-5.461,-5.8261,-6.0775,-6.248,-6.3258,-6.257,-6.3767,-6.5173,-6.649,-6.7717,-6.8914,-7.0051,-7.0769,-7.1368,-7.1936,-7.1547,0.0,-7.2325,-7.1697,-7.1667,-7.2325,-7.1787,-7.1517,-7.1517,0.0,0.0,-7.0889,-7.026,-6.9901,-6.9752,-6.9243,-6.8525,-6.7777,-6.7657,-6.6969,-6.5951,-6.5293,-6.4306,-6.3288,-6.3677,-6.3498,-6.3079,0.0,0.0,0.0,-3.1732,-3.2341,-3.3085,-3.3829,-3.5216,-3.5933,-3.5209,-3.8667,-4.1095,-4.0949,-4.3539,-4.5691,-4.6476,-4.4948,-4.4102,-4.4388,-4.3815,-4.4995,-4.8611,-5.0368,-5.2051,-5.3708,-5.5641,-5.6771,-5.7047,-5.8152,-5.8956,-5.9508,-5.9784,-6.0512,-6.1592,-6.1868,-6.2621,-6.3676,-6.3952,-6.4379,-6.4881,-6.4881,-6.3902,-6.2169,-5.996,-5.8428,-5.7223,-5.5566,-5.4436,-5.3406,-5.1172,-5.0229,-4.9413,-4.6039,-4.4848,-4.4296,0.0,0.0,0.0,0.0,0.0,0.0,0.0,0.0,0.0,0.0,0.0,0.0,0.0,0.0,-4.4736,-4.6052,0.0,-5.1738,-5.467,-5.7962,-6.0924,-6.3228,-6.4695,-6.5263,-6.4635,-6.5413,-6.667,-6.8315,-6.9363,-7.05,-7.1816,-7.2206,-7.2565,-7.2894,-7.2595,-7.2714,-7.3373,-7.2744,-7.2714,-7.3402,-7.2744,-7.2385,-7.2385,-7.1727,-7.1398,-7.1368,-7.0739,-7.026,-6.9961,-6.9632,-6.9123,-6.8465,-6.8106,-6.7208,-6.6011,-6.6011,-6.4994,-6.3588,-6.3887,-6.3617,-6.3079,0.0,0.0,0.0,-3.1968,-3.211,-3.251,-3.3863,-3.481,-3.5285,-3.5027,-3.7584,-3.9405,-3.9403,-4.0846,-4.1892,-4.2208,-4.1211,-4.1666,-4.4415,-4.5191,-4.7222,-5.0896,-5.2879,-5.4511,-5.5842,-5.7524,-5.8428,-5.8529,-6.006,-6.0864,-6.0989,-6.1542,-6.2295,-6.3149,-6.3249,-6.3852,-6.4806,-6.4906,-6.5283,-6.5785,-6.5886,-6.6137,-6.6237,-6.4354,-6.2873,-6.1667,-6.0437,-5.8353,-5.5993,-5.4637,-5.2729,-5.0494,-4.8184,-4.7427,-4.6705,-4.3572,-4.346,0.0,0.0,0.0,0.0,0.0,0.0,0.0,0.0,0.0,-4.3431,-4.3312,-4.59,-4.8652,-5.0372,-5.3247,-5.6166,-5.868,-6.0864,-6.3049,-6.5293,-6.6161,-6.664,-6.6759,-6.7238,-6.8256,-6.9991,-7.0979,-7.1936,-7.3013,-7.3223,-7.3283,-7.3283,-7.3283,-7.3552,-7.4061,-7.3582,-7.3552,-7.4091,-7.3432,-7.3103,-7.3103,-7.2415,-7.2086,-7.2056,-7.1398,-7.0829,-7.035,-7.0081,-6.9662,-6.9123,-6.8315,-6.7358,-6.643,-6.6819,-6.5922,-6.4395,-6.4395,-6.3917,-6.3258,0.0,0.0,0.0,0.0,0.0,-3.1596,-3.2408,-3.3728,-3.4196,-3.2994,-3.6278,-3.8027,-3.6255,-3.8272,-4.0203,-4.1441,-4.2936,-4.4762,-4.6727,-4.8435,-5.0481,-5.3155,-5.5917,-5.7424,-5.7625,-5.9207,-6.0311,-6.0814,-6.1969,-6.2797,-6.3324,-6.3852,-6.4153,-6.4304,-6.4806,-6.5358,-6.5961,-6.6463,-6.7015,-6.7568,-6.8045,-6.7995,-6.7543,-6.6789,-6.5509,-6.3902,-6.2295,-5.9357,-5.6194,-5.5993,-5.4461,-5.2503,-5.1699,-5.1154,-5.0383,-4.812,-4.6598,-4.5481,-4.4812,-4.432,0.0,-4.4496,-4.4736,-4.4941,0.0,0.0,-4.6878,-4.6036,-4.8668,-5.1362,-5.2138,-5.6201,-6.0116,-6.2181,-6.4665,-6.664,-6.7508,-6.8226,-6.8884,-6.9453,-6.9572,-6.9901,-7.0709,-7.2475,-7.3612,-7.3762,-7.433,-7.4659,-7.4659,-7.4659,-7.4689,-7.4779,-7.4689,-7.4689,-7.4779,-7.4121,-7.3791,-7.3762,-7.3103,-7.2804,-7.2774,-7.2086,-7.1727,-7.1607,-7.047,-6.9931,-6.9782,-6.8495,-6.7897,-6.7687,-6.7178,-6.649,-6.5772,-6.5772,-6.4994,-6.3887,0.0,0.0,0.0,0.0,0.0,-3.1427,-3.2171,-3.3186,-3.3695,-3.3155,-3.493,-3.6079,-3.5593,-3.7135,-3.8482,-3.902,-4.0567,-4.3389,-4.7864,-4.8557,-5.1085,-5.639,-5.7486,-5.8353,-5.9282,-6.0613,-6.1416,-6.1667,-6.2797,-6.345,-6.3701,-6.4228,-6.4806,-6.5434,-6.566,-6.6262,-6.7141,-6.7693,-6.8246,-6.8798,-6.9351,-6.9627,-6.9551,-6.802,-6.6011,-6.3751,-6.1743,-5.8956,0.0,-5.5465,-5.421,-5.2879,-5.2653,-5.1749,-5.0373,-4.8146,-4.6737,-4.569,-4.4472,0.0,0.0,0.0,-4.5518,-4.6735,-4.6627,-4.7883,-4.9088,-4.9408,-5.3014,-5.6594,-5.7943,-6.1381,-6.4515,0.0,-6.6849,-6.7926,-6.8974,-6.9064,-6.9093,-6.9363,-6.9722,-7.05,-7.1936,-7.2834,-7.3642,-7.442,-7.4719,-7.4869,-7.4869,-7.4869,-7.4869,-7.4869,-7.4869,-7.4869,-7.4869,-7.4599,-7.448,-7.445,-7.3791,-7.3492,-7.3462,-7.2804,-7.2475,-7.2445,-7.1487,-7.0859,-7.044,-6.9512,-6.8914,-6.8495,-6.7837,-6.7388,-6.7059,-6.6281,-6.5144,-6.4006,0.0,0.0,0.0,0.0,0.0,-3.136,-3.1901,-3.2611,-3.3138,-3.3193,-3.3995,-3.4841,-3.5394,-3.6356,-3.699,-3.7141,-3.8399,-4.155,-4.7051,-4.8294,-5.1508,-5.744,-5.85,-5.9465,-6.0537,-6.1818,-6.2471,-6.2471,-6.3576,-6.4203,-6.4379,-6.4906,-6.5735,-6.6815,-6.6965,-6.7568,-6.8522,-6.9074,-6.9451,-6.9727,-7.028,-7.0355,-6.9928,-6.7719,-6.4982,-6.2069,-6.0111,-5.7248,-5.421,-5.3105,-5.2,-5.1147,-5.1448,-5.082,-4.9515,-4.733,-4.5917,-4.4908,-4.4325,0.0,0.0,-4.5599,-4.7235,-4.8797,-4.8885,-5.0247,-5.1803,-5.2618,-5.6658,-6.0393,-6.1756,-6.489,0.0,-6.8375,-6.8675,-6.9183,-7.035,-6.9782,-6.9123,-6.8764,-6.8824,-6.9512,-7.1128,-7.2265,-7.3373,-7.451,-7.4779,-7.4869,-7.4869,-7.4869,-7.4869,-7.4869,-7.4869,-7.4869,-7.4869,-7.4869,-7.4869,-7.4869,-7.439,-7.418,-7.4151,-7.3492,-7.3073,-7.2864,-7.2176,-7.1607,-7.1098,-7.032,-6.9602,-6.8944,-6.8256,-6.7867,-6.7597,-6.664,-6.5533,-6.4545,0.0,0.0,0.0,0.0,0.0,-3.119,-3.1224,-3.1833,-3.237,-3.2451,-3.3627,-3.4743,-3.5422,-3.5521,-3.5859,-3.6569,-3.7758,-4.007,-4.3826,-4.8493,-5.2315,-5.4837,-5.9529,-6.1758,-6.1115,-6.2797,-6.3651,-6.3651,-6.4705,-6.5509,-6.6061,-6.6639,-6.7493,-6.8572,-6.91,-6.9652,-7.0229,-7.0782,-7.0706,-7.028,-7.0832,-6.9777,-6.7668,-6.5409,-6.2195,-5.873,-5.7549,-5.3984,-4.9615,-4.8485,-4.7405,-4.6702,-4.7732,-4.841,-4.8385,-4.6175,-4.4112,-4.303,-4.5313,0.0,-4.6483,-4.9228,-5.0753,-5.1954,-5.2791,-5.4367,-5.5527,-5.5391,-5.8626,-6.1619,-6.1674,-6.5029,-6.8375,-6.9692,-7.041,-7.1038,-7.1727,-7.0709,-6.9423,-6.8166,-6.6879,-6.64,0.0,-7.0649,-7.3193,-7.3881,-7.451,-7.4869,-7.4869,-7.4869,-7.4869,-7.4869,-7.4869,-7.4869,-7.4869,-7.4869,-7.4869,-7.4869,-7.4869,-7.4839,-7.4839,-7.418,-7.3522,-7.2864,-7.2176,-7.1876,-7.1757,-7.05,-6.9602,-6.8944,-6.8256,-6.7567,-6.7029,-6.6969,-6.652,-6.5862,0.0,0.0,0.0,0.0,0.0,0.0,-3.1123,-3.1799,-3.2303,-3.2385,-3.3665,0.0,0.0,0.0,0.0,0.0,-3.752,-3.9939,-4.3425,-4.6931,-5.0549,-5.4165,-5.6611,-5.8954,-6.0886,-6.1211,-6.1994,-6.3124,-6.4203,-6.4831,-6.5057,-6.6363,-6.7367,-6.8095,-6.8648,-6.92,-6.9727,-6.9928,-6.9903,-6.9677,-6.9125,-6.8472,-6.7493,-6.4505,-6.0512,-5.6118,0.0,-4.9841,-4.6702,-4.5573,-4.4694,-4.4292,-4.5397,-4.5623,-4.5254,-4.3862,-4.3962,-4.4944,-4.6587,0.0,-5.0824,-5.2633,-5.4123,-5.5313,-5.6571,-5.7328,-5.7689,-5.7674,-5.9589,-6.1351,-6.0937,-6.363,-6.6729,-6.8974,-6.9871,-7.0829,-7.2355,-7.1787,-7.0081,-6.7029,-6.7059,0.0,0.0,0.0,0.0,-7.2415,-7.3193,-7.3941,-7.4839,-7.4869,-7.4869,-7.4869,-7.4869,-7.4869,-7.4869,-7.4869,-7.4869,-7.4869,-7.4869,-7.4869,-7.4869,-7.4659,-7.442,-7.4151,-7.3043,-7.2565,-7.2475,-7.1128,-7.047,-7.0141,-6.9064,-6.8525,-6.8226,-6.7328,-6.6849,-6.649,0.0,0.0,0.0,0.0,0.0,0.0,0.0,0.0,0.0,0.0,0.0,0.0,0.0,0.0,0.0,0.0,0.0,-3.856,-4.1903,-4.4407,-4.7352,-5.0853,-5.3034,-5.5043,-5.7051,-5.7482,-5.8402,-5.9885,-6.0989,-6.1918,-6.2722,-6.4203,-6.5509,-6.6639,-6.7191,-6.797,-6.8848,-6.8648,-6.8221,-6.7518,-6.581,-6.453,-6.3249,-5.9508,-5.5365,0.0,-4.7832,-4.4995,-4.276,-4.2434,-4.1957,-4.1681,-4.2585,-4.261,-4.2427,-4.2574,-4.3898,-4.5849,-4.8153,-5.0922,-5.355,-5.5435,-5.6727,-5.7943,-5.8983,-5.9282,-5.9131,-5.8554,-5.9526,-6.0176,-5.9071,-6.0889,-6.3498,-6.64,-6.7238,-6.8615,-7.1757,-7.1009,-6.9273,-6.6999,-6.7029,0.0,0.0,0.0,0.0,-7.1308,-7.2385,-7.3492,-7.4809,-7.4869,-7.4988,-7.5228,-7.4988,-7.4988,-7.5228,-7.4988,-7.4869,-7.4869,-7.4869,-7.4869,-7.4869,-7.4869,-7.4869,-7.4809,-7.3732,-7.3133,-7.2834,-7.1727,-7.0859,-7.0141,-6.9333,-6.8704,-6.8166,-6.7298,-6.6999,-6.6819,0.0,0.0,0.0,0.0,0.0,0.0,0.0,0.0,0.0,0.0,0.0,0.0,0.0,0.0,0.0,0.0,0.0,0.0,-3.9256,-4.1213,-4.3189,-4.5024,-4.8793,-5.0657,-5.0289,-5.194,-5.3314,-5.4401,-5.5365,-5.6997,-5.9106,-6.0236,-6.1893,-6.3927,-6.4505,-6.5634,-6.7091,-6.6538,-6.5383,-6.3676,-6.0939,-5.8278,-5.544,-5.1147,-4.7431,-4.4267,-4.2133,-3.9948,-3.8216,-3.9295,-3.9346,-3.9044,-3.9546,-3.9772,-4.03,-4.2509,-4.4016,-4.5924,-5.0343,-5.2754,-5.4712,-5.7449,-5.8905,-5.9784,-6.0261,-6.0311,-5.9784,-5.8052,-5.842,-5.8208,0.0,0.0,-5.9069,-6.2421,-6.3169,-6.5144,-7.032,-6.8944,-6.7567,0.0,0.0,0.0,0.0,0.0,0.0,-7.058,0.0,-7.3402,-7.4839,-7.4929,-7.5258,-7.5916,-7.5318,-7.5288,-7.5886,-7.5228,-7.4869,-7.4869,-7.4869,-7.4869,-7.4869,-7.4869,-7.4869,-7.4839,-7.418,-7.3552,-7.2924,-7.2176,-7.0799,-6.9123,-6.9034,-6.8226,-6.7089,-6.7029,-6.6999,-6.6819,0.0,0.0,0.0,0.0,0.0,0.0,0.0,0.0,0.0,0.0,0.0,0.0,0.0,0.0,0.0,0.0,0.0,0.0,-3.725,-3.9708,-4.1273,-4.1656,-4.4723,-4.7165,-4.8775,-4.9063,-4.9975,-5.146,-5.1722,-5.2402,-5.3406,-5.4511,-5.5541,-5.647,-5.7047,-5.7549,-5.7901,-5.7323,-5.6846,-5.6269,-5.4361,-5.2904,-5.1624,-4.9238,-4.6276,-4.3263,-4.2308,-4.0526,-3.8693,0.0,0.0,0.0,0.0,-4.0827,-4.2585,-4.4819,-4.7431,-5.0368,-5.3984,-5.6746,-5.9106,-6.109,-6.1768,-6.1793,-6.1115,-6.0311,-5.878,-5.5465,-5.4498,-5.3462,0.0,0.0,0.0,-6.0984,-6.4485,0.0,-7.2535,-7.2984,0.0,0.0,0.0,-6.7841,-6.5187,-6.6375,0.0,0.0,-7.0223,-7.2176,-7.5467,-7.5647,-7.5946,-7.6574,-7.6425,-7.6185,-7.5916,-7.5228,-7.4869,-7.4869,-7.4869,-7.4869,-7.4869,-7.4869,-7.4869,-7.4839,-7.418,-7.3791,-7.3552,-7.2355,-7.1607,-7.1009,-6.9572,-6.8794,-6.8375,-6.7358,-6.6999,-6.6819,0.0,0.0,0.0,0.0,0.0,0.0,0.0,0.0,0.0,0.0,0.0,0.0,0.0,0.0,0.0,0.0,0.0,0.0,0.0,-3.7536,-3.8425,-3.8661,-4.051,-4.2278,-4.3896,-4.4138,-4.515,-4.7145,-4.7388,-4.7973,-4.8851,-4.9849,-5.0535,-5.0845,-5.1649,-5.2302,-5.2703,-5.2126,-5.1624,0.0,0.0,-4.7618,-4.6225,-4.484,-4.2671,-4.0505,-4.067,-4.0107,-3.9363,0.0,0.0,-4.1003,-4.1656,-4.3363,-4.5723,-4.8686,0.0,-5.416,-5.7499,-6.006,-6.2069,-6.3249,-6.3375,-6.2521,-5.996,-5.8679,-5.6545,-5.1197,-4.9992,0.0,0.0,0.0,0.0,0.0,0.0,0.0,-7.2295,-7.2608,-7.1885,0.0,-6.9847,0.0,-6.6397,-6.7858,-6.9416,0.0,-7.1285,-7.2924,-7.5766,-7.6155,-7.6604,-7.7233,-7.6963,-7.6544,-7.5916,-7.5228,-7.4869,-7.4869,-7.4869,-7.4869,-7.4869,-7.4869,-7.4869,-7.4869,0.0,-7.4151,-7.3821,-7.2774,-7.1996,-7.1278,-6.9632,-6.8824,-6.8435,-6.7388,-6.6999,-6.6819,0.0,0.0,0.0,0.0,0.0,0.0,0.0,0.0,0.0,0.0,-3.1888,-3.2033,0.0,0.0,0.0,0.0,0.0,0.0,0.0,0.0,-3.5759,-3.6327,-3.6956,-3.7571,-3.8246,-3.881,-4.0153,-4.2257,-4.2739,-4.3498,-4.473,-4.5757,-4.6186,-4.6298,-4.7339,-4.8328,-4.9216,-4.8734,-4.7947,-4.69,-4.5031,-4.2995,-4.118,0.0,-3.8929,-3.7731,-3.8766,-3.9362,0.0,0.0,-4.1411,-4.2283,-4.4493,-4.6778,-4.9414,-5.3256,-5.5491,-5.7474,-6.0814,-6.2847,-6.4128,-6.458,-6.4128,-6.2421,-5.7951,-5.6239,-5.3633,-4.6692,0.0,-4.5166,-4.2389,-4.5309,-4.9763,-5.464,0.0,-6.4695,-7.1457,-7.0848,-7.0325,-7.1769,-7.0212,-6.8517,-6.7613,-6.9573,-7.125,-7.2396,-7.365,-7.4929,-7.6096,-7.6664,-7.7263,-7.7921,-7.7233,-7.6574,-7.6036,-7.5258,-7.4869,-7.4869,-7.4869,-7.4869,-7.4869,-7.4869,-7.4869,-7.4869,0.0,0.0,-7.3971,-7.3223,-7.2235,-7.1038,-6.9662,-6.8764,-6.8136,-6.7388,-6.7119,-6.6909,0.0,0.0,0.0,0.0,0.0,0.0,0.0,0.0,0.0,0.0,-3.1748,-3.1264,0.0,0.0,0.0,0.0,0.0,0.0,0.0,0.0,0.0,-3.5669,-3.6297,-3.6738,-3.6862,-3.7099,-3.7653,-3.8666,0.0,-3.871,-3.9924,-4.0604,-4.1218,-4.1639,-4.2436,-4.2868,-4.3057,-4.2949,-4.2787,-4.2614,-4.2181,-4.1529,-4.0757,-4.0622,0.0,0.0,-4.0131,0.0,-3.8964,-4.271,-4.4386,-4.5146,-4.7355,-5.0193,-5.3381,-5.6846,-5.8679,-6.0337,-6.3676,-6.5132,-6.571,-6.581,-6.4404,-6.1818,-5.7374,-5.4072,0.0,0.0,-4.3796,-4.2838,-4.0404,-4.4115,-4.9523,-5.5748,0.0,0.0,0.0,0.0,-7.4321,0.0,0.0,0.0,0.0,0.0,0.0,0.0,0.0,0.0,-7.7472,-7.7592,-7.7951,-7.8609,-7.7442,-7.6784,-7.6664,-7.5467,-7.4869,-7.4869,-7.4869,-7.4869,-7.4869,-7.4869,-7.4869,-7.4869,0.0,0.0,-7.4599,-7.3402,-7.2774,-7.2385,-7.053,-6.9752,-6.9482,-6.8256,-6.7807,-6.7537,0.0,0.0,0.0,0.0,0.0,0.0,0.0,-3.11,-3.2092,-3.2886,-3.3246,-3.2919,-3.1619,-3.1763,-3.2246,0.0,0.0,0.0,0.0,0.0,0.0,0.0,0.0,0.0,0.0,0.0,0.0,0.0,0.0,0.0,0.0,0.0,0.0,0.0,-4.0261,-4.079,-4.1093,-4.1093,-4.1093,-4.1066,-4.1471,-4.1075,-4.0387,0.0,0.0,0.0,0.0,0.0,0.0,-4.3433,-4.5408,-4.7266,-5.0125,-5.3005,-5.6043,-5.9106,-6.0989,-6.2672,-6.5434,-6.6789,-6.7342,-6.7066,-6.4906,-6.1215,-5.5064,0.0,0.0,0.0,-4.0529,-4.0596,-3.8925,-4.2813,0.0,0.0,0.0,0.0,0.0,0.0,0.0,0.0,0.0,0.0,0.0,0.0,0.0,0.0,0.0,0.0,-7.7831,-7.7801,-7.7951,-7.828,-7.7023,-7.6335,-7.6335,-7.5377,-7.4869,-7.4869,-7.4869,-7.4869,-7.4869,-7.4869,-7.4869,-7.4869,-7.4869,0.0,-7.4779,-7.3462,-7.2924,-7.2714,-7.0739,-6.9991,-6.9871,-6.8884,-6.8286,-6.7747,0.0,0.0,0.0,0.0,0.0,0.0,-3.119,-3.2155,-3.3129,-3.427,-3.5225,-3.5125,-3.3257,-3.2641,-3.2407,0.0,0.0,0.0,0.0,0.0,0.0,0.0,0.0,0.0,0.0,0.0,0.0,0.0,0.0,0.0,0.0,0.0,0.0,0.0,0.0,0.0,0.0,-4.1053,-4.1137,0.0,0.0,0.0,0.0,0.0,0.0,0.0,0.0,0.0,0.0,0.0,-4.5312,-4.747,-5.0998,-5.4353,-5.7499,-5.9809,-6.1918,-6.4028,-6.6338,-6.7693,-6.8346,-6.7919,-6.4931,-6.0236,-5.308,-4.9055,0.0,0.0,-3.8007,-3.8917,-3.8243,-4.1588,-4.5334,0.0,0.0,0.0,0.0,0.0,0.0,0.0,0.0,0.0,0.0,0.0,0.0,0.0,0.0,0.0,0.0,-7.8011,-7.7951,-7.7801,-7.6694,-7.6036,-7.5916,-7.5228,-7.4869,-7.4869,-7.4869,-7.4869,-7.4869,-7.4869,-7.4869,-7.4869,-7.4869,0.0,0.0,-7.3612,-7.3043,-7.2744,-7.1038,-7.029,-7.0111,-6.9453,-6.8764,-6.7986,0.0,0.0,0.0,0.0,0.0,0.0,-3.1968,-3.3288,-3.4854,-3.689,-3.7182,-3.6693,-3.5344,-3.513,-3.4442,0.0,0.0,0.0,0.0,0.0,0.0,0.0,0.0,0.0,0.0,0.0,0.0,0.0,0.0,0.0,0.0,0.0,0.0,0.0,0.0,0.0,0.0,0.0,0.0,0.0,0.0,0.0,0.0,0.0,0.0,0.0,0.0,0.0,0.0,0.0,0.0,-4.4018,-4.807,-5.288,-5.7198,-5.7976,0.0,0.0,-6.6237,-6.7417,-6.7869,-6.7819,-6.3776,-5.8428,-5.3206,0.0,0.0,-3.9129,-3.8215,-3.8214,-3.9119,-4.0621,-4.3359,0.0,-5.102,-5.5867,0.0,0.0,0.0,0.0,0.0,0.0,0.0,0.0,0.0,0.0,0.0,0.0,0.0,-7.8699,-7.843,-7.7831,-7.7113,-7.6485,-7.5916,-7.5228,-7.4869,-7.4869,-7.4869,-7.4869,-7.4869,-7.4869,-7.4869,-7.4869,0.0,0.0,0.0,-7.4091,-7.3462,-7.2834,-7.2026,-7.1338,-7.0739,-7.0111,-6.9482,-6.8645,0.0,0.0,0.0,0.0,0.0,0.0,-3.2679,-3.3059,-3.4324,-3.7716,-3.8104,-3.7793,-3.7285,-3.6896,-3.537,-3.2198,-3.2527,0.0,0.0,0.0,0.0,0.0,0.0,0.0,0.0,0.0,0.0,0.0,0.0,0.0,0.0,0.0,0.0,0.0,0.0,0.0,0.0,0.0,0.0,0.0,0.0,0.0,0.0,0.0,0.0,0.0,0.0,0.0,0.0,0.0,0.0,0.0,-4.319,-4.681,0.0,0.0,-5.8323,-6.0914,-6.5685,-6.7869,-6.8622,-6.797,-6.3375,-5.76,-5.2302,0.0,-4.1973,-3.8878,-3.8489,-3.887,-3.9337,-3.9858,-4.1145,-4.4047,-4.4855,-4.7878,0.0,0.0,0.0,0.0,0.0,0.0,0.0,0.0,0.0,0.0,0.0,0.0,0.0,-7.7793,-7.7891,-7.7233,-7.6604,-7.5946,-7.5288,-7.5018,-7.4869,-7.4869,-7.4869,-7.4869,-7.4869,-7.4869,-7.4869,-7.4869,0.0,0.0,0.0,-7.3732,-7.3163,-7.2804,-7.1727,-7.1128,-7.0859,-7.062,-6.9901,-6.8824,0.0,0.0,0.0,0.0,0.0,-3.1123,-3.3119,-3.3266,-3.443,-3.7812,-3.8512,-3.8672,-3.8392,-3.7644,-3.5938,-3.2976,-3.2587,0.0,0.0,0.0,0.0,0.0,0.0,0.0,0.0,0.0,-3.5729,-3.6178,-3.5729,0.0,0.0,0.0,0.0,0.0,0.0,0.0,0.0,0.0,0.0,0.0,0.0,0.0,0.0,0.0,0.0,0.0,0.0,0.0,0.0,0.0,0.0,0.0,0.0,0.0,0.0,0.0,-5.5185,-5.8453,-6.3313,-6.6212,-6.7819,-6.7216,-6.222,-5.6168,0.0,-4.5875,-4.1152,-3.8251,-3.8331,-3.9017,-3.9337,-3.9409,-3.9798,-4.0905,-4.0876,-4.291,-4.9344,0.0,0.0,0.0,0.0,0.0,0.0,0.0,0.0,0.0,0.0,0.0,0.0,-7.7238,-7.7711,-7.6844,-7.6395,-7.5766,-7.4899,-7.4869,-7.4869,-7.4869,-7.4869,-7.4869,-7.4869,-7.4869,-7.4869,-7.4869,0.0,0.0,0.0,-7.3582,-7.2984,-7.2505,-7.1547,-7.1068,-7.0889,-7.0709,-6.9931,-6.8854,0.0,0.0,0.0,0.0,0.0,-3.1698,-3.3186,-3.4452,-3.5837,-3.7297,-3.8684,-3.9191,-3.8462,-3.7255,-3.6207,-3.5519,-3.3664,0.0,0.0,0.0,0.0,0.0,0.0,0.0,0.0,0.0,-3.5519,-3.5519,-3.5519,-3.5519,-3.5549,0.0,0.0,0.0,0.0,0.0,0.0,0.0,0.0,0.0,0.0,0.0,0.0,0.0,0.0,0.0,0.0,0.0,0.0,0.0,0.0,0.0,0.0,-3.9283,-3.8951,0.0,-5.0643,-5.6674,-5.8328,-6.1592,-6.4655,-6.5183,-5.991,-5.3733,0.0,-4.4438,-3.9124,-3.7455,-3.7473,-3.8144,-3.9192,-3.9409,-3.9649,-4.0307,-4.0935,-4.3449,-4.9404,0.0,0.0,0.0,0.0,0.0,0.0,0.0,0.0,0.0,0.0,0.0,0.0,0.0,-7.819,-7.6874,-7.6814,-7.6185,-7.4899,-7.4869,-7.4869,-7.4869,-7.4869,-7.4869,-7.4869,-7.4869,-7.4869,0.0,0.0,0.0,0.0,-7.3881,-7.3103,-7.1906,-7.1876,-7.1487,-7.0829,-7.0201,-6.9572,-6.8704,0.0,0.0,0.0,0.0,0.0,0.0,-3.2476,-3.263,-3.3405,-3.5768,-3.6032,-3.644,-3.7593,-3.6148,-3.522,-3.5489,-3.4083,0.0,0.0,0.0,0.0,0.0,0.0,0.0,0.0,-3.5519,-3.5729,-3.6178,-3.6178,-3.6178,-3.6178,-3.6387,-3.6477,0.0,0.0,0.0,0.0,0.0,0.0,0.0,0.0,0.0,0.0,0.0,0.0,0.0,0.0,0.0,0.0,0.0,0.0,0.0,0.0,0.0,0.0,-3.9648,-4.4847,-5.0711,-5.3501,-5.5982,-5.7533,-5.6132,-5.2302,-4.8159,-4.5196,-4.144,-3.8262,-3.7263,-3.7473,-3.8144,-3.9192,-3.9409,-4.0098,-4.2132,-4.2611,-4.3688,-4.6471,0.0,0.0,0.0,0.0,0.0,0.0,0.0,0.0,0.0,0.0,0.0,0.0,0.0,-7.6828,-7.7532,-7.7053,-7.6425,-7.5587,-7.5108,-7.4869,-7.4869,-7.4869,-7.4869,-7.4869,-7.4869,0.0,0.0,0.0,0.0,0.0,-7.3402,-7.2684,-7.1846,-7.1398,-7.1098,-7.0829,-7.0201,-6.9273,-6.8136,0.0,0.0,0.0,0.0,0.0,0.0,-3.1799,-3.1783,-3.2286,-3.3995,-3.4123,-3.4804,-3.6779,-3.5493,-3.4941,-3.6136,-3.5003,0.0,0.0,0.0,0.0,0.0,0.0,0.0,-3.5519,-3.5519,-3.5938,-3.6836,-3.7075,-3.7195,-3.7195,-3.7464,-3.7195,-3.6477,-3.6477,0.0,0.0,0.0,0.0,0.0,0.0,0.0,-3.8033,0.0,0.0,0.0,0.0,0.0,0.0,0.0,0.0,0.0,0.0,0.0,0.0,0.0,-4.1281,-4.5316,0.0,-5.1049,-5.2817,-5.1586,-4.8498,-4.5339,-4.3251,-4.0595,-3.8328,-3.7554,-3.7949,-3.862,-3.9265,-3.9409,-3.9978,-4.1624,-4.2073,-4.294,-4.5005,0.0,0.0,0.0,0.0,0.0,0.0,0.0,0.0,0.0,0.0,0.0,0.0,0.0,-7.7064,-7.7831,-7.7173,-7.6544,-7.5916,-7.5228,-7.4869,-7.4869,-7.4869,-7.4869,-7.4869,-7.4869,0.0,0.0,0.0,0.0,0.0,-7.2804,-7.1996,-7.1128,-7.0709,-7.041,-7.0081,-6.9183,-6.8315,-6.7418,0.0,0.0,0.0,0.0,0.0,0.0,0.0,-3.1765,-3.2236,-3.2241,-3.284,-3.399,-3.584,-3.495,-3.4981,-3.6985,-3.6056,0.0,0.0,0.0,0.0,0.0,0.0,0.0,-3.5519,-3.5519,-3.6118,-3.7345,-3.8033,-3.8422,-3.8311,-3.9098,-3.8381,-3.6462,-3.6567,-3.6507,0.0,0.0,0.0,0.0,0.0,-3.7913,0.0,0.0,0.0,0.0,0.0,0.0,0.0,0.0,0.0,0.0,0.0,0.0,0.0,0.0,0.0,0.0,0.0,-4.6648,-4.9643,-4.9986,-4.746,-4.4529,-4.3487,-4.1179,0.0,0.0,0.0,0.0,-3.9469,-3.9439,-3.9469,-3.9679,-4.0247,-4.1803,-4.4975,0.0,0.0,0.0,0.0,0.0,0.0,0.0,0.0,0.0,0.0,0.0,0.0,0.0,0.0,-7.7831,-7.7173,-7.6544,-7.5916,-7.5228,-7.4869,-7.4869,-7.4869,-7.4869,-7.4869,-7.4869,0.0,0.0,0.0,0.0,0.0,-7.2278,-7.1358,-7.0314,-7.0314,-6.9893,-6.911,-6.7694,-6.7031,-6.6672,0.0,0.0,0.0,0.0,0.0,0.0,0.0,0.0,0.0,0.0,-3.1703,-3.1987,-3.2506,-3.2265,-3.2538,0.0,0.0,0.0,0.0,0.0,0.0,0.0,0.0,0.0,-3.5519,-3.5519,-3.5908,-3.6716,-3.7853,-3.8174,-3.7763,-3.9387,-3.8811,-3.6548,-3.6961,-3.6656,0.0,0.0,0.0,0.0,-3.7375,-3.7255,0.0,0.0,0.0,0.0,-3.5789,-3.5729,0.0,0.0,0.0,0.0,0.0,0.0,0.0,0.0,-3.7614,-3.837,-3.9513,0.0,-4.2486,-4.0693,-3.9912,-3.9513,0.0,0.0,0.0,0.0,0.0,0.0,0.0,-3.9768,-4.0068,-4.2102,-4.297,-4.4197,-4.6501,0.0,0.0,0.0,0.0,0.0,0.0,0.0,0.0,0.0,0.0,0.0,0.0,0.0,0.0,-7.7831,-7.7173,-7.6544,-7.5916,-7.5228,-7.4869,-7.4869,-7.4869,-7.4869,-7.4869,-7.4869,0.0,0.0,0.0,0.0,-7.3873,-7.3719,-7.357,-7.343,-7.343,-7.2674,-7.1217,-6.9395,-6.7973,-6.6729,0.0,0.0,0.0,0.0,0.0,0.0,0.0,0.0,0.0,0.0,-3.1241,-3.1381,-3.1769,-3.179,-3.2249,0.0,0.0,0.0,0.0,0.0,0.0,0.0,0.0,-3.519,-3.5489,-3.5519,-3.5968,-3.6896,-3.8212,-3.859,-3.8122,-3.9478,-3.8847,-3.6585,-3.6566,-3.6148,-3.5579,-3.6567,-3.6626,-3.6088,-3.6716,0.0,0.0,0.0,0.0,0.0,-3.5519,-3.5519,0.0,-3.5519,-3.5699,-3.5908,0.0,0.0,0.0,0.0,-3.6926,-3.7434,-3.7494,-3.8736,-3.977,-3.8351,-3.8359,-3.8503,-3.8265,0.0,0.0,0.0,0.0,0.0,0.0,0.0,0.0,-4.2102,-4.324,0.0,0.0,0.0,0.0,0.0,0.0,0.0,0.0,0.0,0.0,0.0,0.0,0.0,0.0,0.0,0.0,-7.7382,-7.7023,-7.6544,-7.5916,-7.5228,-7.4869,-7.4869,-7.4869,-7.4869,-7.4869,-7.4569,0.0,0.0,0.0,0.0,-7.4191,-7.3448,-7.3515,-7.4043,-7.3724,-7.262,-7.1169,-6.9698,-6.8564,-6.7448,0.0,0.0,0.0,0.0,0.0,0.0,0.0,0.0,0.0,0.0,0.0,0.0,0.0,0.0,0.0,0.0,0.0,0.0,0.0,0.0,0.0,0.0,-3.4325,-3.4651,-3.534,-3.534,-3.5938,-3.7135,-3.8751,-3.9194,-3.8517,-3.9779,-3.9168,-3.6946,-3.6271,-3.5789,-3.5549,-3.6088,-3.6028,-3.5549,-3.6118,0.0,0.0,0.0,0.0,0.0,0.0,0.0,0.0,-3.5519,-3.5878,-3.6237,-3.5669,0.0,0.0,0.0,0.0,0.0,-3.7015,-3.8302,-3.9619,-3.92,-3.926,-3.9409,-3.9409,0.0,0.0,0.0,0.0,0.0,0.0,0.0,0.0,0.0,0.0,0.0,0.0,0.0,0.0,0.0,0.0,0.0,0.0,0.0,0.0,0.0,0.0,0.0,0.0,0.0,0.0,-7.6874,-7.6724,-7.6395,-7.5766,-7.5168,-7.4839,-7.4719,-7.4719,-7.4659,-7.4569,-7.4001,0.0,0.0,0.0,0.0,-7.4188,-7.2822,-7.2854,-7.3747,-7.3037,-7.1907,-7.0478,-6.9761,-6.9013,-6.8203,0.0,0.0,0.0,0.0,0.0,0.0,0.0,0.0,0.0,0.0,0.0,0.0,0.0,0.0,0.0,0.0,0.0,0.0,0.0,0.0,0.0,-3.3609,-3.3668,-3.3963,-3.4622,-3.4622,-3.5011,-3.5789,-3.8781,-3.943,-3.7869,-4.1227,-4.1216,-3.8188,-3.8043,-3.7045,-3.5519,-3.5609,-3.5609,-3.5519,0.0,0.0,0.0,0.0,0.0,0.0,0.0,0.0,0.0,-3.5519,-3.5579,-3.5639,-3.5549,0.0,0.0,0.0,0.0,0.0,-3.8691,-4.0008,-4.0546,-3.8272,-3.8571,-3.9409,0.0,0.0,0.0,0.0,0.0,0.0,0.0,0.0,0.0,0.0,0.0,0.0,0.0,0.0,0.0,0.0,0.0,0.0,0.0,0.0,0.0,0.0,0.0,0.0,0.0,0.0,0.0,0.0,-7.6305,-7.5707,-7.5048,-7.4929,-7.4599,-7.4031,-7.4031,-7.3762,-7.3223,-7.3103,-7.2744,0.0,0.0,-7.2918,-7.4351,-7.3493,-7.4063,-7.5299,-7.4594,-7.3419,-7.1888,-7.06,-6.9682,-6.8863,0.0,0.0,0.0,0.0,0.0,0.0,0.0,0.0,0.0,0.0,0.0,0.0,0.0,0.0,0.0,0.0,0.0,0.0,0.0,0.0,-3.3713,-3.4076,-3.3702,-3.3819,-3.4505,-3.519,-3.6058,-3.7075,-3.9282,-3.9939,-3.9152,-3.9376,-3.8615,-3.7046,-3.6346,-3.5798,-3.5519,-3.5519,-3.5519,-3.5519,0.0,0.0,0.0,0.0,0.0,0.0,0.0,0.0,0.0,0.0,-3.5519,-3.5519,-3.5519,0.0,0.0,0.0,0.0,0.0,-3.7674,-3.8781,-3.9649,-3.914,-4.0038,-4.0726,0.0,0.0,0.0,0.0,0.0,0.0,0.0,0.0,0.0,0.0,0.0,0.0,0.0,0.0,0.0,0.0,0.0,0.0,0.0,0.0,0.0,0.0,0.0,0.0,0.0,0.0,0.0,0.0,-7.6066,-7.5587,-7.4899,-7.4869,-7.454,-7.3881,-7.3881,-7.3552,-7.2894,-7.2146,-7.1667,-7.1278,0.0,-7.1831,-7.334,-7.2875,-7.3668,-7.5033,-7.4289,-7.3341,-7.2235,-7.1211,-7.0657,-7.0263,0.0,0.0,0.0,0.0,0.0,0.0,0.0,0.0,0.0,0.0,0.0,0.0,0.0,0.0,0.0,0.0,0.0,0.0,0.0,-3.443,-3.4134,-3.4317,-3.3824,-3.3983,-3.4985,-3.6088,-3.7327,-3.8618,-4.0314,-4.1193,-4.1028,-3.8193,-3.6631,-3.625,-3.5164,-3.4981,-3.5519,-3.5519,-3.5519,-3.5519,0.0,0.0,0.0,0.0,0.0,0.0,0.0,0.0,0.0,0.0,0.0,0.0,0.0,0.0,0.0,-3.5519,-3.5968,-3.6567,-3.6836,-3.7883,-3.908,-3.9948,0.0,0.0,0.0,0.0,0.0,0.0,0.0,0.0,0.0,0.0,0.0,0.0,0.0,0.0,0.0,0.0,0.0,0.0,0.0,0.0,0.0,0.0,0.0,0.0,0.0,0.0,0.0,0.0,0.0,0.0,-7.5736,-7.5407,-7.4869,-7.4719,-7.43,-7.3672,-7.3672,-7.3223,-7.2415,-7.1368,-7.0829,-7.0719,-7.0373,-7.0923,-7.2092,-7.2059,-7.2843,-7.4018,-7.3274,-7.2631,-7.209,-7.1515,-7.1312,-7.1312,0.0,0.0,0.0,0.0,0.0,0.0,0.0,0.0,0.0,0.0,0.0,0.0,0.0,0.0,0.0,0.0,0.0,0.0,0.0,-3.2874,-3.278,-3.3543,-3.3544,-3.441,-3.6334,-3.7015,-3.7971,-3.9247,-4.2281,-4.3509,-4.2937,-4.0208,-3.8408,-3.7426,-3.6997,-3.6307,-3.5519,-3.5519,-3.5519,-3.5519,-3.5519,0.0,0.0,0.0,0.0,0.0,0.0,0.0,0.0,0.0,0.0,0.0,0.0,0.0,-3.5519,-3.5519,-3.5968,-3.6746,-3.7913,-3.923,-4.0127,-3.9619,0.0,0.0,0.0,0.0,0.0,0.0,0.0,0.0,0.0,0.0,0.0,0.0,0.0,0.0,0.0,0.0,0.0,0.0,0.0,0.0,0.0,0.0,0.0,0.0,0.0,0.0,0.0,0.0,0.0,0.0,0.0,-7.4929,-7.4869,-7.427,-7.3642,-7.2984,-7.2984,-7.2295,-7.1038,-7.0949,-7.059,-7.0119,-7.0679,-7.108,-7.1324,-7.1309,-7.1778,-7.2496,-7.1751,-7.1447,-7.1379,-7.1345,-7.1312,-7.1312,0.0,0.0,0.0,0.0,0.0,0.0,0.0,0.0,0.0,0.0,0.0,-3.0336,-3.1083,0.0,0.0,0.0,0.0,0.0,-3.3355,-3.3558,-3.3805,-3.4116,-3.4562,-3.554,-3.7079,-3.8551,-4.0123,-4.1823,-4.2979,-4.2977,-4.1974,-3.8902,-3.6923,-3.6098,-3.495,-3.4685,-3.5195,-3.5156,-3.5524,-3.6088,-3.5669,-3.5519,0.0,0.0,0.0,0.0,0.0,0.0,0.0,0.0,-3.5519,-3.5519,-3.5519,-3.5519,-3.5519,-3.5519,-3.5669,-3.6148,-3.7434,-3.8751,-3.9918,-4.0487,0.0,0.0,0.0,0.0,0.0,0.0,0.0,0.0,0.0,0.0,0.0,0.0,0.0,0.0,0.0,0.0,0.0,0.0,0.0,0.0,0.0,0.0,0.0,0.0,0.0,0.0,0.0,0.0,0.0,0.0,0.0,-7.4689,-7.427,-7.4031,-7.3133,-7.1667,-7.1667,-7.1188,-7.029,-6.9453,-6.8734,-6.8171,-6.937,-6.9649,-6.9478,-7.0697,-7.1463,-7.1684,-7.1413,-7.1312,-7.1312,-7.1312,-7.1312,-7.1312,0.0,0.0,0.0,0.0,0.0,0.0,0.0,0.0,-2.6136,0.0,0.0,0.0,0.0,-3.0708,0.0,0.0,0.0,0.0,-3.3017,-3.3556,-3.3941,-3.4134,-3.4651,-3.5729,-3.7437,-3.9395,-4.1096,-4.2608,-4.2572,-4.1952,-4.0752,-3.7789,-3.6208,-3.5738,-3.3881,-3.3896,-3.5249,-3.5039,-3.5299,-3.5984,-3.5627,-3.5519,0.0,0.0,0.0,0.0,0.0,0.0,0.0,0.0,-3.5519,-3.5519,-3.5519,-3.5519,-3.5519,-3.5519,-3.5519,-3.5759,-3.6836,-3.7943,-3.914,-4.0696,0.0,0.0,0.0,0.0,0.0,0.0,0.0,0.0,0.0,0.0,0.0,0.0,0.0,0.0,0.0,0.0,0.0,0.0,0.0,0.0,0.0,0.0,0.0,0.0,0.0,0.0,0.0,0.0,0.0,0.0,0.0,0.0,-7.3582,-7.3163,-7.2265,-7.0889,-7.026,-6.9871,-6.9632,-6.8495,-6.7597,-6.7031,-6.8052,-6.8362,-6.8324,-6.9964,-7.0882,-7.1312,-7.1312,-7.1312,-7.1312,-7.1312,-7.1312,-7.1312,0.0,0.0,0.0,0.0,0.0,0.0,0.0,0.0,-2.5528,-2.5528,-2.72,0.0,0.0,0.0,0.0,0.0,0.0,0.0,-3.2232,-3.232,-3.2707,-3.3347,-3.347,-3.4779,-3.7404,-3.9367,-4.0641,-4.1251,-4.1209,-4.0752,-3.9622,-3.7437,-3.6616,-3.6865,-3.4695,-3.4527,-3.5812,-3.5147,-3.488,-3.4893,-3.5363,-3.5519,-3.5519,0.0,0.0,0.0,0.0,0.0,0.0,0.0,-3.5519,-3.5519,-3.5519,-3.5519,-3.5519,-3.5519,-3.5519,-3.5669,-3.6327,-3.6956,-3.7913,0.0,0.0,0.0,0.0,0.0,0.0,0.0,0.0,0.0,0.0,0.0,0.0,0.0,0.0,0.0,0.0,0.0,0.0,0.0,0.0,0.0,0.0,0.0,0.0,0.0,0.0,0.0,0.0,0.0,0.0,0.0,0.0,0.0,-7.2894,-7.1577,-7.0889,-7.0829,-6.8884,-6.8315,-6.8944,-6.8256,-6.7597,-6.7001,-6.7089,-6.7496,-6.8188,-6.8895,-7.0043,-7.1312,-7.1312,-7.1312,-7.1312,-7.1312,-7.1312,-7.1312,0.0,0.0,0.0,0.0,0.0,0.0,0.0,0.0,-2.5742,-2.6125,-2.6686,0.0,0.0,0.0,0.0,0.0,0.0,0.0,-3.0261,-3.1134,-3.1835,-3.202,-3.3367,-3.4313,-3.4659,-3.6141,-3.8644,-4.2251,-4.0089,-3.8442,-3.7337,-3.6282,-3.5259,-3.4208,-3.4336,-3.4399,-3.4393,-3.42,-3.4498,-3.5227,-3.5654,-3.5485,-3.5175,0.0,0.0,0.0,0.0,0.0,0.0,0.0,0.0,0.0,-3.5519,-3.5818,-3.6118,-3.5639,-3.5818,-3.6327,-3.6956,0.0,0.0,0.0,0.0,0.0,0.0,0.0,0.0,0.0,0.0,0.0,0.0,0.0,0.0,0.0,0.0,0.0,0.0,0.0,0.0,0.0,0.0,0.0,0.0,0.0,0.0,0.0,0.0,0.0,0.0,0.0,0.0,0.0,0.0,0.0,-7.1517,-7.0679,-6.9542,-6.8136,-6.7567,-6.7388,-6.7567,-6.6909,-6.5981,-6.4963,-6.5985,-6.6261,-6.6148,-6.8271,-7.0043,-7.1312,-7.1312,-7.1312,-7.1312,-7.1312,-7.1312,-7.1312,0.0,0.0,0.0,0.0,0.0,0.0,-2.4926,-2.5136,-2.5424,-2.6077,-2.6367,-2.6995,0.0,0.0,0.0,-2.8965,-2.9042,0.0,-2.9361,-3.0183,-3.089,-3.1502,-3.2625,-3.3542,-3.4271,-3.4787,-3.6448,-3.9228,-3.8219,-3.6954,-3.5378,-3.6049,-3.5669,-3.4424,-3.5303,-3.5339,-3.4813,-3.4685,-3.4817,-3.5031,-3.5432,-3.5435,-3.5295,0.0,0.0,0.0,0.0,0.0,0.0,0.0,0.0,0.0,-3.5519,-3.5789,-3.6028,-3.5609,-3.5789,-3.6297,-3.7165,0.0,0.0,0.0,0.0,0.0,0.0,0.0,0.0,0.0,0.0,0.0,0.0,0.0,0.0,0.0,0.0,0.0,0.0,0.0,0.0,0.0,0.0,0.0,0.0,0.0,0.0,0.0,0.0,0.0,0.0,0.0,0.0,0.0,0.0,0.0,-6.9752,-6.9093,-6.8046,-6.661,-6.634,-6.6071,-6.5802,-6.5383,-6.4755,-6.4093,-6.5218,-6.581,-6.6154,-6.8306,-7.0043,-7.1312,-7.1312,-7.1312,-7.1312,-7.1312,-7.1312,-7.1312,0.0,0.0,-2.3819,-2.4462,0.0,0.0,-2.5405,-2.5166,-2.5016,-2.5615,-2.6213,-2.6602,0.0,0.0,0.0,-2.8367,-2.8415,-2.8654,-2.918,-2.931,-2.9998,-3.1261,-3.1488,-3.2826,-3.534,-3.4719,-3.4249,-3.3869,-3.6069,-3.5902,-3.372,-3.6392,-3.7154,-3.6157,-3.681,-3.6784,-3.6225,-3.6018,-3.5391,-3.4454,-3.5008,-3.5343,-3.552,-3.5211,0.0,0.0,0.0,0.0,0.0,0.0,0.0,0.0,-3.5519,-3.5549,-3.5579,-3.5519,-3.5549,-3.5908,0.0,0.0,0.0,0.0,0.0,0.0,0.0,0.0,0.0,0.0,0.0,0.0,0.0,0.0,0.0,0.0,0.0,0.0,0.0,0.0,0.0,0.0,0.0,0.0,0.0,0.0,0.0,0.0,0.0,0.0,0.0,0.0,0.0,0.0,0.0,0.0,-6.7807,-6.7148,-6.649,0.0,-6.5233,-6.4575,-6.3917,-6.3977,-6.3977,-6.4004,-6.4646,-6.5728,-6.7266,-6.8503,-6.9949,-7.1312,-7.1312,-7.1312,-7.1312,-7.1312,-7.1312,-7.1312,0.0,0.0,-2.3819,-2.4462,0.0,0.0,-2.5495,-2.5914,-2.6213,-2.6363,-2.6512,-2.6782,-2.734,-2.7021,0.0,-2.773,-2.781,-2.786,-2.7978,-2.8442,-2.9089,-2.9955,-3.1471,-3.3066,-3.4651,-3.3565,-3.2801,-3.2479,-3.4011,-3.3719,-3.1656,-3.4972,-3.576,-3.45,-3.5906,-3.5981,-3.5027,-3.4616,-3.4274,-3.4158,-3.5536,-3.5538,-3.4848,-3.5874,-3.5798,0.0,0.0,0.0,0.0,0.0,0.0,0.0,-3.5519,-3.5848,-3.6178,-3.5639,-3.5878,-3.6776,0.0,0.0,0.0,0.0,0.0,0.0,0.0,0.0,0.0,0.0,0.0,0.0,0.0,0.0,0.0,0.0,0.0,0.0,0.0,0.0,0.0,0.0,0.0,0.0,0.0,0.0,0.0,0.0,0.0,0.0,0.0,0.0,0.0,0.0,0.0,-6.658,-6.643,-6.5772,-6.5114,0.0,-6.4276,-6.3887,-6.3288,-6.3767,-6.3737,-6.3258,-6.3454,-6.4923,-6.7164,-6.747,-6.9024,-7.1312,-7.1312,-7.1312,-7.1312,-7.1312,-7.1312,-7.1244,0.0,0.0,0.0,0.0,0.0,0.0,0.0,0.0,-2.6333,-2.6991,-2.7051,-2.72,-2.758,-2.726,0.0,0.0,-2.761,-2.761,-2.761,-2.791,-2.8637,-2.9953,-3.1928,-3.3305,-3.3993,-3.3634,-3.3208,-3.2742,-3.3753,-3.3139,-3.1097,-3.4684,-3.5626,-3.4374,-3.6031,-3.6132,-3.5102,-3.4801,-3.4374,-3.4035,-3.5072,-3.5133,-3.4515,-3.5029,-3.5134,-3.4864,-3.4777,0.0,0.0,0.0,0.0,0.0,0.0,0.0,-3.5998,-3.5998,-3.6207,-3.7135,0.0,0.0,0.0,0.0,0.0,0.0,0.0,0.0,0.0,0.0,0.0,0.0,0.0,0.0,0.0,0.0,0.0,0.0,0.0,0.0,0.0,0.0,0.0,0.0,0.0,0.0,0.0,0.0,0.0,0.0,0.0,0.0,0.0,0.0,-6.5892,-6.5383,-6.5054,-6.4725,-6.4216,-6.3558,-6.3558,-6.3378,-6.3079,-6.3408,-6.3378,-6.3079,-6.3079,-6.4623,-6.7164,-6.7164,-6.883,-7.1312,-7.1312,-7.1312,-7.1312,-7.1312,-7.1312,-7.121,0.0,0.0,0.0,0.0,0.0,0.0,0.0,0.0,0.0,-2.746,-2.761,-2.761,-2.761,-2.761,-2.761,0.0,0.0,0.0,-2.761,-2.7679,-2.8577,-3.0432,-3.2317,-3.3425,-3.3664,-3.4203,-3.4203,-3.3664,-3.4077,-3.3264,-3.1453,-3.4952,-3.577,-3.45,-3.6056,-3.6257,-3.5403,-3.5303,-3.4726,-3.3947,-3.45,-3.4601,-3.4366,-3.4012,-3.4136,-3.4484,-3.4209,-3.4631,-3.5294,-3.5424,0.0,0.0,0.0,0.0,-3.5609,-3.6148,-3.6387,-3.7165,0.0,0.0,0.0,0.0,0.0,0.0,0.0,0.0,0.0,0.0,0.0,0.0,0.0,0.0,0.0,0.0,0.0,0.0,0.0,0.0,0.0,0.0,0.0,0.0,0.0,0.0,0.0,0.0,0.0,0.0,0.0,0.0,0.0,0.0,-6.4755,-6.4425,-6.3857,-6.3827,-6.3588,-6.3079,-6.3079,-6.3079,-6.3079,-6.3079,-6.3079,-6.3079,-6.3079,-6.4623,-6.7164,-6.7164,-6.883,-7.1312,-7.1312,-7.1312,-7.1312,-7.1312,-7.1312,-7.1176,0.0,0.0,0.0,0.0,0.0,0.0,0.0,0.0,0.0,0.0,-2.761,-2.761,-2.761,-2.761,-2.761,-2.761,-2.761,-2.761,-2.761,0.0,0.0,-3.0432,-3.1869,-3.3185,-3.4322,-3.4412,-3.4442,-3.4352,-3.3615,-3.318,-3.3036,-3.5049,-3.5057,-3.3345,-3.4525,-3.4977,-3.4801,-3.4324,-3.4022,-3.3947,-3.45,-3.4438,-3.3983,-3.4308,-3.3832,-3.3239,-3.4369,-3.4502,-3.4312,-3.5198,-3.5519,0.0,0.0,0.0,-3.5519,-3.5609,-3.6028,0.0,0.0,0.0,0.0,0.0,0.0,0.0,0.0,0.0,0.0,0.0,0.0,0.0,0.0,0.0,0.0,0.0,0.0,0.0,0.0,0.0,0.0,0.0,0.0,0.0,0.0,0.0,0.0,0.0,0.0,0.0,0.0,0.0,-6.4216,-6.4126,-6.3617,-6.3288,-6.3199,-6.3199,-6.3169,-6.3079,-6.3079,-6.3079,-6.3079,-6.3079,-6.3079,-6.3079,-6.3079,-6.4623,-6.7164,-6.7164,-6.883,-7.1312,-7.1312,-7.1312,-7.1312,-7.1312,-7.1312,-7.1109,0.0,0.0,0.0,0.0,0.0,0.0,0.0,0.0,0.0,0.0,0.0,-2.761,-2.761,-2.761,-2.761,-2.761,-2.7919,-2.8308,-2.8667,-2.9295,-2.9924,-3.0492,-3.1779,-3.2946,-3.3903,-3.4292,-3.4651,-3.504,-3.4653,-3.4404,-3.4355,-3.573,-3.5562,-3.4048,-3.5177,-3.5479,-3.5127,-3.4274,-3.4073,-3.4349,-3.4299,-3.3922,-3.3481,-3.3658,-3.3312,-3.2856,-3.3512,-3.408,-3.4646,-3.5438,-3.5857,-3.6118,-3.6477,0.0,0.0,0.0,0.0,0.0,0.0,0.0,0.0,0.0,0.0,0.0,0.0,0.0,0.0,0.0,0.0,0.0,0.0,0.0,0.0,0.0,0.0,0.0,0.0,0.0,0.0,0.0,0.0,0.0,0.0,0.0,0.0,0.0,0.0,0.0,0.0,-6.3647,-6.3498,-6.3498,-6.3228,0.0,-6.3079,-6.3079,-6.3079,-6.3079,-6.3079,-6.3079,-6.3079,-6.3079,-6.3079,-6.3079,-6.3079,-6.4209,-6.6048,-6.6855,-6.8306,-7.017,-7.1007,-7.1075,-7.0737,-7.1142,-7.0804,-7.0046,0.0,0.0,0.0,0.0,0.0,0.0,0.0,0.0,0.0,0.0,0.0,-2.761,-2.761,0.0,0.0,0.0,-2.8308,-2.8876,-2.9535,-3.0013,-3.0342,-3.0492,-3.1629,-3.2647,-3.3484,-3.4143,-3.4831,-3.5519,-3.5198,-3.5264,-3.5511,-3.6198,-3.6332,-3.6006,-3.6408,-3.6307,-3.5705,-3.4726,-3.465,-3.5052,-3.4073,-3.3445,-3.3068,-3.2918,-3.2638,-3.228,-3.2883,-3.349,-3.4297,-3.5208,-3.5867,-3.6437,-3.6912,-3.6871,0.0,0.0,0.0,0.0,0.0,0.0,0.0,0.0,0.0,0.0,0.0,0.0,0.0,0.0,0.0,0.0,0.0,0.0,0.0,0.0,0.0,0.0,0.0,0.0,0.0,0.0,0.0,0.0,0.0,0.0,0.0,0.0,0.0,0.0,-6.3109,-6.3079,-6.3079,-6.3079,-6.2899,-6.2839,-6.2839,-6.266,-6.257,-6.257,-6.257,-6.257,-6.257,-6.257,-6.257,-6.26,-6.275,-6.3538,-6.4692,-6.6139,-6.7456,-6.8752,-7.022,-7.0398,-6.9992,-7.0534,-7.006,-6.9218,0.0,0.0,0.0,0.0,0.0,0.0,0.0,0.0,0.0,0.0,0.0,-2.761,-2.761,-2.761,-2.7829,-2.8487,-2.8577,-2.8876,-2.9535,-2.9624,-2.9894,-3.0492,-3.121,0.0,-3.3455,-3.4143,-3.4831,-3.5519,-3.4543,-3.4921,-3.6634,-3.6279,-3.7335,-3.9371,-3.7839,-3.686,-3.6332,-3.573,-3.578,-3.6081,-3.3972,-3.3093,-3.3018,-3.2466,-3.1587,-3.0943,-3.2984,-3.3014,-3.2346,-3.3875,-3.5113,-3.5913,-3.5942,-3.6582,-3.7375,0.0,0.0,0.0,0.0,0.0,0.0,0.0,0.0,0.0,0.0,0.0,0.0,0.0,0.0,0.0,0.0,0.0,0.0,0.0,0.0,0.0,0.0,0.0,0.0,0.0,0.0,0.0,0.0,0.0,0.0,0.0,0.0,0.0,-6.3079,-6.3079,-6.3079,-6.3079,-6.248,-6.2151,-6.2151,-6.1523,-6.1224,-6.1224,-6.1224,-6.1224,-6.1224,-6.1224,-6.1224,-6.1253,-6.1882,-6.2566,-6.3369,-6.4678,-6.5999,-6.7361,-6.8707,-6.918,-6.9147,-6.9214,-6.918,-6.9151,0.0,0.0,0.0,0.0,0.0,0.0,0.0,0.0,0.0,0.0,0.0,0.0,0.0,-2.7979,-2.8338,-2.8577,-2.8996,-2.9684,-3.0761,-3.0432,-3.0462,-3.112,-3.1809,-3.2587,-3.3484,-3.4143,-3.4831,-3.5519,-3.5133,-3.518,-3.5675,-3.6252,-3.6901,-3.7563,-3.7663,-3.7814,-3.7889,-3.6232,-3.5855,-3.6157,-3.3972,-3.3294,-3.347,-3.2164,-3.1662,0.0,0.0,0.0,0.0,-3.4366,-3.5213,-3.6143,-3.6928,-3.7084,-3.7126,-3.7823,-3.8512,-3.9379,0.0,0.0,0.0,0.0,0.0,0.0,0.0,0.0,0.0,0.0,0.0,0.0,0.0,0.0,0.0,0.0,0.0,0.0,0.0,0.0,0.0,0.0,0.0,0.0,0.0,0.0,0.0,0.0,0.0,0.0,-6.248,-6.245,-6.2241,-6.1822,-6.1583,-6.1463,-6.1463,-6.1224,-6.1104,-6.1104,-6.1104,-6.1104,-6.1104,-6.1104,-6.0864,-6.0475,-6.0715,-6.1228,-6.2008,-6.4208,-6.5381,-6.6095,-6.8182,-6.8774,-6.8402,-6.891,-6.847,-6.7794,0.0,0.0,0.0,-2.3807,0.0,-2.4866,-2.5525,-2.6183,-2.6901,-2.7799,0.0,0.0,0.0,0.0,-2.8729,-2.9152,-2.9864,-3.0612,-3.1422,-3.1091,-3.1061,-3.1452,-3.2168,-3.2826,-3.3484,-3.4143,-3.4831,-3.5519,-3.5519,-3.5328,-3.5151,-3.6031,-3.6512,-3.6659,-3.7211,-3.799,-3.8768,0.0,0.0,-3.6709,-3.4324,-3.3796,-3.4324,-3.3219,0.0,0.0,0.0,0.0,0.0,-3.4458,-3.5001,-3.5896,-3.7197,-3.7911,-3.8517,-3.9235,-3.9559,-3.9948,-4.0816,0.0,0.0,0.0,0.0,0.0,0.0,0.0,0.0,0.0,0.0,0.0,0.0,0.0,0.0,0.0,0.0,0.0,0.0,0.0,0.0,0.0,0.0,0.0,0.0,0.0,0.0,0.0,0.0,0.0,-6.2121,-6.1882,-6.1463,-6.0805,-6.0565,-6.0326,-6.0116,-5.9877,-5.9757,-5.9757,-5.9757,-5.9757,-5.9757,-5.9757,-5.9638,-5.9428,-5.9428,-5.9817,-6.0636,-6.3311,-6.4412,-6.4706,-6.7268,-6.7996,-6.759,-6.8132,-6.7692,-6.7048,-2.4319,-2.3932,-2.3768,-2.4521,-2.4612,-2.4866,-2.5525,-2.6183,-2.7081,-2.8427,0.0,0.0,0.0,0.0,0.0,-3.041,-3.1123,-3.1453,-3.1511,-3.1453,-3.1453,-3.1453,-3.2109,-3.2796,-3.3453,-3.411,-3.4831,-3.5424,-3.5519,-3.5299,-3.5041,-3.5593,-3.63,-3.7036,-3.6558,-3.7236,-3.8768,0.0,-3.8492,-3.7739,0.0,-3.4625,-3.5629,0.0,0.0,0.0,-3.6584,-3.6157,0.0,-3.4198,-3.4375,-3.508,-3.6716,-3.9068,-4.1384,-4.1384,-4.0935,-4.0427,0.0,0.0,0.0,0.0,0.0,0.0,0.0,0.0,0.0,0.0,0.0,0.0,0.0,0.0,0.0,0.0,0.0,0.0,0.0,0.0,0.0,0.0,0.0,0.0,0.0,0.0,0.0,0.0,0.0,-6.2032,-6.2032,-6.1403,-6.0715,-6.0027,-5.9368,-5.874,-5.8112,-5.7423,-5.7094,-5.7094,-5.7094,-5.7094,-5.7094,-5.7094,-5.7483,-5.8112,-5.8112,-5.8471,-5.9362,-6.1927,-6.3004,-6.3292,-6.5855,-6.6812,-6.6812,-6.6812,-6.6812,-6.6912,-2.3671,-2.3705,-2.3943,-2.5129,-2.5345,-2.5555,-2.6213,-2.6871,-2.7619,0.0,0.0,0.0,-2.8856,-2.9139,-2.996,-3.1492,-3.0763,-3.0693,-3.1874,-3.0877,-3.0375,-3.0825,-3.1481,-3.197,-3.2139,-3.3437,-3.4205,-3.438,-3.5133,-3.4767,-3.3321,-3.4293,-3.4525,-3.4248,-3.5303,-3.6031,-3.6483,-3.6885,0.0,0.0,-3.5705,-3.6232,0.0,0.0,0.0,0.0,0.0,-3.7086,0.0,0.0,-3.6622,-3.7066,-3.7131,-3.8505,-4.0139,-4.0139,-4.0595,-4.1115,-4.1115,0.0,0.0,0.0,0.0,0.0,0.0,0.0,0.0,0.0,0.0,0.0,0.0,0.0,0.0,0.0,0.0,0.0,0.0,0.0,0.0,0.0,0.0,0.0,0.0,0.0,0.0,0.0,0.0,-6.0625,-6.0625,-5.9578,-5.865,-5.7932,-5.7752,-5.7573,-5.7393,-5.7184,-5.7094,-5.7094,-5.7094,-5.7094,-5.7094,-5.7094,-5.7483,-5.8112,-5.8112,-5.87,-5.986,-6.2102,-6.3544,-6.4505,-6.6148,-6.6812,-6.6812,-6.6812,-6.6474,-6.6151,-2.3715,-2.4148,-2.4598,-2.5322,-2.5908,-2.6418,-2.6664,-2.7365,-2.8144,0.0,0.0,0.0,-2.9232,-2.9465,-3.0078,-3.1368,-3.0627,-3.0505,-3.1368,-3.0599,-3.0239,-3.0568,-3.1241,-3.164,-3.164,-3.2779,-3.3463,-3.3463,-3.4409,-3.4048,-3.2353,-3.3704,-3.3727,-3.2792,-3.4223,-3.4726,-3.4575,0.0,0.0,0.0,-3.6157,0.0,0.0,-3.8266,-3.8768,0.0,0.0,0.0,-4.0425,-3.9295,-3.8943,0.0,0.0,0.0,-4.0407,-4.0407,-4.1097,-4.1842,-4.1842,-4.1774,-4.1983,0.0,0.0,0.0,-4.3778,-4.5125,0.0,0.0,0.0,0.0,0.0,0.0,0.0,0.0,0.0,0.0,0.0,0.0,0.0,0.0,0.0,0.0,0.0,0.0,0.0,0.0,-6.0206,-5.9428,-5.886,-5.7872,-5.7124,-5.6735,-5.6166,-5.6017,-5.6286,-5.6017,-5.6017,-5.6286,-5.6286,-5.6286,-5.6286,-5.6286,-5.6675,-5.7304,-5.7304,-5.8225,-5.9725,-6.1471,-6.2858,-6.4134,-6.5749,-6.6339,-6.6373,-6.6711,-6.6339,-6.5797,0.0,-2.504,-2.5437,-2.5464,-2.6554,-2.7315,-2.7138,-2.7872,-2.8757,0.0,-2.9323,-2.9146,-2.9495,-2.9607,-2.9963,-3.0801,-3.0732,-3.0705,-3.076,-3.0623,-3.0596,-3.0541,-3.1101,-3.14,-3.14,-3.2132,-3.2451,-3.2451,-3.3451,-3.3266,-3.2064,-3.3544,-3.3568,-3.2365,-3.342,-3.3671,-3.3345,-3.4826,0.0,-3.6282,-3.6584,-3.8291,0.0,0.0,-4.266,0.0,-4.4367,-4.4141,-4.3187,-4.2082,-4.1258,0.0,0.0,0.0,0.0,0.0,-4.1775,-4.2196,-4.2253,-4.2344,-4.2743,-4.4489,0.0,0.0,-4.3269,-4.3359,-4.3539,0.0,0.0,0.0,0.0,0.0,0.0,0.0,0.0,0.0,0.0,0.0,0.0,0.0,0.0,0.0,0.0,0.0,0.0,-6.0625,-5.9488,-5.8201,-5.6855,-5.6256,-5.5927,-5.5837,-5.47,-5.4371,-5.497,-5.4401,-5.4401,-5.497,-5.497,-5.4999,-5.5089,-5.5089,-5.5478,-5.6166,-5.6166,-5.7355,-5.9305,-6.0297,-6.1562,-6.2946,-6.4942,-6.5696,-6.5764,-6.6542,-6.6339,-6.5797,-2.5467,-2.5686,-2.6149,-2.7154,-2.7501,-2.7864,-2.831,-2.8931,-2.95,-2.9663,-3.018,-3.0477,-3.0419,-3.0719,-3.1342,-3.2299,-3.1708,-3.1371,-3.1713,-3.1059,-3.0445,-2.9985,-3.0062,-3.0113,-3.0113,-3.0992,-3.1462,-3.1462,-3.2873,-3.3028,-3.2064,-3.3198,-3.3476,-3.2943,-3.3596,-3.4098,-3.4424,-3.4751,-3.5203,-3.5855,-3.7663,0.0,-4.1907,-4.2559,-4.3714,-4.502,-4.5246,-4.5472,-4.5497,0.0,-4.2695,-4.0993,0.0,0.0,0.0,0.0,0.0,0.0,0.0,0.0,0.0,0.0,0.0,0.0,-4.318,-4.3359,-4.3718,0.0,0.0,0.0,0.0,0.0,0.0,0.0,0.0,0.0,0.0,0.0,0.0,0.0,0.0,0.0,0.0,0.0,-5.7723,-5.7872,-5.7184,-5.6166,-5.485,-5.467,-5.4341,-5.3773,-5.3503,-5.3443,-5.3563,-5.3443,-5.3443,-5.3563,-5.3563,-5.3862,-5.4401,-5.4401,-5.5059,-5.6166,-5.6166,-5.7549,-5.9691,-5.9876,-6.1141,-6.3,-6.4942,-6.5696,-6.5764,-6.6542,-6.6339,-6.5797,-2.5268,-2.5918,-2.6538,-2.7052,-2.7694,-2.8305,-2.8759,-2.9236,-2.9667,-3.0073,-3.1008,-3.1643,-3.187,-3.2089,-3.2465,-3.2937,-3.2548,-3.2212,-3.2114,-3.1458,-3.0758,-3.0231,-3.0206,-3.0206,-3.0206,-3.0957,-3.1164,-3.0907,-3.2133,-3.2323,-3.1757,-3.3091,-3.3338,-3.2692,-3.3822,-3.4148,-3.3947,-3.4776,-3.5454,-3.6132,-3.809,0.0,-4.1932,-4.3589,-4.5095,-4.6376,-4.6928,-4.7305,-4.7205,-4.497,-4.3664,0.0,0.0,-4.0311,-4.0156,0.0,-4.0972,-4.1558,0.0,0.0,0.0,-4.2761,0.0,0.0,0.0,-4.2583,0.0,0.0,0.0,0.0,0.0,0.0,0.0,0.0,0.0,0.0,0.0,0.0,0.0,0.0,0.0,0.0,0.0,0.0,-5.5658,-5.5658,-5.5359,-5.476,-5.3743,-5.3384,-5.3054,-5.2695,-5.2366,-5.2366,-5.2695,-5.2695,-5.2845,-5.3174,-5.3174,-5.3533,-5.4221,-5.4221,-5.476,-5.5688,-5.5688,-5.6434,-5.7614,-5.8776,-5.991,-6.1043,-6.3986,-6.5155,-6.529,-6.6406,-6.6102,-6.5256,-2.5134,-2.6128,-2.6959,-2.6804,-2.7798,-2.8705,-2.9001,-2.9369,-2.9925,-3.0788,-3.1863,-3.2667,-3.3043,-3.3169,-3.3319,-3.3545,-3.3169,-3.2893,-3.2867,-3.2039,-3.1311,-3.0783,-3.0959,-3.0984,-3.0758,-3.1286,-3.1336,-3.0934,-3.1628,-3.1911,-3.1738,-3.307,-3.3373,-3.2918,-3.4173,-3.4399,-3.3947,0.0,0.0,-3.6684,0.0,-3.9998,-4.148,-4.4267,-4.5999,-4.7154,-4.846,-4.8937,-4.846,-4.5447,0.0,-4.4342,-4.1806,-4.1078,0.0,0.0,0.0,0.0,0.0,0.0,0.0,0.0,0.0,-4.3564,0.0,0.0,0.0,0.0,0.0,0.0,0.0,0.0,0.0,0.0,0.0,0.0,0.0,0.0,0.0,0.0,0.0,0.0,0.0,0.0,-5.3766,-5.3886,-5.3481,-5.3054,-5.2636,-5.2007,-5.1648,-5.1648,-5.1109,-5.1169,-5.1828,-5.1828,-5.2157,-5.2785,-5.2785,-5.3174,-5.3832,-5.3952,-5.4371,-5.4999,-5.5149,-5.5381,-5.575,-5.79,-5.8902,-5.9476,-6.32,-6.4613,-6.4783,-6.6271,-6.5967,-6.4918,-2.6332,-2.6854,-2.741,-2.7821,-2.8447,-2.9026,-2.9603,-3.0133,-3.0813,-3.1888,-3.3018,-3.3545,-3.3119,-3.352,-3.4198,-3.5177,-3.3445,0.0,-3.5052,-3.3244,-3.1863,-3.1336,-3.2265,-3.2315,-3.1311,-3.1838,-3.2089,-3.2039,-3.2097,-3.2399,-3.2893,-3.3532,-3.4312,-3.5152,-3.4851,-3.5454,0.0,0.0,-3.6584,0.0,-3.9446,-4.045,0.0,-4.3664,-4.5422,-4.6677,-4.8761,-4.9515,-4.9213,0.0,-4.615,-4.507,0.0,-4.1731,0.0,0.0,0.0,0.0,0.0,0.0,0.0,0.0,-4.4509,0.0,0.0,0.0,0.0,0.0,0.0,0.0,0.0,0.0,0.0,0.0,0.0,0.0,0.0,0.0,0.0,0.0,0.0,0.0,0.0,0.0,0.0,-5.2883,-5.1001,-5.0062,-5.0541,-4.9942,-4.9583,-4.9583,-4.9523,-4.9793,-5.0451,-5.0451,-5.078,-5.1439,-5.1439,-5.1798,-5.2456,-5.3025,-5.3683,-5.4371,-5.494,-5.5819,-5.6896,-5.8268,-5.9434,-6.0666,-6.3482,-6.4613,-6.4783,-6.6271,-6.6271,-6.5662,-2.6659,-2.6892,-2.7444,-2.8021,-2.8549,-2.9227,-3.0131,-3.1562,-3.2792,-3.3571,-3.4901,-3.6081,-3.6835,0.0,0.0,0.0,0.0,0.0,0.0,0.0,-3.3219,-3.3319,-3.347,-3.3345,-3.2842,-3.3395,-3.352,-3.3194,-3.3194,-3.3319,-3.3571,-3.4123,-3.4625,-3.5077,-3.5504,0.0,-3.6282,0.0,0.0,0.0,0.0,0.0,0.0,-4.4066,-4.6225,-4.7857,-4.8786,-4.9314,-4.9339,0.0,-4.6602,0.0,0.0,0.0,0.0,0.0,0.0,0.0,0.0,0.0,0.0,0.0,0.0,0.0,0.0,0.0,-4.5727,0.0,0.0,0.0,0.0,0.0,0.0,0.0,0.0,0.0,0.0,0.0,0.0,0.0,0.0,0.0,0.0,0.0,0.0,0.0,0.0,-4.9017,-4.9205,-4.9312,-4.9254,-4.9254,-4.9254,-4.9404,-4.9673,-5.0062,-5.0361,-5.0661,-5.102,-5.1558,-5.2217,-5.2486,-5.2965,-5.3653,-5.4341,-5.4879,-5.5536,-5.7835,-5.9081,-5.9794,-6.2814,-6.4241,-6.4715,-6.5764,-6.5696,-6.5155,-2.7067,-2.7344,-2.7871,-2.8273,-2.88,-2.9528,-3.0658,-3.2566,-3.4148,-3.4851,-3.6257,0.0,-3.9521,-3.9471,0.0,0.0,0.0,-3.7839,0.0,0.0,-3.4776,-3.4726,-3.4926,0.0,-3.4349,-3.4901,-3.4977,-3.46,-3.4274,-3.4198,-3.4349,-3.4776,-3.5027,-3.5203,-3.6006,-3.6307,-3.6307,0.0,0.0,-3.8818,-4.0199,-4.1354,-4.2484,-4.4669,-4.6753,-4.856,-4.8711,-4.9113,-4.9364,-4.7857,-4.7079,0.0,-4.5924,0.0,0.0,0.0,0.0,0.0,-4.2032,0.0,0.0,0.0,0.0,0.0,0.0,0.0,0.0,0.0,0.0,0.0,0.0,0.0,-4.4526,-4.4347,0.0,0.0,0.0,0.0,0.0,0.0,0.0,0.0,0.0,0.0,0.0,0.0,0.0,0.0,-4.7454,-4.7764,-4.8087,-4.8446,-4.8626,-4.8805,-4.8985,-4.9464,-4.9883,-5.0242,-5.072,-5.1289,-5.1947,-5.2127,-5.2456,-5.2965,-5.3832,-5.4221,-5.4449,-5.7524,-5.8812,-5.9145,-6.2081,-6.3666,-6.441,-6.5358,-6.5358,-6.4986,-2.8072,-2.8499,-2.8875,-2.89,-2.9377,-3.0131,-3.121,-3.2792,-3.4299,0.0,0.0,0.0,0.0,0.0,0.0,0.0,0.0,-4.0049,-4.1103,0.0,-3.6383,0.0,0.0,0.0,0.0,-3.6031,-3.6307,-3.6332,-3.5228,-3.4977,-3.5504,-3.5504,-3.5805,-3.6307,-3.6332,-3.6935,-3.7939,-3.799,-3.8944,-4.0501,-4.1078,-4.261,-4.4593,0.0,-4.6502,-4.8008,-4.856,0.0,0.0,-4.8259,-4.7883,0.0,0.0,0.0,0.0,0.0,0.0,0.0,0.0,0.0,0.0,-4.3489,0.0,0.0,0.0,0.0,-4.7891,0.0,0.0,0.0,0.0,-4.5723,-4.5065,-4.4407,-4.4287,0.0,0.0,0.0,0.0,0.0,0.0,0.0,0.0,0.0,0.0,0.0,0.0,0.0,-4.4617,-4.4527,-4.5065,-4.6381,-4.704,-4.7668,-4.8327,-4.8327,-4.8985,-5.0242,-5.0272,-5.0601,-5.1259,-5.1917,-5.2217,-5.2306,-5.3623,-5.4221,-5.4449,-5.7524,-5.8812,-5.9081,-6.1513,-6.2888,-6.3734,-6.5155,-6.5662,-6.5662,-2.9227,-2.9377,-2.9377,-2.9001,0.0,-3.0834,-3.229,-3.4223,0.0,0.0,0.0,0.0,0.0,0.0,-4.3289,0.0,0.0,-3.9988,-4.0985,-3.8803,0.0,0.0,0.0,-3.7739,0.0,-3.7362,-3.7287,-3.6935,-3.6533,-3.6257,-3.6081,-3.6081,-3.6383,-3.691,-3.691,-3.7312,0.0,0.0,0.0,0.0,0.0,-4.4091,-4.5723,0.0,0.0,-4.7933,-4.8134,-4.8812,0.0,-4.9163,-4.8786,-4.8485,-4.8485,-4.7832,-4.7054,-4.6853,-4.6928,0.0,0.0,0.0,-4.7857,-4.5296,0.0,0.0,0.0,0.0,0.0,0.0,0.0,0.0,0.0,-4.6411,-4.5753,-4.5065,-4.4586,-4.3629,0.0,0.0,0.0,0.0,0.0,0.0,0.0,0.0,0.0,0.0,0.0,0.0,0.0,-4.4216,-4.5031,-4.4975,-4.6501,-4.7429,-4.7638,-4.8506,-4.8925,-4.8955,-5.0272,-5.078,-5.0601,-5.1259,-5.1558,-5.1588,-5.2486,-5.3114,-5.3759,-5.6924,-5.8364,-5.9081,-6.148,-6.2854,-6.3632,-6.4613,-6.4952,-6.4952,-2.9702,-2.9804,-2.9679,-2.9302,0.0,0.0,0.0,0.0,0.0,0.0,-4.2484,0.0,-4.7908,0.0,-4.5208,0.0,-4.2986,-4.1142,-4.0693,-3.9584,0.0,-3.8947,-3.881,0.0,0.0,-3.829,-3.814,-3.7789,-3.7588,-3.7287,-3.6935,-3.6935,-3.7136,-3.7487,-3.7688,-3.799,0.0,0.0,-3.9923,0.0,0.0,-4.4443,0.0,0.0,-4.6627,0.0,0.0,-4.836,-4.9314,-4.9314,-4.9314,-4.9414,-4.9766,-4.9389,-4.8761,-4.856,-4.8636,-4.8586,-4.7657,-4.8485,0.0,0.0,-4.6878,0.0,-4.5846,0.0,0.0,0.0,0.0,0.0,0.0,-4.6668,-4.5898,-4.5669,-4.5095,-4.3988,0.0,-4.1354,0.0,0.0,0.0,0.0,0.0,0.0,0.0,0.0,0.0,0.0,0.0,0.0,-4.4507,-4.4376,-4.6342,-4.7352,-4.7309,-4.8386,-4.8835,-4.8656,-5.0152,-5.0661,-5.0272,-5.093,-5.1079,-5.093,-5.1828,-5.2456,-5.3068,-5.6451,-5.8069,-5.8727,-6.138,-6.2685,-6.3193,-6.3937,-6.4377,-6.4647,-2.9596,-2.988,-2.993,-2.9955,-3.1235,0.0,0.0,0.0,-3.9973,0.0,-4.3526,-4.6406,-4.8609,-4.7544,-4.7011,-4.7978,-4.5938,0.0,-4.0356,-4.089,0.0,0.0,-3.8686,-3.9637,-3.8718,-3.8908,0.0,-3.8919,-3.8366,-3.8065,-3.8015,-3.8015,-3.8015,-3.804,-3.8617,0.0,-3.8868,-3.9446,-4.0325,-4.148,-4.3112,-4.384,-4.4041,-4.5045,0.0,-4.8586,-4.7531,-4.7832,-4.8736,-4.8761,-4.9515,-5.0419,-5.0444,-5.0494,-5.0444,-4.9891,-5.0117,-5.0193,-4.856,-4.8912,-4.949,-4.8309,0.0,0.0,0.0,0.0,-4.8213,0.0,0.0,0.0,0.0,0.0,-4.5634,-4.6156,-4.5693,-4.4526,-4.2641,-4.2372,0.0,0.0,0.0,0.0,0.0,0.0,0.0,0.0,0.0,0.0,0.0,0.0,0.0,-4.437,-4.6546,-4.7589,-4.7309,-4.7967,-4.8596,-4.9224,-4.9883,-5.0182,-5.0212,-5.087,-5.084,-5.0301,-5.1588,-5.2187,-5.2467,-5.623,-5.778,-5.8139,-6.1213,-6.2415,-6.2516,-6.3294,-6.4038,-6.4749,-3.0219,-3.106,-3.1738,-3.2164,-3.2566,-3.347,0.0,0.0,0.0,0.0,-4.5453,-4.7209,-4.9463,-4.6774,-4.5075,-4.5512,-4.3705,0.0,0.0,0.0,0.0,-4.0581,-4.0078,-4.0022,-4.034,-4.0021,0.0,-3.9471,-3.9346,-3.8843,-3.8015,-3.8015,-3.8015,-3.804,-3.8617,-3.8617,-3.8291,-3.927,-4.0325,-4.1455,-4.2685,-4.4192,0.0,0.0,-4.62,-4.8033,-4.738,-4.7556,-4.8184,-4.8636,-4.9515,-5.0494,-5.0921,-5.1624,-5.2176,-5.1624,-5.185,-5.2101,-5.1247,-5.1548,-5.1699,-5.0167,-4.9766,-4.9417,0.0,0.0,0.0,0.0,0.0,0.0,0.0,0.0,0.0,-4.6304,-4.4915,-4.3479,-4.2491,0.0,0.0,0.0,0.0,0.0,0.0,0.0,0.0,0.0,0.0,0.0,0.0,0.0,0.0,-4.3013,-4.6051,-4.7589,-4.7309,-4.7967,-4.8386,-4.8536,-4.9194,-4.9523,-4.9523,-5.0182,-5.0391,-5.0301,-5.1109,-5.1738,-5.2437,-5.5695,-5.7332,-5.8139,-6.1213,-6.2719,-6.3328,-6.4038,-6.4783,-6.5527,-3.0984,-3.239,-3.3495,-3.4048,0.0,0.0,-3.7515,0.0,0.0,-4.5121,-4.6172,0.0,-4.8657,-4.6095,-4.4579,-4.4886,-4.3118,0.0,0.0,0.0,0.0,-4.0654,-4.0359,-4.0192,-4.0011,-3.9379,0.0,-3.8383,0.0,-3.8056,-3.6805,-3.8111,-3.8415,-3.778,-3.8866,-3.9044,0.0,-3.9672,-4.0551,-4.143,-4.2534,0.0,0.0,-4.4694,-4.5397,-4.6476,-4.6426,-4.6903,-4.7657,-4.8209,-4.9138,-5.0193,-5.1021,-5.1875,-5.2553,-5.2477,-5.2678,-5.2854,-5.2553,-5.2678,-5.2703,-5.1749,-5.1523,-5.1071,-4.9389,-5.0206,-5.071,0.0,0.0,0.0,0.0,0.0,0.0,-4.6307,-4.5125,-4.4077,0.0,0.0,0.0,0.0,0.0,0.0,0.0,0.0,0.0,0.0,0.0,0.0,0.0,0.0,0.0,-4.3178,-4.6675,-4.8216,-4.7448,-4.8779,-4.9186,-4.8716,-4.9105,-4.9404,-4.9703,-5.0062,-5.0242,-5.0272,-5.093,-5.1439,-5.1987,-5.5065,-5.6531,-5.7184,-6.0612,-6.2584,-6.3599,-6.4343,-6.5053,-6.5764,-3.1528,-3.3568,-3.4902,0.0,0.0,0.0,0.0,-4.126,0.0,-4.4981,0.0,-4.6467,-4.6887,-4.5331,-4.4452,0.0,0.0,-4.1797,-4.0312,-4.1269,-4.0996,-3.9004,-4.0121,-4.0286,-3.9176,-3.8312,0.0,0.0,0.0,-3.6773,-3.5617,-3.8243,-3.8792,-3.7796,-3.9129,0.0,0.0,-4.0099,-4.0651,0.0,-4.2434,-4.3011,-4.3288,-4.4267,-4.4719,-4.4895,-4.5321,-4.615,-4.7104,-4.7707,-4.8611,-4.969,-5.0896,-5.1649,-5.2226,-5.2754,-5.2929,-5.2929,-5.2929,-5.2929,-5.2929,-5.2929,-5.2929,-5.2553,-5.1071,-5.0695,-5.0193,-4.8661,-4.7481,0.0,0.0,0.0,0.0,-4.6399,-4.5873,0.0,0.0,0.0,0.0,0.0,0.0,0.0,0.0,0.0,0.0,0.0,0.0,0.0,0.0,0.0,0.0,0.0,-4.7503,0.0,-4.8195,0.0,-5.0161,-4.9644,-4.9224,-4.9404,-5.0122,-5.0122,-5.0152,-5.0272,-5.093,-5.1229,-5.1446,-5.4592,-5.6156,-5.6867,-6.0157,-6.2313,-6.3599,-6.4106,-6.4884,-6.5696,0.0,0.0,0.0,0.0,0.0,-3.9494,0.0,-4.2163,-4.2668,-4.3825,-4.4387,0.0,-4.4592,-4.3014,-4.2033,-4.2823,-4.2582,0.0,0.0,0.0,0.0,-4.0762,-4.0676,-4.0572,-4.063,-3.9101,-3.8143,0.0,-3.6793,-3.6576,-3.7133,-3.769,-3.8348,-3.9362,-3.9569,0.0,-3.9019,-3.912,0.0,-4.0752,-4.1856,-4.3112,-4.4367,-4.4543,-4.5196,-4.5974,-4.5623,-4.5899,-4.6602,-4.7581,-4.836,-4.9188,-5.077,-5.1649,-5.2226,-5.2754,-5.2929,-5.2929,-5.2929,-5.2929,-5.2929,-5.2929,-5.2929,-5.2854,-5.2553,-5.2126,-5.1599,-5.0845,-4.9791,-4.8913,-4.8811,0.0,0.0,0.0,0.0,0.0,0.0,0.0,0.0,0.0,0.0,0.0,0.0,0.0,0.0,0.0,0.0,0.0,0.0,0.0,0.0,0.0,0.0,0.0,0.0,0.0,0.0,-5.1518,-4.8883,-4.8267,-4.9434,-4.9434,-4.9733,-5.0272,-5.093,-5.1229,-5.1476,-5.5096,-5.8409,-6.13,-6.1919,-6.2753,-6.3463,-6.2956,-6.4005,-6.5764,0.0,0.0,0.0,0.0,0.0,0.0,0.0,-4.1401,0.0,-4.3565,-4.2942,-4.2481,-4.271,-4.1975,-4.1758,-4.2363,-4.2637,-4.2578,-4.2129,-4.2305,-4.2051,-4.1211,-4.0976,0.0,-4.0418,-3.8566,-3.7269,-3.6665,-3.5489,-3.5106,-3.5536,-3.6059,-3.7156,-3.8558,-3.9063,-3.927,0.0,0.0,0.0,-4.1003,-4.1831,-4.2986,-4.4242,-4.4518,-4.5146,-4.5849,-4.5573,-4.5849,-4.6476,-4.7556,-4.8083,-4.8661,-5.0645,-5.1473,-5.185,-5.2678,-5.2929,-5.2929,-5.2929,-5.2929,-5.2929,-5.2929,-5.2929,-5.2929,-5.2929,-5.2503,-5.195,-5.1398,-5.0619,-4.9799,-4.9083,-4.8327,0.0,0.0,0.0,0.0,0.0,0.0,0.0,0.0,0.0,0.0,0.0,0.0,0.0,0.0,0.0,0.0,0.0,0.0,0.0,0.0,0.0,0.0,0.0,0.0,0.0,-5.0878,-4.9021,-4.8641,-4.9763,-4.9404,-4.9823,-5.078,-5.1079,-5.1572,-5.2306,-5.5709,-5.8753,-6.1231,-6.167,-6.2279,-6.299,-6.3396,-6.4208,-6.5189,0.0,-3.377,0.0,0.0,-3.7827,0.0,0.0,-4.0773,-4.1314,-4.29,-4.1791,-4.0963,-4.129,-4.1589,-4.1836,-4.2266,-4.2695,-4.2617,-4.1855,-4.2187,-4.2051,-4.1211,-4.1172,-4.082,-4.0039,-3.8008,-3.6426,0.0,-3.4146,-3.3547,-3.3602,-3.4466,-3.5836,0.0,0.0,0.0,0.0,0.0,-4.0049,-4.1404,-4.2183,-4.3162,-4.4217,-4.4769,-4.5347,-4.5824,-4.5698,-4.61,-4.6778,-4.7631,-4.7908,-4.8309,-5.0569,-5.1272,-5.1498,-5.2603,-5.2929,-5.2929,-5.2929,-5.2929,-5.2929,-5.2929,-5.2929,-5.2929,-5.2929,-5.2503,-5.1975,-5.1548,-5.0896,-5.0153,-4.9411,-4.8546,0.0,0.0,0.0,0.0,0.0,0.0,0.0,0.0,0.0,0.0,0.0,0.0,0.0,0.0,0.0,0.0,0.0,0.0,0.0,0.0,0.0,0.0,-4.775,0.0,-5.0398,0.0,-4.9149,-4.9169,-5.0032,-4.9643,-5.0122,-5.1229,-5.1479,-5.2397,-5.4025,-5.6613,-5.8685,-6.0452,-6.14,-6.2042,-6.2584,-6.4072,-6.4613,-6.4613,0.0,0.0,0.0,0.0,0.0,0.0,0.0,-4.1033,-4.121,-4.1381,-4.1227,-4.1246,-4.1286,-4.1288,-4.1406,-4.1816,-4.2246,-4.2285,-4.1836,-4.2187,-4.2051,-4.1211,-4.1172,-4.0957,-4.0469,-3.8711,-3.7012,0.0,0.0,-3.2995,0.0,-3.3212,-3.4825,0.0,0.0,0.0,0.0,-3.9948,-4.0752,-4.148,-4.3037,-4.4317,-4.5397,-4.5949,-4.6502,-4.6903,-4.6401,-4.6878,-4.7782,-4.7883,-4.7908,-4.8309,-5.0569,-5.1272,-5.1498,-5.2603,-5.2929,-5.2929,-5.2929,-5.2929,-5.2929,-5.2929,-5.2929,-5.2929,-5.2929,-5.2503,-5.2101,-5.2051,-5.1172,-5.0254,-4.9933,-4.9351,-4.8846,0.0,0.0,0.0,0.0,0.0,0.0,0.0,0.0,0.0,0.0,0.0,0.0,0.0,0.0,0.0,0.0,0.0,0.0,0.0,0.0,-4.6253,-4.9267,-4.8204,0.0,-5.0963,-4.9148,-4.8685,-4.9374,-4.9912,-5.0541,-5.1229,-5.2305,-5.4347,-5.7051,-5.8016,-5.9531,-6.1332,-6.2753,-6.2922,-6.2584,-6.4072,-6.4613,-6.4681,0.0,0.0,0.0,0.0,0.0,0.0,0.0,-4.1164,-4.1172,-4.1172,-4.1172,-4.1172,-4.1172,-4.1172,-4.125,-4.1406,-4.2031,-4.2148,-4.1465,-4.2051,-4.2051,-4.1211,-4.1172,-4.1094,-4.0918,-3.9453,-3.8105,0.0,0.0,0.0,0.0,-3.3268,0.0,0.0,0.0,-3.897,-3.9898,-4.0676,-4.153,-4.2459,-4.4141,-4.5271,-4.605,-4.6602,-4.7129,-4.7531,-4.7004,-4.728,-4.7958,-4.8309,-4.8435,-4.8761,-5.067,-5.1272,-5.1498,-5.2603,-5.2929,-5.2929,-5.2929,-5.2929,-5.2929,-5.2929,-5.2929,-5.2929,-5.2929,-5.2251,-5.1599,-5.1599,-5.072,-4.9845,-4.9773,-4.9715,-4.9754,0.0,0.0,0.0,0.0,0.0,0.0,0.0,0.0,0.0,0.0,0.0,0.0,0.0,0.0,0.0,0.0,0.0,0.0,-4.0016,0.0,-4.4158,-4.7316,-4.7935,-4.8921,-5.035,-4.9597,-4.9482,-4.9853,-5.0122,-5.0939,-5.2305,-5.3427,-5.5256,-5.7503,-5.8864,-6.0169,-6.1467,-6.2922,-6.3328,-6.326,-6.4715,-6.5256,-6.5358,-3.5762,0.0,-3.6934,0.0,-3.9258,-3.9746,-4.0976,-4.1172,-4.1172,-4.1172,-4.1289,-4.1308,-4.1191,-4.1387,-4.1445,-4.1191,-4.2051,-4.2266,-4.1406,-4.2148,-4.2305,-4.1562,-4.1426,0.0,-4.1348,-4.0195,-3.9101,-3.8105,-3.666,0.0,-3.5169,0.0,0.0,0.0,-3.6695,-3.8561,-4.0474,-4.1188,-4.2389,-4.384,-4.5372,-4.6301,-4.6828,-4.7205,-4.7682,-4.8083,-4.7556,-4.7807,-4.8435,-4.8686,-4.8987,-4.949,-5.0845,-5.1398,-5.1699,-5.2653,-5.2929,-5.2929,-5.2929,-5.2929,-5.2929,-5.2929,-5.2929,-5.2929,-5.2929,-5.2201,-5.1423,-5.1096,-5.0393,-4.9791,-4.9615,-4.9643,-4.9861,0.0,0.0,0.0,0.0,0.0,0.0,0.0,-4.2282,-4.1534,-4.0756,0.0,0.0,0.0,0.0,0.0,0.0,0.0,0.0,0.0,0.0,0.0,0.0,-4.7364,-4.8714,-4.9389,-4.9573,-4.9874,-5.0242,-5.0421,-5.1546,-5.3396,-5.4253,-5.5832,-5.8008,-5.9472,-6.0588,-6.1467,-6.3159,-6.37,-6.37,-6.5392,-6.5865,-6.5797,-3.7031,-3.7949,-3.8945,-4.0273,-4.0859,-4.1152,-4.1172,-4.1172,-4.1172,-4.1172,-4.1543,-4.1641,-4.1211,-4.1914,-4.207,-4.125,-4.2344,-4.2715,-4.1855,-4.2598,-4.2871,0.0,0.0,-4.1797,-4.1797,-4.0937,-3.9863,-3.8574,0.0,-3.6172,-3.4171,0.0,-3.4575,-3.5014,-3.6522,-3.841,-4.05,-4.1567,-4.343,-4.5547,-4.6677,-4.7431,-4.7883,-4.7908,-4.8259,-4.8686,-4.8109,-4.8636,-4.949,-4.8962,-4.949,-5.0494,-5.1096,-5.1649,-5.2201,-5.2754,-5.2929,-5.2929,-5.2929,-5.2929,-5.2929,-5.2929,-5.2929,-5.2929,-5.2929,-5.2503,-5.1774,-5.067,-5.0419,-5.0243,-4.969,-4.9138,-4.8683,-4.8264,0.0,0.0,0.0,0.0,0.0,0.0,-4.4855,-4.4227,-4.1624,0.0,0.0,0.0,0.0,0.0,0.0,0.0,0.0,-3.9409,-4.1983,0.0,-4.4317,-4.6292,-4.7638,-4.8297,-4.9044,-4.9583,-5.0272,-5.09,-5.2395,-5.4589,-5.4589,-5.6235,-5.9066,-5.981,-6.0588,-6.1535,-6.3734,-6.414,-6.3768,-6.6,-6.6339,-6.5797,-3.9297,-3.9707,-4.0137,-4.084,-4.1074,-4.1172,-4.1172,-4.1172,-4.1172,-4.1172,-4.1797,-4.207,-4.1641,-4.209,-4.2324,0.0,-4.2676,-4.2832,0.0,-4.2754,-4.2891,-4.2441,-4.2305,-4.209,-4.1816,-4.1543,-4.0762,-3.9473,0.0,0.0,0.0,-3.5627,-3.5787,-3.6311,-3.7254,-3.8575,-4.0263,-4.2685,-4.4123,-4.5008,-4.7283,-4.836,-4.8485,-4.8485,-4.8837,-4.9264,-4.8686,-4.8962,-4.9615,-4.9816,-5.0393,-5.1096,-5.1674,-5.1699,-5.1724,-5.2653,-5.2653,-5.2452,-5.2829,-5.2929,-5.2929,-5.2929,-5.2929,-5.2929,-5.2929,-5.2503,-5.1774,-5.0645,-5.0419,-5.0142,-4.9213,-4.8887,-4.8683,-4.8472,0.0,0.0,0.0,0.0,0.0,0.0,-4.3718,-4.2791,0.0,-4.2162,0.0,0.0,0.0,0.0,0.0,0.0,0.0,0.0,-4.2013,0.0,-4.4975,-4.6531,-4.7848,-4.8955,-4.9164,-4.9853,-5.09,-5.1109,-5.2731,-5.5325,-5.5325,-5.7364,-6.0588,-6.0825,-6.167,-6.2922,-6.414,-6.4749,-6.5155,-6.6373,-6.6677,-6.6474,-4.041,-4.0644,-4.0859,-4.1133,-4.1172,-4.1172,-4.1172,-4.1172,-4.1172,-4.1172,-4.1758,-4.2148,-4.2051,-4.2422,0.0,-4.2441,-4.2969,0.0,-4.2695,-4.3066,-4.3183,-4.291,-4.2754,-4.2558,-4.2285,0.0,0.0,-4.0605,-3.9961,-3.8867,-3.7383,-3.6777,-3.6737,-3.7116,-3.7563,-3.8583,-4.0149,-4.2301,-4.3955,-4.5181,-4.7231,-4.865,-4.9364,-4.9163,-4.9565,-5.0142,-4.959,-4.9615,-4.9992,-5.0544,-5.0845,-5.1046,-5.1624,-5.1548,-5.1498,-5.2603,-5.2678,-5.2477,-5.2829,-5.2929,-5.2929,-5.2929,-5.2929,-5.2929,-5.2929,-5.2503,-5.185,-5.0921,-5.0569,-5.0067,-4.8987,-4.8435,-4.8103,-4.7741,0.0,-4.6062,-4.6869,0.0,0.0,0.0,0.0,0.0,0.0,-4.309,0.0,0.0,0.0,0.0,0.0,0.0,0.0,-4.1713,-4.2641,0.0,-4.5663,-4.701,-4.8207,-4.9284,-4.9763,-5.0571,-5.1588,-5.1588,-5.2979,-5.5455,-5.5889,-5.7836,-6.0684,-6.1109,-6.2009,-6.3193,-6.4208,-6.4884,-6.5392,-6.644,-6.6812,-6.6779,-4.0566,-4.0898,0.0,0.0,-4.1172,0.0,-4.1172,-4.1172,-4.1172,-4.1172,-4.1543,-4.1953,-4.2383,-4.2812,-4.2949,-4.2598,0.0,0.0,0.0,-4.3496,-4.3711,-4.3711,-4.332,0.0,-4.3086,-4.2266,-4.1816,-4.1758,-4.0137,-3.9121,-3.8691,-3.7891,-3.75,-3.75,-3.7891,-3.8788,-3.9958,-4.0933,-4.3112,-4.6012,-4.6594,-4.8318,-5.0419,-4.9916,-5.0368,-5.1222,-5.067,-5.0469,-5.0569,-5.1147,-5.0971,-5.0645,-5.1222,-5.1398,-5.1599,-5.2578,-5.2879,-5.2879,-5.2929,-5.2929,-5.2929,-5.2929,-5.2929,-5.2929,-5.2929,-5.2528,-5.2,-5.1398,-5.0845,-5.0117,-4.8937,-4.7857,-4.6903,-4.625,-4.4944,-4.4175,-4.4829,0.0,0.0,0.0,0.0,0.0,0.0,-4.4885,-4.4496,0.0,0.0,0.0,0.0,0.0,-4.2462,-4.2432,-4.3688,-4.5035,-4.6381,-4.7638,-4.8626,-4.9344,-5.0661,-5.1618,-5.2187,-5.2247,-5.3243,-5.5039,-5.6151,-5.77,-5.9564,-6.0751,-6.1728,-6.2505,-6.3971,-6.458,-6.485,-6.6237,-6.6745,-6.6643,0.0,0.0,-4.1172,-4.1172,-4.1172,-4.1172,-4.1172,-4.1172,-4.1172,-4.1172,-4.1543,-4.1953,-4.2383,-4.2812,-4.3301,-4.3887,-4.3789,-4.3808,-4.4062,-4.3848,-4.3711,-4.3711,-4.3613,-4.3398,-4.3086,-4.2558,-4.1973,-4.1328,-4.0918,-4.0488,-4.0059,-3.9863,-3.959,-3.9277,-3.9394,-3.9652,-3.9997,-4.1585,-4.3608,-4.5779,-4.7416,-4.9217,-5.1071,-5.0946,-5.1046,-5.1272,-5.1122,-5.1071,-5.1172,-5.1724,-5.1825,-5.18,-5.2377,-5.2528,-5.2503,-5.2352,-5.2302,-5.2402,-5.2804,-5.2929,-5.2929,-5.2929,-5.2929,-5.2929,-5.2929,-5.2829,-5.2452,-5.1473,-5.1172,-5.0469,-4.8485,-4.7581,-4.6527,-4.4694,-4.3447,-4.3018,-4.4283,-4.3405,-4.3584,0.0,-4.5603,-4.5244,-4.5065,-4.4736,-4.4556,0.0,0.0,0.0,0.0,0.0,-4.3629,-4.312,-4.4377,-4.5723,-4.707,-4.7878,-4.8865,-5.0032,-5.1349,-5.2067,-5.2217,-5.2725,-5.394,-5.5721,-5.6092,-5.72,-5.9088,-6.0271,-6.1202,-6.1983,-6.3242,-6.4444,-6.5459,-6.5831,-6.5967,-6.6,-4.1172,-4.1172,-4.1172,-4.1172,-4.1172,-4.1172,-4.1172,-4.1172,-4.1172,-4.1172,-4.1543,-4.1953,-4.2383,-4.2812,-4.3437,-4.4316,-4.3965,-4.3906,-4.4375,-4.3965,-4.3711,-4.3711,-4.3711,-4.3594,-4.3359,-4.2949,-4.2305,-4.1465,-4.1465,-4.125,-4.082,-4.082,-4.0586,-4.0195,-4.0391,-4.0254,-4.0053,-4.1093,-4.3214,-4.5737,-4.6701,-4.8834,-5.1624,-5.1373,-5.1599,-5.2,-5.1749,-5.1649,-5.1749,-5.2302,-5.2151,-5.1825,-5.2377,-5.2553,-5.2503,-5.2201,-5.2277,-5.2553,-5.2854,-5.2929,-5.2929,-5.2929,-5.2929,-5.2929,-5.2929,-5.2729,-5.2302,-5.1448,-5.1071,-5.0268,-4.8284,-4.7079,-4.5824,-4.4091,-4.2459,-4.2006,-4.3627,-4.3078,-4.3336,-4.562,-4.5813,-4.5633,-4.5334,-4.5544,-4.5574,-4.5304,0.0,0.0,-4.4227,-4.4556,-4.4466,-4.3808,-4.5364,-4.6711,-4.7758,-4.8716,-4.9673,-5.069,-5.1708,-5.2366,-5.2665,-5.3354,-5.4375,-5.5633,-5.6244,-5.6996,-5.8116,-6.0229,-6.1113,-6.1414,-6.3295,-6.4478,-6.5189,-6.5189,-6.5628,-6.617,-4.1191,-4.123,-4.1269,-4.1269,-4.1211,-4.1211,-4.1348,-4.125,-4.1191,-4.125,-4.1582,-4.1953,-4.2383,-4.2812,-4.3437,-4.4316,-4.3965,-4.3926,-4.4453,-4.4004,-4.373,-4.3808,-4.3808,-4.3769,-4.3711,-4.3301,-4.2695,-4.1894,-4.1894,-4.1719,-4.1367,-4.1308,-4.1074,-4.0723,-4.1035,-4.0762,-4.0117,-4.0469,-4.2575,-4.5819,-4.5819,-4.8357,-5.2176,-5.1699,-5.2126,-5.2879,-5.2402,-5.2226,-5.2302,-5.2779,-5.2302,-5.1599,-5.2076,-5.2226,-5.2226,-5.2226,-5.2553,-5.2929,-5.2929,-5.2929,-5.2929,-5.2929,-5.2929,-5.2929,-5.2929,-5.2503,-5.195,-5.1398,-5.082,-4.9916,-4.8209,-4.6577,-4.5095,-4.3865,-4.1907,-4.108,-4.2792,0.0,-4.3301,-4.5247,-4.6177,-4.6441,-4.5933,-4.683,-4.698,-4.5843,-4.5574,0.0,0.0,-4.5544,-4.5334,-4.4796,-4.6531,-4.7818,-4.8566,-4.9883,-5.081,-5.1379,-5.2127,-5.2785,-5.3354,-5.4042,-5.467,-5.528,-5.6372,-5.6858,-5.7112,-6.0039,-6.1012,-6.0844,-6.3249,-6.4383,-6.4749,-6.4647,-6.5459,-6.6474,-4.1308,-4.1465,-4.1699,-4.1699,-4.1406,-4.1406,-4.2129,-4.1621,-4.1308,-4.166,-4.1758,-4.1953,-4.2383,-4.2812,-4.3437,-4.4316,-4.3965,-4.4062,-4.4883,-4.416,-4.3887,-4.4277,-4.4297,-4.4101,-4.3711,-4.3301,-4.2832,-4.2324,-4.2324,-4.2285,-4.2226,-4.1875,-4.166,-4.1582,-4.1308,-4.1094,-4.0976,-4.1035,-4.3235,-4.6805,-4.6805,-4.9203,-5.2779,-5.2703,-5.2779,-5.2929,-5.2829,-5.2804,-5.2804,-5.2904,-5.2804,-5.2678,-5.2779,-5.2804,-5.2804,-5.2804,-5.2854,-5.2929,-5.2929,-5.2929,-5.2929,-5.2929,-5.2929,-5.2929,-5.2929,-5.2503,-5.195,-5.1398,-5.082,-4.9916,-4.8209,-4.6577,-4.497,-4.3363,-4.1656,-4.0796,-4.1769,0.0,-4.4069,-4.6032,-4.7229,-4.8147,-4.8596,-4.8327,-4.8057,-4.7848,-4.68,-4.6172,-4.6172,-4.6681,-4.695,-4.683,-4.7668,-4.8716,-4.9912,-5.1229,-5.1947,-5.2067,-5.3294,-5.3952,-5.4072,-5.473,-5.5089,-5.5209,-5.5951,-5.6293,-5.6425,-5.8473,-5.9886,-6.0876,-6.171,-6.3484,-6.5425,-6.4816,-6.5121,-6.5933,-4.1621,-4.1738,-4.1816,-4.1523,-4.1816,-4.209,-4.209,-4.1953,-4.1914,-4.2109,-4.2344,-4.2558,-4.2754,-4.3164,-4.3574,-4.3984,-4.3828,-4.4082,-4.4961,-4.4433,-4.418,-4.4394,-4.4609,-4.4531,-4.4082,-4.3887,-4.3457,-4.2773,-4.2773,-4.2656,-4.2422,-4.2226,-4.2129,-4.2129,-4.1699,-4.1504,-4.1641,-4.245,-4.4398,-4.7029,-4.8217,-5.0269,-5.2929,-5.2929,-5.2929,-5.2929,-5.2929,-5.2929,-5.2929,-5.2929,-5.2929,-5.2929,-5.2929,-5.2929,-5.2929,-5.2929,-5.2929,-5.2929,-5.2929,-5.2929,-5.2929,-5.2929,-5.2929,-5.2929,-5.2929,-5.2503,-5.195,-5.1398,-5.082,-4.9916,-4.8209,-4.6326,-4.4869,-4.4418,-4.2557,0.0,0.0,-4.4193,-4.5438,-4.631,-4.7818,-4.8925,-4.9224,-4.8985,-4.8805,-4.8805,-4.7908,-4.7549,-4.7908,-4.7848,-4.8147,-4.8865,-4.9194,-4.9793,-5.075,-5.1708,-5.2187,-5.2217,-5.3563,-5.4221,-5.4221,-5.488,-5.5179,-5.5239,-5.5897,-5.6166,-5.6329,-5.8662,-5.9425,-5.9507,-6.141,-6.304,-6.417,-6.3997,-6.4986,-6.6237,-4.2207,-4.2187,-4.2129,-4.1699,-4.2266,-4.2637,-4.2168,-4.2207,-4.2324,-4.2422,-4.2715,-4.2969,-4.3066,-4.3457,-4.3711,-4.3711,-4.3808,-4.416,-4.4844,-4.4766,-4.4687,-4.4687,-4.4902,-4.4922,-4.4707,-4.4492,-4.4062,-4.3379,-4.3281,-4.3047,-4.2715,-4.2519,-4.2422,-4.2402,-4.1894,-4.166,-4.1778,-4.3351,-4.5276,-4.7175,-4.9224,-5.1163,-5.2929,-5.2929,-5.2929,-5.2929,-5.2929,-5.2929,-5.2929,-5.2929,-5.2929,-5.2929,-5.2929,-5.2929,-5.2929,-5.2929,-5.2929,-5.2929,-5.2929,-5.2929,-5.2929,-5.2929,-5.2929,-5.2929,-5.2929,-5.2503,-5.1975,-5.1548,-5.0921,-4.9992,-4.856,-4.6602,-4.5171,-4.5095,0.0,0.0,0.0,-4.4798,-4.6109,-4.6567,-4.8429,-4.9763,-4.9942,-4.9942,-4.9823,-4.9523,-4.9015,-4.8895,-4.9254,-4.8925,-4.9344,-5.0661,-5.0541,-5.078,-5.1439,-5.2097,-5.2516,-5.2695,-5.3862,-5.4431,-5.4461,-5.497,-5.5179,-5.5239,-5.6047,-5.6376,-5.6569,-5.8971,-5.9294,-5.8736,-6.1418,-6.2727,-6.3099,-6.3766,-6.5189,-6.6643,-4.3144,-4.2988,-4.2988,-4.2949,-4.2676,-4.2578,-4.293,-4.2324,-4.1992,-4.2383,-4.2461,-4.2637,-4.3027,-4.3457,-4.3711,-4.3711,-4.4101,-4.4375,-4.4433,-4.5156,-4.5586,-4.5586,-4.5234,-4.5195,-4.5566,-4.4805,-4.4355,-4.4297,-4.3867,-4.3633,-4.3594,-4.2793,-4.2422,-4.2402,-4.1582,-4.1211,-4.1366,-4.3228,-4.5276,-4.7175,-4.9224,-5.1163,-5.2929,-5.2929,-5.2929,-5.2929,-5.2929,-5.2929,-5.2929,-5.2929,-5.2929,-5.2929,-5.2929,-5.2929,-5.2929,-5.2929,-5.2929,-5.2929,-5.2929,-5.2929,-5.2929,-5.2929,-5.2929,-5.2929,-5.2929,-5.2503,-5.2101,-5.2051,-5.1172,-5.0218,-4.959,-4.8083,-4.6276,-4.4242,0.0,0.0,-4.0857,-4.2991,-4.5316,-4.704,-4.9533,-5.1319,-5.1917,-5.1977,-5.1468,-5.0272,-5.0122,-4.9853,-4.9284,-4.9793,-5.069,-5.2007,-5.1468,-5.1468,-5.2127,-5.2785,-5.3443,-5.4072,-5.479,-5.5119,-5.5119,-5.5179,-5.5179,-5.5269,-5.6496,-5.7034,-5.7124,-5.8578,-5.9483,-6.0104,-6.1376,-6.2723,-6.398,-6.5077,-6.6068,-6.6779,-4.3594,-4.3457,-4.3301,-4.2773,-4.2969,-4.3183,-4.3086,-4.3027,-4.3047,-4.3203,-4.3223,-4.3281,-4.3437,-4.3613,-4.3711,-4.3711,-4.4141,-4.4512,-4.4766,-4.5351,-4.5781,-4.6055,-4.5898,-4.5781,-4.5683,-4.5098,-4.4668,-4.4394,-4.3926,-4.3711,-4.3691,-4.3105,-4.2832,-4.2793,-4.1933,-4.1562,-4.17,-4.4654,-4.6293,-4.7321,-5.0551,-5.2189,-5.2929,-5.2929,-5.2929,-5.2929,-5.2929,-5.2929,-5.2929,-5.2929,-5.2929,-5.2929,-5.2929,-5.2929,-5.2929,-5.2929,-5.3155,-5.3406,-5.3406,-5.3181,-5.2929,-5.2929,-5.2929,-5.2929,-5.2929,-5.2754,-5.2528,-5.2176,-5.1774,-5.1197,-5.0268,-4.9038,-4.7857,-4.7029,0.0,-4.46,-4.3702,-4.5289,-4.6826,-4.7695,-4.9681,-5.1513,-5.2688,-5.2815,-5.2426,-5.1528,-5.1828,-5.1588,-5.0541,-5.1109,-5.1858,-5.2785,-5.2576,-5.2546,-5.2815,-5.3473,-5.3952,-5.4221,-5.488,-5.5179,-5.5179,-5.5179,-5.5179,-5.5269,-5.6526,-5.7094,-5.7184,-5.856,-5.9001,-5.907,-6.1085,-6.2231,-6.2971,-6.4924,-6.617,-6.6745,-4.4219,-4.4023,-4.3691,-4.2949,-4.332,-4.3555,-4.3144,-4.332,-4.3496,-4.3496,-4.3496,-4.3555,-4.3691,-4.3711,-4.3711,-4.3711,-4.4258,-4.4726,-4.5,-4.5566,-4.5996,-4.6289,-4.6308,-4.6172,-4.5879,-4.5312,-4.4883,-4.459,-4.4004,-4.3711,-4.3691,-4.3281,-4.3086,-4.3047,-4.2324,-4.1933,-4.2093,-4.5642,-4.7186,-4.7321,-5.1303,-5.2929,-5.2929,-5.2929,-5.2929,-5.2929,-5.2929,-5.303,-5.3181,-5.3181,-5.3281,-5.3432,-5.3432,-5.3432,-5.3432,-5.3432,-5.3683,-5.3959,-5.3959,-5.3708,-5.3406,-5.3231,-5.3055,-5.3042,-5.3563,-5.3316,-5.2941,-5.3055,-5.2607,-5.1875,-5.1096,-5.0193,-4.9339,-4.8611,-4.758,-4.6604,-4.5615,-4.6619,-4.7809,-4.8807,-5.0351,-5.1918,-5.3405,-5.3503,-5.3234,-5.2546,-5.2935,-5.2785,-5.1887,-5.2247,-5.2815,-5.3473,-5.3503,-5.3593,-5.3803,-5.4072,-5.4221,-5.4221,-5.488,-5.5179,-5.5179,-5.5179,-5.5179,-5.5269,-5.6526,-5.7094,-5.7184,-5.856,-5.871,-5.8324,-6.0746,-6.1726,-6.2263,-6.464,-6.6002,-6.6745,-4.5117,-4.4687,-4.4258,-4.3789,-4.3711,-4.3574,-4.3144,-4.3086,-4.3086,-4.3086,-4.3086,-4.3242,-4.3672,-4.3711,-4.3711,-4.3711,-4.4512,-4.5039,-4.5039,-4.584,-4.6308,-4.6308,-4.6308,-4.6308,-4.6308,-4.5469,-4.5039,-4.5039,-4.4141,-4.3711,-4.3711,-4.3281,-4.3086,-4.3066,-4.2617,-4.2207,-4.2112,-4.5987,-4.7351,-4.7321,-5.1303,-5.2929,-5.2929,-5.2929,-5.2929,-5.2929,-5.2929,-5.3281,-5.3708,-5.3708,-5.4084,-5.4561,-5.4561,-5.4561,-5.4561,-5.4561,-5.4561,-5.4587,-5.4587,-5.4587,-5.4436,-5.3858,-5.3306,-5.3291,-5.5049,-5.4055,-5.3427,-5.5049,-5.3592,-5.2126,-5.2126,-5.1649,-5.0544,-4.8309,-4.7933,-4.7355,-4.5748,-4.6217,-4.7745,-5.0353,-5.1406,-5.2587,-5.4092,-5.4221,-5.3922,-5.3234,-5.3174,-5.3174,-5.3204,-5.3204,-5.3503,-5.4192,-5.4221,-5.4521,-5.5179,-5.4551,-5.4221,-5.4221,-5.488,-5.5179,-5.5179,-5.5179,-5.5179,-5.5269,-5.6555,-5.7094,-5.7214,-5.856,-5.871,-5.8278,-6.026,-6.1388,-6.2233,-6.4152,-6.5734,-6.6812,-4.6016,-4.5332,-4.4805,-4.4648,-4.4121,-4.3769,-4.3965,-4.373,-4.3633,-4.3965,-4.3711,-4.3691,-4.4141,-4.4199,-4.4199,-4.4199,-4.498,-4.5605,-4.5898,-4.6172,-4.6308,-4.6308,-4.6308,-4.6308,-4.6308,-4.5762,-4.5488,-4.5488,-4.4902,-4.4629,-4.4629,-4.4199,-4.3828,-4.3496,-4.3066,-4.248,-4.1955,-4.4482,-4.6136,-4.7029,-4.8361,-5.041,-5.2767,-5.1443,-5.1968,-5.3457,-5.3457,-5.3833,-5.431,-5.431,-5.4411,-5.4561,-5.4561,-5.4561,-5.4561,-5.4561,-5.4838,-5.5214,-5.5616,-5.544,-5.5013,-5.4436,-5.3884,-5.3596,-5.4098,-5.3569,-5.3042,-5.3538,-5.3164,-5.2678,-5.2678,-5.2553,-5.195,-5.0519,-4.9941,-4.9213,-4.7958,-4.7648,-4.8484,-5.1038,-5.1544,-5.2522,-5.4708,-5.491,-5.461,-5.3952,-5.3443,-5.3593,-5.4551,-5.4162,-5.4221,-5.488,-5.491,-5.476,-5.4491,-5.476,-5.491,-5.491,-5.5089,-5.5179,-5.5179,-5.5179,-5.5448,-5.5927,-5.6735,-5.7363,-5.7872,-5.874,-5.8979,-5.8907,-6.0444,-6.1169,-6.1613,-6.404,-6.5171,-6.5559,-4.6426,-4.5879,-4.543,-4.5078,-4.4453,-4.4141,-4.457,-4.4258,-4.4141,-4.459,-4.4394,-4.4336,-4.4609,-4.4648,-4.4648,-4.4648,-4.5273,-4.5859,-4.6269,-4.6308,-4.6308,-4.6308,-4.6308,-4.6308,-4.6308,-4.5898,-4.5683,-4.5683,-4.5234,-4.5019,-4.5019,-4.4766,-4.4492,-4.4219,-4.3789,-4.3203,-4.268,-4.4317,-4.5379,-4.6111,-4.6824,-4.8476,-5.0746,-5.0437,-5.1344,-5.2828,-5.3728,-5.4411,-5.4938,-5.5139,-5.5365,-5.5491,-5.529,-5.5214,-5.5214,-5.5214,-5.544,-5.5792,-5.6118,-5.5968,-5.5641,-5.529,-5.4461,-5.3772,-5.4321,-5.3655,-5.3042,-5.381,-5.3291,-5.2929,-5.2929,-5.2929,-5.2628,-5.1749,-5.1122,-5.0444,-4.954,-4.8736,-4.8974,-5.0829,-5.1336,-5.2321,-5.4126,-5.4845,-5.5029,-5.464,-5.4221,-5.4341,-5.5149,-5.482,-5.479,-5.5179,-5.5179,-5.4999,-5.461,-5.4999,-5.5059,-5.482,-5.5059,-5.5329,-5.5598,-5.5598,-5.5927,-5.6585,-5.7214,-5.7752,-5.8171,-5.883,-5.9099,-5.9207,-5.997,-6.0536,-6.1294,-6.3355,-6.4505,-6.5081,-4.6582,-4.6426,-4.6152,-4.5293,-4.4785,-4.4648,-4.5019,-4.4726,-4.4609,-4.5019,-4.5058,-4.5039,-4.5078,-4.5078,-4.5078,-4.5078,-4.5488,-4.5898,-4.6289,-4.6308,-4.6308,-4.6308,-4.6308,-4.6308,-4.6308,-4.5918,-4.5723,-4.5723,-4.5332,-4.5137,-4.5137,-4.5137,-4.5117,-4.5058,-4.4648,-4.418,-4.3817,-4.4698,-4.494,-4.4879,-4.609,-4.6899,-4.7872,-4.9537,-5.0618,-5.136,-5.3394,-5.4533,-5.5226,-5.6043,-5.657,-5.6947,-5.6445,-5.6294,-5.6294,-5.6344,-5.6369,-5.6369,-5.642,-5.6394,-5.6344,-5.6294,-5.5089,-5.4151,-5.5095,-5.4158,-5.3341,-5.4942,-5.392,-5.2929,-5.2929,-5.2929,-5.2754,-5.2251,-5.1724,-5.1172,-5.0645,-4.9615,-4.9291,-5.0244,-5.1115,-5.2045,-5.3001,-5.4333,-5.5179,-5.5179,-5.5179,-5.5179,-5.5179,-5.5179,-5.5179,-5.5179,-5.5179,-5.5209,-5.5269,-5.5269,-5.494,-5.4311,-5.497,-5.5598,-5.6166,-5.6226,-5.6585,-5.7214,-5.7842,-5.8141,-5.8261,-5.886,-5.9099,-5.9099,-5.9099,-5.9758,-6.102,-6.2291,-6.3638,-6.4901,-4.7461,-4.7305,-4.7031,-4.6172,-4.5683,-4.543,-4.5527,-4.5176,-4.5039,-4.5469,-4.5234,-4.5156,-4.5508,-4.5527,-4.5527,-4.5527,-4.5918,-4.6211,-4.6289,-4.6308,-4.6308,-4.6308,-4.6308,-4.6308,-4.6308,-4.6211,-4.6172,-4.6172,-4.6074,-4.6016,-4.6016,-4.6016,-4.584,-4.5508,-4.5078,-4.4453,-4.3672,-4.3633,-4.4015,-4.4614,-4.3494,-4.4626,-4.7083,-4.6267,-4.7308,-4.9155,-4.9995,-5.1709,-5.388,-5.5557,-5.657,-5.7022,-5.6897,-5.6846,-5.6947,-5.7399,-5.7524,-5.7625,-5.8052,-5.7851,-5.7424,-5.6972,-5.6269,-5.5534,-5.4949,-5.4113,-5.3545,-5.3503,-5.3179,-5.2929,-5.2929,-5.2929,-5.2879,-5.2779,-5.2277,-5.1875,-5.1749,-5.077,-5.0461,-5.1328,-5.1863,-5.2574,-5.3525,-5.4598,-5.5179,-5.5179,-5.5179,-5.5179,-5.5179,-5.5179,-5.5179,-5.5179,-5.5179,-5.5448,-5.5957,-5.5957,-5.5628,-5.497,-5.5658,-5.6047,-5.6196,-5.6675,-5.7274,-5.7902,-5.8052,-5.8411,-5.889,-5.9039,-5.9099,-5.9099,-5.9099,-5.9285,-5.9683,-6.0918,-6.2291,-6.3764,-4.8008,-4.7871,-4.7617,-4.6758,-4.625,-4.5976,-4.5976,-4.5605,-4.5488,-4.5918,-4.5781,-4.5723,-4.5957,-4.5976,-4.5976,-4.5976,-4.6367,-4.6523,-4.6308,-4.6484,-4.6504,-4.6308,-4.6308,-4.6308,-4.6308,-4.6308,-4.6308,-4.6308,-4.6308,-4.6308,-4.6308,-4.6308,-4.6191,-4.5957,-4.5312,-4.4766,-4.4277,-4.3437,-4.3418,-4.3873,-4.2408,-4.2973,-4.4747,-4.4768,-4.5959,-4.7508,-4.8828,-5.0335,-5.234,-5.4122,-5.5184,-5.5947,-5.68,-5.7223,-5.7499,-5.7801,-5.7901,-5.7951,-5.8252,-5.8127,-5.7826,-5.7524,-5.7022,-5.6168,-5.4536,-5.3909,-5.3557,-5.303,-5.2929,-5.2929,-5.2929,-5.2929,-5.2929,-5.2929,-5.2477,-5.2101,-5.2101,-5.1122,-5.0817,-5.1819,-5.2496,-5.3444,-5.4778,-5.5397,-5.5658,-5.5658,-5.5359,-5.5448,-5.6077,-5.5807,-5.5807,-5.6107,-5.5807,-5.5957,-5.6615,-5.6316,-5.6137,-5.6107,-5.6436,-5.6795,-5.7124,-5.7423,-5.7962,-5.859,-5.859,-5.88,-5.9099,-5.9099,-5.9099,-5.9099,-5.9099,-5.9099,-5.9285,-6.0536,-6.226,-6.4137,-4.8281,-4.8262,-4.8047,-4.7187,-4.6816,-4.6582,-4.6426,-4.6113,-4.5996,-4.6269,-4.6308,-4.6308,-4.6308,-4.6308,-4.6308,-4.6308,-4.668,-4.6758,-4.6328,-4.6699,-4.6777,-4.6426,-4.6348,-4.6328,-4.6406,-4.6348,-4.6308,-4.6308,-4.6308,-4.6308,-4.6308,-4.6308,-4.6269,-4.6152,-4.5371,-4.498,-4.4844,-4.3672,-4.3105,-4.291,-4.2187,-4.2031,-4.2327,-4.3853,-4.4806,-4.5628,-4.7657,-4.9116,-5.05,-5.2024,-5.3483,-5.4908,-5.62,-5.725,-5.8052,-5.8152,-5.8177,-5.8177,-5.8177,-5.8102,-5.8001,-5.7926,-5.7474,-5.6495,-5.4461,-5.3909,-5.3708,-5.3181,-5.298,-5.3067,-5.3291,-5.3042,-5.3042,-5.3291,-5.2664,-5.2251,-5.2251,-5.1272,-5.0995,-5.2082,-5.3033,-5.4345,-5.605,-5.6077,-5.6017,-5.6017,-5.5508,-5.5688,-5.6885,-5.6436,-5.6466,-5.7064,-5.6585,-5.6645,-5.7274,-5.6765,-5.6825,-5.7423,-5.7423,-5.7663,-5.8112,-5.8231,-5.859,-5.9099,-5.9099,-5.9099,-5.9099,-5.9099,-5.9099,-5.9099,-5.9099,-5.9099,-5.9285,-6.0536,-6.2358,-6.4289,-4.8281,-4.8516,-4.8496,-4.7637,-4.7754,-4.7695,-4.6953,-4.6797,-4.6641,-4.6348,-4.6308,-4.6308,-4.6308,-4.6308,-4.6308,-4.6308,-4.668,-4.6758,-4.6328,-4.6699,-4.6914,-4.6855,-4.6504,-4.6465,-4.6836,-4.6484,-4.6308,-4.6308,-4.6308,-4.6308,-4.6308,-4.6308,-4.6113,-4.5742,-4.5234,-4.4824,-4.4433,-4.3867,-4.3183,-4.25,-4.2383,-4.1933,-4.1367,-4.1975,-4.2329,-4.2526,-4.3579,-4.5656,-4.8425,-4.9852,-5.238,-5.4801,-5.4908,-5.6682,-5.8704,-5.9156,-5.9282,-5.9282,-5.9282,-5.8956,-5.8504,-5.8027,-5.7474,-5.6696,-5.544,-5.4787,-5.4285,-5.3708,-5.3231,-5.3291,-5.4809,-5.392,-5.3427,-5.4809,-5.3733,-5.2804,-5.2804,-5.1875,-5.1732,-5.3238,-5.4117,-5.5047,-5.6123,-5.5658,-5.5329,-5.5329,-5.5239,-5.5508,-5.6256,-5.6226,-5.6466,-5.7064,-5.7004,-5.7304,-5.7992,-5.7902,-5.8171,-5.883,-5.883,-5.859,-5.8141,-5.871,-5.9009,-5.9099,-5.9099,-5.9099,-5.9099,-5.9099,-5.9099,-5.9099,-5.9099,-5.9099,-5.9285,-6.0536,-6.1193,-6.1865,-4.8613,-4.873,-4.8652,-4.8047,-4.8086,-4.8008,-4.7383,-4.709,-4.6855,-4.668,-4.6445,-4.6308,-4.6308,-4.6308,-4.6308,-4.6308,-4.668,-4.6758,-4.6328,-4.6699,-4.6816,-4.6582,-4.6406,-4.6387,-4.6582,-4.6621,-4.6543,-4.6308,-4.6308,-4.6308,-4.6308,-4.6308,-4.6074,-4.5664,-4.5215,-4.4785,-4.4375,-4.3906,-4.4112,-4.4844,-4.4579,-4.5002,-4.5693,-4.5375,-4.5418,-4.5427,-4.4857,-4.5649,-4.6943,-4.7963,-5.032,-5.3191,-5.4334,-5.6667,-5.9207,-5.9433,-5.9483,-5.9433,-5.9106,-5.888,-5.8579,-5.8027,-5.7474,-5.6897,-5.642,-5.5641,-5.4762,-5.3884,-5.3281,-5.3427,-5.5049,-5.4809,-5.4809,-5.6596,-5.5446,-5.4299,-5.4299,-5.3602,-5.3839,-5.574,-5.6363,-5.6622,-5.6735,-5.6107,-5.5748,-5.5748,-5.5748,-5.6196,-5.7214,-5.7274,-5.7573,-5.8201,-5.7872,-5.7992,-5.865,-5.8321,-5.8471,-5.9099,-5.9099,-5.8949,-5.868,-5.8979,-5.9099,-5.9099,-5.9099,-5.9099,-5.9099,-5.9099,-5.9099,-5.9099,-5.9099,-5.9099,-5.9207,-5.9758,-6.0432,-6.1232]}]]